Date StartTime U_cm/s V_cm/s W_cm/s Ustd_cm/s Vstd_cm/s Wstd_cm/s Uvar_(cm/s)^2 Vvar_(cm/s)^2 Wvar_(cm/s)^2 KE_(m/s)^2 TurbulentKE_(m/s)^2 HorizWindSpeed_cm/s FrictionSpeec_cm/s DragCoef SpeedOfSound_m/s SonicTemperature_C Pressure_mb 
09/20/2014  00:00:00        4.098      -34.534       -1.374       18.752       16.929       14.320      351.646      286.592      205.050        0.103        0.042       34.776       12.376        0.127      343.889       20.318      861.147
09/20/2014  00:01:00      -16.557      -61.974      -11.251       19.421       19.749       13.133      377.170      390.041      172.487        0.259        0.047       64.147        8.551        0.018      343.967       20.451      861.150
09/20/2014  00:02:00      -32.142     -106.890       -4.919       23.706       19.954       14.334      561.995      398.168      205.473        0.682        0.058      111.618        7.494        0.005      343.919       20.369      861.173
09/20/2014  00:03:00      -44.834      -49.027        0.951       29.826       40.971       14.641      889.594     1678.582      214.363        0.360        0.139       66.436       12.421        0.035      343.844       20.243      861.175
09/20/2014  00:04:00      -72.055      -64.257       -4.959       43.759       28.633       22.141     1914.832      819.832      490.210        0.628        0.161       96.545       15.614        0.026      343.772       20.121      861.184
09/20/2014  00:05:00     -104.811      -80.627        0.528       44.985       47.572       30.389     2023.690     2263.062      923.492        1.135        0.261      132.235       27.312        0.043      343.770       20.116      861.183
09/20/2014  00:06:00     -105.325      -89.783        4.767       57.789       40.567       29.309     3339.587     1645.716      859.012        1.251        0.292      138.399       32.016        0.054      343.764       20.105      861.174
09/20/2014  00:07:00     -106.763      -94.536       -8.528       34.886       45.076       27.708     1217.050     2031.850      767.715        1.221        0.201      142.602       13.736        0.009      343.806       20.178      861.194
09/20/2014  00:08:00     -102.114     -104.773       -1.604       46.580       40.082       27.187     2169.724     1606.548      739.132        1.296        0.226      146.303       28.737        0.039      343.817       20.196      861.204
09/20/2014  00:09:00      -65.081      -50.171        1.563       53.132       33.646       23.218     2823.032     1132.086      539.061        0.562        0.225       82.175       23.149        0.079      343.831       20.220      861.213
09/20/2014  00:10:00      -27.462      -46.176        9.308       44.769       40.928       23.540     2004.273     1675.086      554.138        0.360        0.212       53.726       21.758        0.164      343.811       20.187      861.223
09/20/2014  00:11:00      -91.807      -36.924       15.164       49.391       43.710       31.795     2439.506     1910.534     1010.940        0.769        0.268       98.954       28.823        0.085      343.750       20.081      861.242
09/20/2014  00:12:00     -107.197      -86.338        4.515       70.576       51.514       35.197     4981.018     2653.689     1238.833        1.392        0.444      137.643       38.512        0.078      343.804       20.173      861.251
09/20/2014  00:13:00     -160.258     -133.012      -14.317       30.595       33.378       26.091      936.045     1114.106      680.737        2.315        0.137      208.266       16.775        0.006      343.869       20.283      861.246
09/20/2014  00:14:00     -146.327     -116.067       -3.911       32.532       44.273       25.590     1058.301     1960.136      654.832        1.929        0.184      186.771       21.917        0.014      343.767       20.110      861.252
09/20/2014  00:15:00     -101.649      -74.885        4.087       56.761       45.833       29.794     3221.848     2100.703      887.699        1.108        0.311      126.255       34.024        0.073      343.701       19.998      861.248
09/20/2014  00:16:00     -133.329      -92.363        0.020       55.434       39.576       24.807     3072.939     1566.231      615.363        1.578        0.263      162.196       27.111        0.028      343.778       20.129      861.237
09/20/2014  00:17:00     -123.099     -117.411       -1.152       43.540       41.168       30.243     1895.726     1694.766      914.650        1.672        0.225      170.114       25.927        0.023      343.791       20.152      861.243
09/20/2014  00:18:00     -124.760      -78.118        2.358       55.897       33.004       28.027     3124.525     1089.278      785.538        1.334        0.250      147.199       28.424        0.037      343.831       20.220      861.247
09/20/2014  00:19:00     -102.396      -56.879       -6.890       25.706       33.155       20.419      660.810     1099.257      416.919        0.797        0.109      117.133       14.308        0.015      343.764       20.106      861.259
09/20/2014  00:20:00     -108.848      -30.921      -10.489       32.475       29.140       17.775     1054.594      849.147      315.938        0.757        0.111      113.155       16.211        0.021      343.722       20.034      861.273
09/20/2014  00:21:00     -117.903      -52.491      -12.666       29.222       43.045       19.416      853.924     1852.853      376.971        0.995        0.154      129.060       17.877        0.019      343.757       20.095      861.281
09/20/2014  00:22:00      -85.581      -22.906       -3.171       30.774       20.843       15.945      947.034      434.411      254.228        0.475        0.082       88.594        7.313        0.007      343.669       19.943      861.278
09/20/2014  00:23:00     -102.313      -34.128        0.322       33.127       32.128       22.100     1097.393     1032.226      488.416        0.712        0.131      107.855       20.790        0.037      343.609       19.842      861.281
09/20/2014  00:24:00     -132.746      -45.502      -10.654       27.556       35.765       15.633      759.325     1279.132      244.405        1.104        0.114      140.327       15.013        0.011      343.659       19.925      861.293
09/20/2014  00:25:00      -77.562      -48.101        4.657       35.902       32.923       19.647     1288.986     1083.907      386.014        0.555        0.138       91.266       19.650        0.046      343.629       19.873      861.297
09/20/2014  00:26:00     -131.094      -49.185       -9.839       23.099       31.636       18.067      533.555     1000.807      326.430        1.078        0.093      140.017       11.350        0.007      343.732       20.052      861.296
09/20/2014  00:27:00      -91.946      -51.593       -7.075       21.269       18.289       13.343      452.365      334.478      178.046        0.607        0.048      105.432        8.228        0.006      343.603       19.830      861.323
09/20/2014  00:28:00      -30.277      -24.500        5.014       40.748       20.492       18.956     1660.418      419.937      359.335        0.199        0.122       38.948       24.327        0.390      343.582       19.794      861.338
09/20/2014  00:29:00      -80.245      -31.444       -9.435       22.451       12.459       11.845      504.045      155.217      140.298        0.416        0.040       86.185       13.130        0.023      343.632       19.881      861.348
09/20/2014  00:30:00      -89.461      -66.778      -17.695       12.233       24.816        9.901      149.636      615.826       98.027        0.682        0.043      111.636        6.474        0.003      343.686       19.971      861.345
09/20/2014  00:31:00      -83.240      -77.759       -0.223       30.325       22.529       19.924      919.612      507.567      396.982        0.740        0.091      113.910       17.334        0.023      343.749       20.080      861.345
09/20/2014  00:32:00      -77.416      -54.588        1.523       42.953       31.752       22.069     1844.961     1008.188      487.062        0.616        0.167       94.726       25.399        0.072      343.807       20.181      861.355
09/20/2014  00:33:00     -113.717      -38.256       -3.066       34.795       20.596       14.916     1210.660      424.181      222.488        0.813        0.093      119.979       16.138        0.018      343.724       20.036      861.367
09/20/2014  00:34:00     -114.679      -54.928       -0.754       25.601       19.866       14.800      655.423      394.662      219.054        0.872        0.063      127.155       12.971        0.010      343.653       19.918      861.379
09/20/2014  00:35:00      -68.675      -39.437        4.733       35.550       32.017       20.281     1263.799     1025.058      411.301        0.450        0.135       79.193       20.901        0.070      343.658       19.925      861.382
09/20/2014  00:36:00      -86.478      -58.135        3.476       44.004       30.782       20.930     1936.390      947.549      438.084        0.710        0.166      104.202       23.394        0.050      343.760       20.099      861.389
09/20/2014  00:37:00      -76.797      -42.943        6.887       40.545       41.513       23.354     1643.888     1723.310      545.408        0.585        0.196       87.988       23.597        0.072      343.674       19.951      861.374
09/20/2014  00:38:00     -116.898      -74.289       -1.891       39.279       23.805       16.429     1542.864      566.672      269.909        1.078        0.119      138.506       14.209        0.011      343.675       19.953      861.370
09/20/2014  00:39:00     -127.276      -77.171       -0.681       37.484       23.296       18.360     1405.022      542.693      337.107        1.222        0.114      148.844       17.702        0.014      343.593       19.815      861.366
09/20/2014  00:40:00     -121.262      -76.893       -0.805       35.184       27.854       21.959     1237.879      775.836      482.211        1.156        0.125      143.586       17.156        0.014      343.505       19.663      861.379
09/20/2014  00:41:00     -136.725      -63.819       -1.196       33.864       24.846       22.038     1146.739      617.348      485.653        1.251        0.112      150.886       21.216        0.020      343.571       19.777      861.390
09/20/2014  00:42:00      -74.599      -38.418       -2.515       40.647       36.884       20.971     1652.207     1360.416      439.796        0.525        0.173       83.910       17.404        0.043      343.557       19.753      861.383
09/20/2014  00:43:00      -55.719      -19.179        1.437       27.773       17.734       13.673      771.341      314.505      186.949        0.237        0.064       58.927       10.015        0.029      343.513       19.677      861.395
09/20/2014  00:44:00      -76.465      -22.450        0.954       20.678       21.966       15.750      427.593      482.491      248.052        0.375        0.058       79.693       12.302        0.024      343.484       19.628      861.401
09/20/2014  00:45:00     -111.773      -36.556       -6.905       30.762       23.858       17.113      946.313      569.190      292.859        0.784        0.090      117.600       14.310        0.015      343.450       19.571      861.399
09/20/2014  00:46:00      -67.356      -40.277       -6.386       39.752       26.017       23.956     1580.261      676.859      573.886        0.451        0.142       78.480       25.652        0.107      343.401       19.486      861.390
09/20/2014  00:47:00      -65.836      -57.286        2.839       38.247       28.696       20.688     1462.850      823.479      428.004        0.517        0.136       87.270       19.252        0.049      343.398       19.483      861.395
09/20/2014  00:48:00     -103.701      -54.200       -0.260       41.212       32.318       27.425     1698.396     1044.428      752.153        0.859        0.175      117.011       25.348        0.047      343.386       19.460      861.393
09/20/2014  00:49:00     -105.111      -74.140       -1.531       41.959       38.630       22.087     1760.561     1492.292      487.823        1.014        0.187      128.628       20.859        0.026      343.383       19.456      861.394
09/20/2014  00:50:00      -65.113      -60.254       -1.985       29.514       31.824       18.205      871.050     1012.736      331.425        0.504        0.111       88.715       17.233        0.038      343.335       19.374      861.384
09/20/2014  00:51:00      -97.712      -73.804        0.040       35.260       22.671       19.167     1243.292      513.959      367.366        0.856        0.106      122.452       18.933        0.024      343.416       19.513      861.365
09/20/2014  00:52:00      -30.506      -20.437        7.307       33.670       25.726       22.389     1133.652      661.853      501.246        0.185        0.115       36.719       16.794        0.209      343.311       19.333      861.369
09/20/2014  00:53:00      -96.191      -50.282       -6.601       20.958       21.021       15.742      439.250      441.895      247.798        0.648        0.056      108.540       11.577        0.011      343.276       19.273      861.385
09/20/2014  00:54:00      -67.411      -31.266       -3.254       18.993       19.402       13.597      360.737      376.432      184.870        0.323        0.046       74.309       12.185        0.027      343.242       19.215      861.390
09/20/2014  00:55:00      -45.698      -27.595        0.943       25.899       19.044       13.079      670.755      362.673      171.064        0.203        0.060       53.384       11.291        0.045      343.213       19.168      861.385
09/20/2014  00:56:00      -88.972      -28.668       -2.206       30.718       16.939       11.931      943.588      286.946      142.354        0.506        0.069       93.476       13.566        0.021      343.248       19.226      861.382
09/20/2014  00:57:00     -118.494      -43.142       -2.488       24.360       24.208       13.032      593.426      586.014      169.837        0.863        0.067      126.103        7.859        0.004      343.241       19.213      861.393
09/20/2014  00:58:00      -86.264      -62.188       -1.212       31.554       22.693       18.723      995.661      514.957      350.559        0.659        0.093      106.343       11.176        0.011      343.099       18.972      861.405
09/20/2014  00:59:00      -66.314      -50.619        0.725       38.091       31.693       20.174     1450.907     1004.418      406.991        0.491        0.143       83.426       19.054        0.052      343.032       18.858      861.407
09/20/2014  01:00:00      -74.379      -53.749       -1.951       26.455       19.294       17.224      699.857      372.243      296.662        0.490        0.068       91.767       14.292        0.024      343.093       18.962      861.416
09/20/2014  01:01:00      -80.574      -47.824       -2.390       27.542       23.711       18.348      758.589      562.222      336.654        0.522        0.083       93.698       14.070        0.023      343.034       18.863      861.434
09/20/2014  01:02:00      -67.422      -55.054        2.680       20.926       24.863       14.531      437.877      618.154      211.141        0.443        0.063       87.044       12.467        0.021      343.070       18.923      861.439
09/20/2014  01:03:00      -73.552      -34.119        1.059       32.570       20.404       18.357     1060.778      416.322      336.982        0.419        0.091       81.080       21.173        0.068      342.985       18.779      861.441
09/20/2014  01:04:00     -104.099      -51.917        3.415       30.011       23.502       14.067      900.687      552.367      197.877        0.760        0.083      116.327       13.003        0.012      343.017       18.833      861.440
09/20/2014  01:05:00     -145.589      -53.160        0.270       23.730       18.191       12.519      563.120      330.897      156.719        1.254        0.053      154.991       10.765        0.005      342.965       18.744      861.439
09/20/2014  01:06:00     -160.362      -43.616       -9.030       24.246       19.293       14.332      587.866      372.233      205.393        1.443        0.058      166.188        8.617        0.003      342.922       18.671      861.449
09/20/2014  01:07:00     -137.101      -36.294       -5.027       39.978       26.955       21.428     1598.234      726.583      459.169        1.146        0.139      141.824       22.424        0.025      342.858       18.563      861.458
09/20/2014  01:08:00     -108.610       -9.184       -3.772       46.219       29.894       27.050     2136.195      893.645      731.704        0.783        0.188      108.998       29.357        0.073      342.763       18.401      861.462
09/20/2014  01:09:00     -144.986      -19.302      -17.311       26.004       23.435       13.908      676.193      549.195      193.423        1.156        0.071      146.266       12.287        0.007      342.849       18.545      861.473
09/20/2014  01:10:00     -103.886      -27.047       -3.706       53.468       29.632       26.573     2858.861      878.046      706.127        0.799        0.222      107.349       28.170        0.069      342.803       18.469      861.462
09/20/2014  01:11:00     -113.516      -37.093       -1.437       39.368       38.284       24.076     1549.877     1465.649      579.635        0.893        0.180      119.423       23.106        0.037      342.854       18.556      861.472
09/20/2014  01:12:00     -146.052      -48.033       -8.801       34.308       32.042       25.834     1177.061     1026.676      667.377        1.329        0.144      153.747       23.775        0.024      342.869       18.579      861.468
09/20/2014  01:13:00     -137.449      -43.183       -5.690       38.127       30.827       17.678     1453.642      950.307      312.513        1.175        0.136      144.073       19.995        0.019      342.865       18.573      861.454
09/20/2014  01:14:00     -120.056      -11.316       -9.387       34.713       36.361       16.108     1205.024     1322.150      259.482        0.871        0.139      120.588       12.681        0.011      342.851       18.550      861.465
09/20/2014  01:15:00     -126.871       22.486       -8.608       36.354       23.480       18.085     1321.586      551.326      327.076        0.944        0.110      128.848       12.147        0.009      343.043       18.876      861.494
09/20/2014  01:16:00      -80.368       21.402       -6.610       42.606       25.923       19.696     1815.261      672.012      387.932        0.492        0.144       83.169       19.376        0.054      343.231       19.196      861.499
09/20/2014  01:17:00      -39.595       10.202       -5.758       34.941       25.634       18.697     1220.907      657.125      349.570        0.197        0.111       40.888       18.860        0.213      343.181       19.110      861.489
09/20/2014  01:18:00      -85.671      -12.199      -16.017       22.135       26.509       13.576      489.956      702.732      184.298        0.456        0.069       86.535       11.086        0.016      343.203       19.150      861.485
09/20/2014  01:19:00      -85.516      -36.838      -17.908       20.811       21.046       14.805      433.089      442.943      219.182        0.504        0.055       93.113       10.701        0.013      343.001       18.806      861.489
09/20/2014  01:20:00      -45.577      -21.154      -10.478       25.542       19.277       11.740      652.403      371.584      137.828        0.190        0.058       50.246       12.674        0.064      343.028       18.851      861.483
09/20/2014  01:21:00      -24.580        2.761       -7.823       23.997       20.479       11.887      575.868      419.370      141.304        0.090        0.057       24.734        7.707        0.097      343.063       18.910      861.498
09/20/2014  01:22:00      -83.300       -6.643      -15.246       19.258       13.003       10.362      370.880      169.089      107.376        0.393        0.032       83.565        6.385        0.006      343.340       19.384      861.493
09/20/2014  01:23:00      -82.177      -49.336      -12.530       17.918       19.552       11.854      321.051      382.285      140.529        0.509        0.042       95.849        7.027        0.005      343.064       18.913      861.472
09/20/2014  01:24:00      -85.119      -31.773       -0.576       27.001       27.514       15.383      729.029      757.006      236.627        0.499        0.086       90.856       13.484        0.022      342.942       18.704      861.466
09/20/2014  01:25:00      -56.141      -16.415       -6.102       27.638       28.495       21.328      763.837      811.961      454.870        0.274        0.102       58.492       13.531        0.054      343.046       18.882      861.468
09/20/2014  01:26:00      -80.793        1.462      -12.849       35.731       23.633       20.728     1276.714      558.536      429.671        0.448        0.113       80.806       17.228        0.045      343.412       19.507      861.470
09/20/2014  01:27:00     -103.002       -4.490       -8.914       24.154       17.072       18.523      583.407      291.469      343.108        0.596        0.061      103.100       13.413        0.017      343.221       19.182      861.464
09/20/2014  01:28:00      -41.993       -1.180        0.308       28.733       27.220       14.737      825.560      740.905      217.177        0.177        0.089       42.009       13.389        0.102      343.032       18.859      861.468
09/20/2014  01:29:00      -46.144      -13.103        0.342       32.642       19.985       12.116     1065.492      399.405      146.796        0.196        0.081       47.969       13.686        0.081      343.211       19.164      861.482
09/20/2014  01:30:00      -13.652      -21.025        3.241       20.881       17.046       13.581      435.997      290.579      184.454        0.077        0.046       25.069       13.916        0.308      343.130       19.024      861.488
09/20/2014  01:31:00      -12.640       -2.968        9.673       29.306        9.435        9.873      858.822       89.027       97.480        0.065        0.052       12.984       15.145        1.361      342.937       18.697      861.494
09/20/2014  01:32:00      -70.246      -29.139       -7.420       11.636       15.589        9.047      135.404      243.009       81.847        0.315        0.023       76.050        5.288        0.005      342.939       18.698      861.486
09/20/2014  01:33:00      -78.108      -28.527       -5.463       31.488       18.861       13.723      991.516      355.754      188.319        0.424        0.077       83.154        9.561        0.013      342.852       18.551      861.492
09/20/2014  01:34:00      -85.892      -42.827      -10.385       15.612       12.576       10.652      243.742      158.154      113.455        0.492        0.026       95.978        5.363        0.003      342.921       18.668      861.502
09/20/2014  01:35:00      -79.557      -42.202      -13.553       13.889       10.756       11.239      192.918      115.697      126.305        0.436        0.022       90.057        5.114        0.003      343.002       18.807      861.503
09/20/2014  01:36:00      -99.805      -26.453      -11.282        9.551       17.346       10.030       91.226      300.893      100.611        0.564        0.025      103.251        3.357        0.001      342.792       18.449      861.507
09/20/2014  01:37:00      -49.555      -34.844       -1.750       27.710       16.747       13.913      767.824      280.449      193.584        0.246        0.062       60.579       10.578        0.030      342.732       18.346      861.500
09/20/2014  01:38:00      -14.351      -13.288       -0.879       13.891       14.269       11.458      192.949      203.617      131.294        0.046        0.026       19.559        8.486        0.188      342.724       18.333      861.504
09/20/2014  01:39:00      -34.949      -36.234       -6.476       12.901        9.073       13.167      166.425       82.318      173.360        0.150        0.021       50.342        6.430        0.016      342.894       18.625      861.518
09/20/2014  01:40:00      -56.170      -25.600       -9.581       22.820       12.321       10.789      520.752      151.810      116.400        0.235        0.039       61.728        8.144        0.017      342.952       18.721      861.522
09/20/2014  01:41:00      -29.132      -24.963       -1.602       19.604       12.042       12.317      384.323      145.018      151.708        0.108        0.034       38.365        7.003        0.033      342.800       18.464      861.522
09/20/2014  01:42:00      -60.040      -36.967       -1.654       28.322       15.360       14.250      802.114      235.942      203.057        0.311        0.062       70.508        6.872        0.009      342.885       18.606      861.514
09/20/2014  01:43:00      -66.685      -42.463       -9.910       34.074       19.578       15.285     1161.042      383.284      233.629        0.406        0.089       79.057       13.694        0.030      342.822       18.501      861.513
09/20/2014  01:44:00      -55.462      -40.276       -1.272       30.669       24.430       21.103      940.599      596.827      445.348        0.334        0.099       68.543       15.208        0.049      342.770       18.412      861.528
09/20/2014  01:45:00      -90.256      -53.409       -8.136       31.307       28.472       21.301      980.113      810.660      453.726        0.665        0.112      104.874       17.990        0.029      342.769       18.411      861.533
09/20/2014  01:46:00      -78.258     -125.024       -8.506       35.912       43.532       18.663     1289.637     1894.998      348.315        1.268        0.177      147.496       20.637        0.020      342.860       18.565      861.521
09/20/2014  01:47:00     -122.597      -93.588       -8.651       37.389       42.861       27.501     1397.965     1837.055      756.311        1.393        0.200      154.236       19.599        0.016      342.777       18.423      861.524
09/20/2014  01:48:00      -71.710      -88.861       -6.222       49.230       32.998       25.061     2423.632     1088.875      628.029        0.861        0.207      114.187       18.782        0.027      342.850       18.548      861.528
09/20/2014  01:49:00      -83.339      -99.433       -6.581       56.881       44.621       29.771     3235.484     1991.074      886.288        1.149        0.306      129.740       24.034        0.034      342.738       18.359      861.520
09/20/2014  01:50:00      -92.560      -52.868        4.660       42.542       44.795       28.325     1809.839     2006.574      802.333        0.800        0.231      106.595       25.418        0.057      342.574       18.079      861.532
09/20/2014  01:51:00      -97.848      -72.191        4.192       69.656       60.094       30.545     4851.988     3611.296      932.969        1.210        0.470      121.596       31.473        0.067      342.540       18.020      861.537
09/20/2014  01:52:00     -111.341      -55.528       -0.615       60.511       38.570       37.280     3661.618     1487.623     1389.784        1.101        0.327      124.419       32.121        0.067      342.538       18.019      861.544
09/20/2014  01:53:00      -86.757      -85.414       -5.807       48.386       54.752       24.508     2341.225     2997.761      600.662        1.040        0.297      121.747       19.778        0.026      342.558       18.052      861.555
09/20/2014  01:54:00      -60.987      -79.283        0.547       43.812       49.682       21.048     1919.472     2468.302      443.038        0.742        0.242      100.026       19.223        0.037      342.593       18.111      861.548
09/20/2014  01:55:00      -77.088      -39.441      -17.733       41.747       48.050       25.550     1742.779     2308.844      652.796        0.626        0.235       86.592       21.447        0.061      342.562       18.059      861.558
09/20/2014  01:56:00      -85.593     -128.658       -8.156       39.235       49.389       26.309     1539.406     2439.251      692.173        1.431        0.234      154.528       14.987        0.009      342.710       18.309      861.553
09/20/2014  01:57:00     -103.267      -95.919      -11.682       38.021       42.479       25.819     1445.580     1804.500      666.633        1.196        0.196      140.941       19.552        0.019      342.697       18.288      861.543
09/20/2014  01:58:00      -98.556      -31.172        2.758       64.275       51.171       28.662     4131.314     2618.516      821.487        0.913        0.379      103.368       23.195        0.050      342.560       18.055      861.543
09/20/2014  01:59:00     -148.041      -51.306      -15.504       31.426       42.774       22.993      987.600     1829.655      528.669        1.407        0.167      156.679        8.976        0.003      342.526       17.998      861.548
09/20/2014  02:00:00      -64.963      -72.293      -13.029       75.180       39.644       22.113     5652.080     1571.609      488.996        0.866        0.386       97.193       15.731        0.026      343.625       19.870      861.543
09/20/2014  02:01:00     -143.348      -64.314       -4.820       32.199       30.993       23.653     1036.798      960.542      559.448        1.363        0.128      157.115       16.107        0.011      342.573       18.077      861.543
09/20/2014  02:02:00      -62.332      -57.021       -9.849       45.651       26.897       12.357     2083.974      723.441      152.696        0.510        0.148       84.479       14.168        0.028      342.786       18.438      861.551
09/20/2014  02:03:00     -143.411      -84.385      -11.574       40.275       31.900       20.810     1622.087     1017.632      433.077        1.545        0.154      166.396       18.010        0.012      342.668       18.237      861.532
09/20/2014  02:04:00     -135.917      -67.761      -10.260       49.957       41.710       23.362     2495.732     1739.719      545.797        1.397        0.239      151.872       20.875        0.019      342.589       18.104      861.526
09/20/2014  02:05:00     -134.774      -58.689      -13.113       43.518       53.968       23.423     1893.839     2912.552      548.656        1.357        0.268      146.998       18.444        0.016      342.596       18.118      861.530
09/20/2014  02:06:00     -131.057      -32.378      -25.701       21.068       30.004       13.538      443.861      900.224      183.272        1.021        0.076      134.997        7.966        0.003      342.550       18.038      861.527
09/20/2014  02:07:00     -123.576      -42.717      -11.945       28.723       26.721       15.927      825.001      713.996      253.685        0.952        0.090      130.751       13.559        0.011      342.486       17.928      861.510
09/20/2014  02:08:00     -115.150      -51.844       -7.306       33.398       33.043       19.648     1115.451     1091.863      386.044        0.930        0.130      126.283       18.094        0.021      342.497       17.948      861.487
09/20/2014  02:09:00     -112.526       29.462      -12.113       37.994       50.247       22.017     1443.520     2524.791      484.732        0.906        0.223      116.319       15.589        0.018      343.116       19.002      861.488
09/20/2014  02:10:00     -174.557      -24.340      -30.531       21.159       41.433       18.361      447.693     1716.716      337.145        1.725        0.125      176.246        7.873        0.002      342.434       17.842      861.488
09/20/2014  02:11:00     -107.008      -52.943      -13.413       20.985       52.417       14.337      440.387     2747.494      205.543        0.891        0.170      119.389       12.376        0.011      342.491       17.937      861.494
09/20/2014  02:12:00      -81.820      -24.180       -9.238       38.496       28.574       17.448     1481.938      816.450      304.446        0.498        0.130       85.318       17.158        0.040      342.453       17.874      861.500
09/20/2014  02:13:00     -113.005      -47.827       -9.750       35.582       24.764       20.805     1266.063      613.264      432.834        0.873        0.116      122.709       20.288        0.027      342.461       17.886      861.508
09/20/2014  02:14:00     -103.430      -49.217      -12.133       45.309       28.471       20.434     2052.930      810.605      417.552        0.827        0.164      114.543       21.510        0.035      342.488       17.934      861.510
09/20/2014  02:15:00      -30.964      -32.248       16.207       62.752       68.047       32.569     3937.864     4630.453     1060.759        0.594        0.481       44.707       32.842        0.540      342.490       17.936      861.517
09/20/2014  02:16:00      -61.359      -31.266       10.176       36.427       34.634       27.610     1326.944     1199.535      762.310        0.407        0.164       68.866       23.254        0.114      342.627       18.169      861.525
09/20/2014  02:17:00      -44.598      -30.959        3.536       34.092       19.457       12.823     1162.288      378.583      164.429        0.233        0.085       54.290        9.505        0.031      342.612       18.143      861.537
09/20/2014  02:18:00      -98.213      -62.119        1.474       67.392       34.686       20.528     4541.620     1203.093      421.401        0.984        0.308      116.209       19.673        0.029      342.590       18.106      861.554
09/20/2014  02:19:00     -120.122      -83.875       -2.909       68.247       58.347       31.205     4657.615     3404.403      973.729        1.525        0.452      146.507       29.485        0.041      342.322       17.650      861.559
09/20/2014  02:20:00     -135.604      -95.376      -21.861       50.030       83.054       31.092     2503.046     6897.908      966.726        1.916        0.518      165.786       22.224        0.018      342.347       17.691      861.557
09/20/2014  02:21:00     -137.288      -90.820      -11.079       53.664       43.672       31.959     2879.783     1907.281     1021.408        1.651        0.290      164.610       27.785        0.028      342.323       17.651      861.580
09/20/2014  02:22:00     -131.702     -110.266       -5.506       60.359       42.308       32.321     3643.249     1789.940     1044.648        1.800        0.324      171.767       35.088        0.042      342.267       17.557      861.581
09/20/2014  02:23:00      -49.784      -87.888       13.531       61.257       57.610       35.058     3752.379     3318.891     1229.076        0.934        0.415      101.008       44.614        0.195      342.333       17.669      861.577
09/20/2014  02:24:00      -76.690      -77.841        1.105       44.382       37.034       23.138     1969.775     1371.545      535.389        0.791        0.194      109.273       20.897        0.037      342.459       17.884      861.577
09/20/2014  02:25:00      -40.890      -41.165       -2.018       25.490       28.054       17.811      649.743      787.036      317.240        0.256        0.088       58.022       16.016        0.076      342.456       17.879      861.586
09/20/2014  02:26:00      -34.903      -34.500        3.331       25.131       27.516       19.036      631.556      757.132      362.353        0.208        0.088       49.076       17.663        0.130      342.340       17.681      861.593
09/20/2014  02:27:00      -55.127       -2.827       -4.634       22.383       21.934       12.897      501.007      481.113      166.345        0.211        0.057       55.200       11.265        0.042      342.299       17.612      861.587
09/20/2014  02:28:00      -69.456        4.499       -6.126       16.948       21.564       13.381      287.239      465.012      179.046        0.291        0.047       69.602       10.587        0.023      342.265       17.553      861.588
09/20/2014  02:29:00      -27.208       -1.565       -7.000       25.007       13.604        8.107      625.329      185.070       65.731        0.083        0.044       27.253        7.447        0.075      342.202       17.445      861.601
09/20/2014  02:30:00       -4.947      -36.745       -4.593       39.952       22.760       12.053     1596.154      518.010      145.286        0.183        0.113       37.076       12.089        0.106      343.131       19.027      861.619
09/20/2014  02:31:00     -101.231      -13.586       -6.017       24.905       49.469       14.300      620.268     2447.163      204.482        0.687        0.164      102.139       13.792        0.018      342.976       18.764      861.612
09/20/2014  02:32:00      -65.778      -17.477       -8.099       24.515       15.730       16.175      600.992      247.429      261.630        0.290        0.056       68.060       15.657        0.053      342.584       18.096      861.608
09/20/2014  02:33:00      -39.317        4.768       -2.870       11.251       23.811        9.886      126.588      566.943       97.735        0.118        0.040       39.605       12.043        0.092      342.590       18.106      861.606
09/20/2014  02:34:00        1.987       -3.012        1.603       31.542        8.087       16.143      994.915       65.395      260.604        0.067        0.066        3.608       20.560       32.475      343.281       19.283      861.608
09/20/2014  02:35:00      -67.200      -23.402        3.306       33.640       20.473       22.297     1131.617      419.140      497.140        0.356        0.102       71.158       21.974        0.095      342.617       18.154      861.592
09/20/2014  02:36:00      -98.843        0.667      -12.255       18.587       20.176       10.843      345.471      407.086      117.571        0.540        0.044       98.845        5.952        0.004      342.176       17.402      861.599
09/20/2014  02:37:00      -21.616      -15.026      -13.037       23.075       13.890        9.672      532.458      192.919       93.550        0.084        0.041       26.326       10.465        0.158      342.592       18.109      861.603
09/20/2014  02:38:00        5.050      -26.848       13.117        7.007       12.838       12.211       49.098      164.824      149.103        0.064        0.018       27.319       10.599        0.151      343.500       19.657      861.596
09/20/2014  02:39:00      -42.576      -22.270       -5.895       26.113       14.216       12.166      681.913      202.097      148.006        0.169        0.052       48.049       15.576        0.105      342.408       17.796      861.597
09/20/2014  02:40:00      -79.158      -40.808       -4.912       37.723       17.868       10.928     1423.034      319.277      119.430        0.491        0.093       89.058        5.822        0.004      342.450       17.868      861.586
09/20/2014  02:41:00     -118.128      -33.962      -13.564       52.720       18.811       16.276     2779.346      353.851      264.912        0.934        0.170      122.913       19.694        0.026      342.187       17.422      861.590
09/20/2014  02:42:00      -25.552      -61.549       -0.247       26.428       23.085       15.666      698.465      532.909      245.426        0.296        0.074       66.643       11.817        0.031      342.613       18.145      861.595
09/20/2014  02:43:00      -47.442      -14.579        0.618       38.248       41.003       17.787     1462.919     1681.218      316.394        0.296        0.173       49.632       15.776        0.101      342.587       18.102      861.598
09/20/2014  02:44:00      -13.990      -10.933       11.054       36.367       20.792       16.841     1322.541      432.298      283.614        0.124        0.102       17.756       21.741        1.499      342.357       17.709      861.593
09/20/2014  02:45:00       -6.718       -3.485        5.891       20.853       17.670       10.081      434.839      312.212      101.618        0.047        0.042        7.568       13.465        3.165      342.256       17.537      861.609
09/20/2014  02:46:00      -54.178      -48.732        1.291       43.719       23.319       22.617     1911.316      543.783      511.544        0.414        0.148       72.870       22.744        0.097      342.436       17.843      861.599
09/20/2014  02:47:00      -94.327      -64.799       -0.360       57.054       39.019       27.718     3255.205     1522.491      768.301        0.932        0.277      114.440       26.707        0.054      342.179       17.409      861.611
09/20/2014  02:48:00      -62.590      -57.520        8.360       60.936       46.102       30.920     3713.216     2125.399      956.043        0.704        0.340       85.006       37.977        0.200      342.133       17.329      861.607
09/20/2014  02:49:00      -59.184      -41.127        9.927      102.240       43.239       40.340    10452.972     1869.645     1627.316        0.962        0.697       72.070       55.664        0.597      342.418       17.813      861.596
09/20/2014  02:50:00      -99.285      -49.778       -2.886       56.297       34.010       27.016     3169.393     1156.707      729.884        0.870        0.253      111.065       30.568        0.076      342.209       17.459      861.613
09/20/2014  02:51:00      -72.114      -78.553       -8.867       42.707       39.285       23.309     1823.906     1543.334      543.303        0.768        0.196      106.635       16.728        0.025      342.295       17.604      861.598
09/20/2014  02:52:00     -152.794      -63.031       -9.528       32.333       30.641       18.819     1045.403      938.894      354.162        1.487        0.117      165.284        3.772        0.001      342.169       17.389      861.602
09/20/2014  02:53:00      -58.436      -79.466       -0.951       34.520       27.316       16.435     1191.642      746.185      270.094        0.597        0.110       98.638        6.422        0.004      342.083       17.243      861.601
09/20/2014  02:54:00      -51.309      -65.484        0.851       29.790       15.160       16.531      887.429      229.829      273.262        0.416        0.070       83.191       13.782        0.027      342.351       17.698      861.589
09/20/2014  02:55:00      -65.158      -79.776       -0.513       39.474       43.044       27.379     1558.189     1852.783      749.603        0.738        0.208      103.004       26.985        0.069      342.208       17.458      861.579
09/20/2014  02:56:00      -52.455      -54.300        5.737       37.950       29.253       17.674     1440.196      855.744      312.358        0.417        0.130       75.498       18.710        0.061      342.333       17.668      861.579
09/20/2014  02:57:00      -33.969       -7.526        4.160       15.860       14.357       12.106      251.540      206.120      146.545        0.092        0.030       34.793        9.787        0.079      342.383       17.754      861.591
09/20/2014  02:58:00      -17.709      -31.726        2.717       23.765       12.014        9.340      564.781      144.331       87.241        0.106        0.040       36.334        9.025        0.062      342.604       18.131      861.598
09/20/2014  02:59:00      -14.275      -39.124       -0.851       18.858       11.553        7.341      355.627      133.471       53.896        0.114        0.027       41.647        6.757        0.026      342.895       18.626      861.592
09/20/2014  03:00:00      -52.196        9.809       -6.149        9.939       10.737        9.095       98.778      115.275       82.727        0.158        0.015       53.110        6.807        0.016      342.814       18.487      861.599
09/20/2014  03:01:00      -78.677      -14.100      -10.191       13.252       22.370        8.763      175.622      500.424       76.793        0.362        0.038       79.931        4.465        0.003      342.573       18.078      861.606
09/20/2014  03:02:00      -62.038      -14.263       -8.840       10.200       12.815        5.639      104.046      164.221       31.793        0.222        0.015       63.657        2.872        0.002      342.238       17.507      861.598
09/20/2014  03:03:00      -61.284      -19.459       -9.440        8.791       11.658        6.594       77.276      135.916       43.485        0.224        0.013       64.299        5.639        0.008      342.321       17.648      861.582
09/20/2014  03:04:00      -66.877      -43.022       -7.361       27.138       11.030       12.176      736.474      121.660      148.261        0.369        0.050       79.520       10.965        0.019      342.286       17.589      861.561
09/20/2014  03:05:00      -64.221      -30.972      -10.220       46.009       17.672       11.274     2116.782      312.310      127.108        0.387        0.128       71.299       10.967        0.024      342.137       17.336      861.559
09/20/2014  03:06:00       -0.344        6.106       -1.456       14.038       16.558       12.216      197.074      274.173      149.221        0.033        0.031        6.116       13.687        5.008      342.390       17.767      861.580
09/20/2014  03:07:00      -36.586       81.462      -18.164       42.075       33.728       12.243     1770.313     1137.574      149.891        0.568        0.153       89.300       12.290        0.019      342.529       18.002      861.600
09/20/2014  03:08:00      -69.285      -22.684       -5.325       19.167       31.271       15.624      367.361      977.867      244.098        0.347        0.079       72.904       13.894        0.036      342.403       17.788      861.600
09/20/2014  03:09:00      -27.670      -91.815       -0.926       27.385       35.264       18.432      749.933     1243.542      339.751        0.576        0.117       95.894       12.865        0.018      342.497       17.948      861.559
09/20/2014  03:10:00      -20.406      -87.004       -4.698       23.948       46.220       22.285      573.524     2136.300      496.622        0.561        0.160       89.365       30.211        0.114      343.640       19.893      861.512
09/20/2014  03:11:00       -7.180      124.817        3.932       27.515       89.834       40.357      757.070     8070.109     1628.681        1.305        0.523      125.023       57.023        0.208      342.649       18.205      861.550
09/20/2014  03:12:00      -55.475       34.217       -9.512       33.479       69.848       18.030     1120.853     4878.764      325.096        0.533        0.316       65.179       19.945        0.094      342.728       18.341      861.579
09/20/2014  03:13:00      -51.373      -56.865      -14.258       40.133       20.422        9.204     1610.620      417.057       84.715        0.409        0.106       76.634       10.652        0.019      342.563       18.061      861.573
09/20/2014  03:14:00       -5.796      -59.630       -1.241       14.400       19.814        8.490      207.367      392.609       72.078        0.213        0.034       59.911       10.830        0.033      342.986       18.780      861.567
09/20/2014  03:15:00        3.680       12.410        8.946       12.993       16.807       10.349      168.820      282.468      107.093        0.040        0.028       12.944        8.519        0.433      342.748       18.376      861.589
09/20/2014  03:16:00       -2.313       55.484       -4.024       19.190       13.980       16.093      368.255      195.430      258.987        0.196        0.041       55.533       11.644        0.044      342.479       17.917      861.611
09/20/2014  03:17:00      -47.237        0.088      -14.528       18.783       36.132       11.343      352.807     1305.540      128.665        0.211        0.089       47.237       14.560        0.095      342.634       18.181      861.626
09/20/2014  03:18:00      -32.464      -27.708       -8.622       22.466       11.023        8.663      504.714      121.514       75.044        0.130        0.035       42.680        4.546        0.011      342.621       18.159      861.623
09/20/2014  03:19:00      -60.817        2.841       -9.425       17.445       20.177        9.215      304.316      407.130       84.921        0.230        0.040       60.884        6.805        0.012      342.441       17.852      861.637
09/20/2014  03:20:00      -59.616       -7.466       -8.355       21.317       19.088        6.495      454.429      364.353       42.180        0.227        0.043       60.081        9.548        0.025      342.431       17.834      861.664
09/20/2014  03:21:00     -109.997      -84.214       -8.878       36.213       39.959       23.212     1311.379     1596.708      538.787        1.136        0.172      138.533       22.620        0.027      342.333       17.670      861.671
09/20/2014  03:22:00      -95.520     -107.051       -8.855       32.340       32.804       23.562     1045.872     1076.115      555.184        1.167        0.134      143.472       21.310        0.022      342.283       17.585      861.662
09/20/2014  03:23:00      -69.968      -88.862       -2.002       45.728       35.377       24.236     2091.022     1251.554      587.381        0.836        0.196      113.102       27.355        0.058      342.264       17.553      861.648
09/20/2014  03:24:00      -60.216      -42.723        1.555       43.350       29.608       20.075     1879.218      876.642      403.003        0.431        0.158       73.832       20.514        0.077      342.281       17.582      861.637
09/20/2014  03:25:00     -123.388      -62.066      -11.920       19.432       18.698       15.962      377.599      349.623      254.775        1.010        0.049      138.119        9.653        0.005      342.314       17.637      861.651
09/20/2014  03:26:00     -130.187      -67.051       -3.207       35.354       23.466       15.716     1249.922      550.658      246.997        1.175        0.102      146.440       13.964        0.009      342.200       17.444      861.666
09/20/2014  03:27:00     -122.966      -70.503       -6.523       35.241       38.211       23.567     1241.904     1460.062      555.394        1.169        0.163      141.744       21.250        0.022      342.156       17.368      861.687
09/20/2014  03:28:00      -68.528      -80.107       -6.841       35.953       36.259       16.249     1292.635     1314.693      264.040        0.702        0.144      105.420       11.683        0.012      342.203       17.449      861.697
09/20/2014  03:29:00      -95.579      -69.083       -9.571       41.296       37.413       26.211     1705.383     1399.703      687.021        0.890        0.190      117.932       28.713        0.059      342.172       17.395      861.694
09/20/2014  03:30:00     -139.706      -93.021       -6.686       45.598       34.939       28.498     2079.168     1220.706      812.156        1.616        0.206      167.841       24.459        0.021      342.122       17.311      861.698
09/20/2014  03:31:00     -143.741      -67.926       -0.576       43.033       38.656       23.292     1851.866     1494.304      542.507        1.458        0.194      158.983       20.589        0.017      342.113       17.295      861.701
09/20/2014  03:32:00      -71.731      -54.288       -0.024       47.264       38.902       22.193     2233.854     1513.338      492.521        0.617        0.212       89.959       18.293        0.041      342.100       17.273      861.718
09/20/2014  03:33:00      -88.368      -88.982       -5.351       21.910       22.569       16.189      480.051      509.378      262.087        0.850        0.063      125.406       11.027        0.008      342.149       17.358      861.732
09/20/2014  03:34:00     -117.739      -64.074      -15.633       20.173       21.967       14.084      406.964      482.533      198.346        0.965        0.054      134.045        8.595        0.004      342.134       17.331      861.745
09/20/2014  03:35:00     -137.524      -40.818      -12.409       19.240       17.288       12.601      370.181      298.889      158.781        1.078        0.041      143.453        9.862        0.005      342.045       17.180      861.750
09/20/2014  03:36:00     -106.083      -68.797       -9.310       19.093       12.587        8.418      364.525      158.424       70.856        0.833        0.030      126.438        5.300        0.002      342.090       17.258      861.735
09/20/2014  03:37:00      -74.433      -68.265       -3.425       27.530       38.221       19.108      757.916     1460.873      365.125        0.640        0.129      100.997       16.692        0.027      342.113       17.295      861.714
09/20/2014  03:38:00     -139.459      -74.514       -7.900       29.950       21.640       21.929      897.014      468.269      480.902        1.345        0.092      158.117       17.758        0.013      342.101       17.274      861.715
09/20/2014  03:39:00      -96.630      -24.017       -9.421       36.668       23.854       19.264     1344.536      569.021      371.090        0.614        0.114       99.570       19.406        0.038      341.888       16.914      861.726
09/20/2014  03:40:00     -109.624      -42.698       -4.347       40.880       24.877       18.871     1671.214      618.877      356.127        0.825        0.132      117.646       21.164        0.032      341.918       16.965      861.736
09/20/2014  03:41:00      -88.241      -43.467       -0.467       29.754       27.773       14.793      885.282      771.347      218.836        0.578        0.094       98.365       12.639        0.017      341.913       16.955      861.741
09/20/2014  03:42:00     -111.782      -21.272      -13.026       18.782       11.779       11.813      352.753      138.738      139.544        0.687        0.032      113.788        8.378        0.005      342.004       17.110      861.751
09/20/2014  03:43:00     -104.340      -31.185       -6.536       28.378       13.986       15.872      805.318      195.617      251.907        0.658        0.063      108.901       17.272        0.025      341.977       17.064      861.768
09/20/2014  03:44:00      -69.859      -20.781        1.267       32.343       17.392       15.435     1046.078      302.465      238.232        0.345        0.079       72.884       16.539        0.051      341.906       16.945      861.778
09/20/2014  03:45:00      -88.415      -45.131       -1.792       20.924       11.187       14.564      437.800      125.140      212.097        0.532        0.039       99.267        9.938        0.010      342.020       17.137      861.776
09/20/2014  03:46:00     -124.648      -51.598       -1.602       15.829       13.522       15.317      250.557      182.852      234.620        0.943        0.033      134.906       10.428        0.006      342.045       17.182      861.769
09/20/2014  03:47:00      -81.165      -48.579       -4.756       32.583       19.473       12.032     1061.681      379.179      144.759        0.528        0.079       94.592        7.889        0.007      342.018       17.133      861.768
09/20/2014  03:48:00      -27.566      -39.494        4.138       25.854       27.519       18.595      668.432      757.274      345.764        0.205        0.089       48.163       11.873        0.061      342.097       17.267      861.768
09/20/2014  03:49:00      -57.844      -67.733       -4.632       50.945       31.532       29.612     2595.427      994.255      876.878        0.621        0.223       89.071       24.529        0.076      342.083       17.245      861.768
09/20/2014  03:50:00      -22.966       -7.099        6.310       31.102       33.154       21.029      967.310     1099.180      442.200        0.156        0.125       24.038       21.098        0.770      342.160       17.374      861.772
09/20/2014  03:51:00      -69.545      -30.231       -8.406       16.124       21.557       11.696      259.994      464.717      136.800        0.334        0.043       75.832        6.199        0.007      342.111       17.295      861.789
09/20/2014  03:52:00      -67.632      -37.911       -5.928       31.308       13.321       13.522      980.166      177.455      182.832        0.369        0.067       77.533       13.115        0.029      342.008       17.117      861.802
09/20/2014  03:53:00      -15.650      -18.285        7.588       30.460       18.426       11.694      927.837      339.516      136.751        0.102        0.070       24.068       12.690        0.278      341.850       16.848      861.816
09/20/2014  03:54:00       -4.013       -4.223        7.355       11.931        9.309       10.802      142.347       86.660      116.676        0.022        0.017        5.825        9.272        2.534      341.809       16.779      861.824
09/20/2014  03:55:00      -11.829      -19.446       -9.474       23.445       20.924       15.156      549.673      437.808      229.690        0.091        0.061       22.761       15.364        0.456      342.063       17.212      861.822
09/20/2014  03:56:00      -47.142        7.854       -9.350       16.968       12.344       11.750      287.920      152.386      138.068        0.147        0.029       47.791        7.256        0.023      342.108       17.288      861.819
09/20/2014  03:57:00      -28.730      -16.665      -12.755       16.120       11.596       14.740      259.853      134.471      217.267        0.094        0.031       33.214       11.484        0.120      342.261       17.547      861.834
09/20/2014  03:58:00      -37.876      -41.062       -9.944       17.032       14.868       11.260      290.084      221.049      126.792        0.193        0.032       55.864       10.298        0.034      342.120       17.308      861.836
09/20/2014  03:59:00      -73.899      -75.069      -12.342       14.052        8.211        7.008      197.465       67.423       49.113        0.578        0.016      105.340        0.939        0.000      342.200       17.443      861.820
09/20/2014  04:00:00     -110.434      -69.332      -11.562       27.560       31.691       18.492      759.568     1004.307      341.947        0.962        0.105      130.394        8.751        0.005      341.909       16.950      861.810
09/20/2014  04:01:00     -124.171      -48.725      -11.944       24.899       28.185       20.586      619.953      794.394      423.800        0.989        0.092      133.389       10.965        0.007      341.889       16.915      861.818
09/20/2014  04:02:00     -113.356      -22.534      -12.165       20.672       26.864       13.433      427.340      721.653      180.456        0.742        0.066      115.574        6.260        0.003      341.665       16.536      861.841
09/20/2014  04:03:00     -110.647       -9.231      -10.456       18.858       17.819       11.701      355.614      317.533      136.919        0.662        0.041      111.031        7.433        0.004      341.658       16.523      861.850
09/20/2014  04:04:00     -100.712      -45.004       -8.428       14.894       22.979       13.575      221.829      528.052      184.287        0.659        0.047      110.310        8.250        0.006      341.703       16.600      861.848
09/20/2014  04:05:00      -79.681      -53.447       -6.508       26.730       17.233       15.194      714.487      296.993      230.867        0.524        0.062       95.946       10.844        0.013      341.642       16.496      861.833
09/20/2014  04:06:00     -101.851      -50.510      -11.282       22.934       13.616       15.235      525.974      185.402      232.119        0.700        0.047      113.688        6.795        0.004      341.620       16.458      861.826
09/20/2014  04:07:00     -118.789      -66.349      -13.205       21.313       16.081       13.889      454.257      258.586      192.895        0.980        0.045      136.063       12.008        0.008      341.633       16.483      861.827
09/20/2014  04:08:00     -106.279      -79.444      -14.398       38.146       26.308       23.649     1455.099      692.114      559.284        1.026        0.135      132.690       16.960        0.016      341.622       16.461      861.813
09/20/2014  04:09:00     -100.738      -52.096        0.595       38.474       38.440       22.264     1480.231     1477.633      495.669        0.816        0.173      113.411       13.924        0.015      341.553       16.343      861.804
09/20/2014  04:10:00      -94.408      -10.832        0.507       38.648       26.981       23.049     1493.672      727.963      531.242        0.589        0.138       95.027       20.506        0.047      341.556       16.350      861.801
09/20/2014  04:11:00     -113.559      -10.135      -10.573       19.995       20.401       13.224      399.785      416.188      174.875        0.705        0.050      114.010       10.058        0.008      341.431       16.138      861.805
09/20/2014  04:12:00      -72.415      -54.506        7.075       56.010       34.028       22.343     3137.103     1157.908      499.201        0.653        0.240       90.636       21.312        0.055      341.428       16.133      861.814
09/20/2014  04:13:00      -22.357      -95.276        3.061       39.178       39.057       26.818     1534.951     1525.446      719.230        0.668        0.189       97.864       23.973        0.060      341.636       16.486      861.806
09/20/2014  04:14:00      -32.075      -73.222        8.483       41.733       57.079       27.731     1741.636     3257.971      769.026        0.611        0.288       79.939       24.870        0.097      341.756       16.689      861.795
09/20/2014  04:15:00       -1.514      -25.636        6.259       33.764       34.883       17.837     1140.039     1216.816      318.143        0.169        0.134       25.680       15.657        0.372      341.701       16.596      861.807
09/20/2014  04:16:00      -66.737      -18.066       -0.092       34.620       28.745       18.673     1198.530      826.264      348.680        0.358        0.119       69.139       19.302        0.078      341.545       16.332      861.843
09/20/2014  04:17:00      -88.041      -10.363       -6.318       21.486       20.638       11.701      461.651      425.944      136.924        0.446        0.051       88.649       11.396        0.017      341.558       16.353      861.846
09/20/2014  04:18:00      -86.860      -12.754      -14.548       34.669       17.826       12.505     1201.926      317.778      156.373        0.480        0.084       87.792       13.469        0.024      341.402       16.089      861.842
09/20/2014  04:19:00       -5.399      -48.960        2.580       10.748       24.666       10.596      115.514      608.417      112.273        0.163        0.042       49.257       11.338        0.053      341.479       16.221      861.828
09/20/2014  04:20:00      -91.624      -26.528       -3.699       45.007       22.237       17.405     2025.589      494.496      302.937        0.597        0.141       95.387       20.988        0.048      341.543       16.328      861.832
09/20/2014  04:21:00     -134.060      -31.143       -9.776       28.075       24.775       17.784      788.187      613.781      316.270        1.038        0.086      137.630       15.612        0.013      341.385       16.060      861.840
09/20/2014  04:22:00     -108.536      -38.416       -2.031       21.479       24.858       14.515      461.333      617.904      210.685        0.727        0.064      115.134       12.997        0.013      341.388       16.065      861.852
09/20/2014  04:23:00      -66.972      -51.260        1.053       34.101       25.941       28.826     1162.890      672.933      830.930        0.489        0.133       84.338       25.007        0.088      341.403       16.092      861.854
09/20/2014  04:24:00      -80.574      -12.810       -0.699       45.948       23.322       16.729     2111.183      543.931      279.857        0.480        0.147       81.586       21.738        0.071      341.383       16.057      861.873
09/20/2014  04:25:00     -106.686      -25.251       -3.266       35.511       26.058       17.824     1261.066      679.026      317.683        0.714        0.113      109.633       10.126        0.009      341.425       16.127      861.888
09/20/2014  04:26:00      -60.374      -31.180        7.082       41.499       21.740       17.533     1722.203      472.617      307.409        0.358        0.125       67.950       11.138        0.027      341.321       15.952      861.886
09/20/2014  04:27:00      -16.284      -41.467      -10.432       17.238       23.901        8.072      297.165      571.269       65.156        0.151        0.047       44.550        4.813        0.012      341.449       16.168      861.886
09/20/2014  04:28:00      -53.431      -77.561      -17.759       21.186       17.543       13.631      448.841      307.766      185.794        0.506        0.047       94.184       10.097        0.011      341.624       16.466      861.894
09/20/2014  04:29:00      -61.792      -44.253       -3.367       27.988       14.688       14.124      783.335      215.744      199.495        0.349        0.060       76.003       11.589        0.023      341.606       16.437      861.893
09/20/2014  04:30:00      -87.707      -10.642       -9.334       17.004       16.063       13.113      289.124      258.005      171.953        0.431        0.036       88.350        8.040        0.008      341.542       16.325      861.910
09/20/2014  04:31:00      -74.135      -19.134       -5.112       15.335       17.848       11.391      235.156      318.568      129.764        0.329        0.034       76.565        7.532        0.010      341.369       16.034      861.918
09/20/2014  04:32:00      -28.932      -29.580        1.421       25.521       10.686        8.517      651.342      114.189       72.531        0.128        0.042       41.377        8.152        0.039      341.394       16.075      861.939
09/20/2014  04:33:00      -54.239      -31.207       -2.617       10.123       10.857        4.136      102.467      117.867       17.104        0.208        0.012       62.576        4.320        0.005      341.499       16.255      861.942
09/20/2014  04:34:00      -55.770      -35.767       -8.565       36.200       17.742       10.331     1310.464      314.765      106.728        0.310        0.087       66.254       12.304        0.034      341.618       16.455      861.949
09/20/2014  04:35:00      -12.218      -11.055        5.817       24.241       12.377       10.457      587.642      153.201      109.351        0.058        0.043       16.477        9.492        0.332      341.501       16.258      861.965
09/20/2014  04:36:00     -130.767      -49.568       -8.387       23.896       20.015       11.576      571.015      400.580      134.015        1.037        0.055      139.847       13.664        0.010      341.320       15.950      861.978
09/20/2014  04:37:00     -133.431      -48.685       -9.676       19.296       17.611       11.341      372.321      310.136      128.627        1.054        0.041      142.035        6.355        0.002      341.271       15.868      861.977
09/20/2014  04:38:00      -96.668      -54.214       -1.448       31.155       25.108       16.462      970.622      630.407      271.008        0.708        0.094      110.832        8.571        0.006      341.248       15.828      861.980
09/20/2014  04:39:00      -70.682      -68.197       -5.382       30.954       26.499       20.181      958.130      702.210      407.276        0.587        0.103       98.218       16.028        0.027      341.386       16.063      861.983
09/20/2014  04:40:00      -61.939      -57.834        1.911       45.094       37.208       19.893     2033.474     1384.469      395.712        0.550        0.191       84.742       20.937        0.061      341.314       15.940      861.988
09/20/2014  04:41:00      -27.958      -19.509        6.757       26.132       17.934       17.476      682.903      321.634      305.419        0.126        0.065       34.092       13.337        0.153      341.295       15.909      862.015
09/20/2014  04:42:00      -56.310       -5.386       -9.763       12.675       12.632        9.304      160.648      159.574       86.557        0.185        0.020       56.567        6.986        0.015      341.340       15.983      862.031
09/20/2014  04:43:00      -41.015      -23.727        6.768       31.740       18.878       18.086     1007.419      356.382      327.100        0.199        0.085       47.383       16.538        0.122      341.348       15.998      862.024
09/20/2014  04:44:00      -12.976      -21.370        6.011       28.440       23.736       18.691      808.822      563.404      349.372        0.119        0.086       25.001       16.213        0.421      341.334       15.975      862.017
09/20/2014  04:45:00      -40.176      -25.383        6.945       36.069       23.658       18.815     1300.947      559.706      354.012        0.226        0.111       47.523       17.623        0.138      341.318       15.947      862.023
09/20/2014  04:46:00      -80.704      -43.348        1.062       34.896       20.700       16.373     1217.743      428.503      268.084        0.515        0.096       91.609       18.319        0.040      341.269       15.864      862.032
09/20/2014  04:47:00      -18.161      -11.945       15.702       39.502       20.666       18.505     1560.409      427.095      342.422        0.152        0.116       21.737       23.024        1.122      341.188       15.729      862.041
09/20/2014  04:48:00       -9.760      -11.015       -2.145       18.415       17.320       17.460      339.109      299.998      304.838        0.058        0.047       14.717        9.267        0.396      341.170       15.697      862.052
09/20/2014  04:49:00        6.313       -4.219       -3.724       11.593        8.228        8.279      134.386       67.706       68.547        0.017        0.014        7.593        5.369        0.500      341.184       15.722      862.072
09/20/2014  04:50:00      -22.428      -35.608       -2.812       12.210       26.197       10.716      149.089      686.293      114.827        0.136        0.048       42.082       10.712        0.065      341.282       15.886      862.079
09/20/2014  04:51:00      -42.445      -60.562       -2.373       30.383       33.423       17.211      923.112     1117.115      296.230        0.391        0.117       73.955       11.870        0.026      341.321       15.954      862.072
09/20/2014  04:52:00      -59.992      -40.289        8.979       47.144       28.347       21.212     2222.512      803.559      449.961        0.439        0.174       72.265       21.447        0.088      341.221       15.784      862.055
09/20/2014  04:53:00      -86.107      -39.370       -4.104       32.426       28.386       19.612     1051.414      805.751      384.622        0.561        0.112       94.680       17.973        0.036      341.248       15.829      862.058
09/20/2014  04:54:00      -73.022      -34.453        2.826       30.613       16.463       16.528      937.181      271.046      273.170        0.400        0.074       80.742       17.948        0.049      341.186       15.725      862.063
09/20/2014  04:55:00      -66.042      -43.114       -4.672       31.338       21.610       14.084      982.093      467.002      198.363        0.394        0.082       78.869       14.000        0.032      341.182       15.717      862.053
09/20/2014  04:56:00      -99.796      -57.133       -7.816       15.982       18.836       10.075      255.415      354.788      101.508        0.700        0.036      114.993        8.855        0.006      341.241       15.817      862.048
09/20/2014  04:57:00     -113.905      -48.784      -11.836       18.350       20.725       15.619      336.716      429.512      243.956        0.825        0.051      123.912        7.045        0.003      341.323       15.956      862.054
09/20/2014  04:58:00     -117.856      -44.528       -7.716       16.867       15.220       10.643      284.486      231.650      113.278        0.828        0.031      125.987        9.170        0.005      341.220       15.782      862.062
09/20/2014  04:59:00      -98.252      -26.819       -8.220       11.147       13.683       10.466      124.250      187.229      109.531        0.543        0.021      101.846        3.199        0.001      341.163       15.687      862.058
09/20/2014  05:00:00      -73.212      -16.469      -15.204       16.249       14.964        8.850      264.036      223.933       78.324        0.321        0.028       75.042        4.776        0.004      341.102       15.583      862.069
09/20/2014  05:01:00      -60.541      -25.123       -4.077       12.118       14.021       12.096      146.856      196.597      146.309        0.240        0.024       65.547        5.985        0.008      341.157       15.675      862.086
09/20/2014  05:02:00      -51.062      -29.888       -4.011       15.793       14.363        9.265      249.422      206.301       85.834        0.203        0.027       59.166        8.444        0.020      341.218       15.777      862.098
09/20/2014  05:03:00      -46.320        8.081       -1.825       14.553       12.705        8.332      211.793      161.428       69.429        0.133        0.022       47.020        4.981        0.011      341.126       15.625      862.111
09/20/2014  05:04:00      -23.823       22.349       -5.449        9.108        7.170        5.941       82.948       51.406       35.301        0.063        0.008       32.665        3.107        0.009      341.090       15.561      862.123
09/20/2014  05:05:00      -13.189      -11.838        2.427       18.634       17.751       12.612      347.226      315.108      159.051        0.057        0.041       17.723       12.702        0.514      341.090       15.561      862.120
09/20/2014  05:06:00      -52.702      -58.096        6.142       51.619       46.345       26.168     2664.549     2147.889      684.784        0.584        0.275       78.439       30.014        0.146      341.168       15.693      862.126
09/20/2014  05:07:00      -60.159      -32.804       -0.983       30.408       20.395       15.888      924.656      415.965      252.424        0.314        0.080       68.521        6.898        0.010      341.102       15.582      862.146
09/20/2014  05:08:00      -49.180      -39.558        3.096       28.024       28.910       21.727      785.317      835.785      472.045        0.304        0.105       63.115       14.041        0.049      341.038       15.472      862.157
09/20/2014  05:09:00      -39.836      -23.701        8.626       38.878       20.879       14.470     1511.498      435.935      209.382        0.219        0.108       46.353       14.417        0.097      340.997       15.405      862.159
09/20/2014  05:10:00      -40.692      -23.146        5.996       35.101       17.281       12.298     1232.071      298.632      151.229        0.195        0.084       46.814        9.803        0.044      341.010       15.424      862.164
09/20/2014  05:11:00      -49.877      -11.707        0.482       24.942       13.360       10.136      622.094      178.487      102.747        0.176        0.045       51.232        8.329        0.026      341.066       15.521      862.171
09/20/2014  05:12:00      -61.690       19.386       -1.099       20.475       12.260       10.109      419.222      150.318      102.184        0.243        0.034       64.664       10.577        0.027      340.981       15.379      862.181
09/20/2014  05:13:00      -87.568       10.780      -10.658       10.895       17.086        8.577      118.703      291.915       73.567        0.419        0.024       88.229        6.626        0.006      341.051       15.496      862.180
09/20/2014  05:14:00      -88.963      -10.505      -12.834       10.451       18.302       10.585      109.232      334.963      112.044        0.437        0.028       89.581        4.530        0.003      340.801       15.073      862.178
09/20/2014  05:15:00      -88.198      -40.010       -2.115       20.108       29.289       16.717      404.316      857.831      279.456        0.546        0.077       96.849       10.544        0.012      340.860       15.172      862.180
09/20/2014  05:16:00      -59.470      -30.260        1.886       28.303       16.797       11.465      801.079      282.149      131.457        0.284        0.061       66.726        6.357        0.009      340.845       15.145      862.186
09/20/2014  05:17:00      -68.577      -15.719       -4.463       20.687       23.089       11.208      427.957      533.079      125.617        0.303        0.054       70.356        7.250        0.011      340.857       15.167      862.211
09/20/2014  05:18:00     -103.984      -17.279       -8.516       30.500       17.928       10.897      930.241      321.401      118.737        0.628        0.069      105.410       11.255        0.011      340.913       15.262      862.214
09/20/2014  05:19:00     -128.543      -40.174       -9.159       18.276       16.724       11.219      334.007      279.686      125.861        0.948        0.037      134.675        7.404        0.003      340.785       15.046      862.217
09/20/2014  05:20:00     -124.228      -48.724       -9.168       25.932       22.195       15.562      672.452      492.633      242.174        0.965        0.070      133.441       14.114        0.011      340.710       14.917      862.219
09/20/2014  05:21:00     -118.006      -36.039       -6.601       18.272       32.954       17.958      333.863     1085.957      322.483        0.850        0.087      123.387        6.302        0.003      340.585       14.707      862.228
09/20/2014  05:22:00     -118.723      -37.665       -8.589       20.916       19.417       10.279      437.459      377.004      105.651        0.825        0.046      124.555       11.459        0.008      340.674       14.860      862.233
09/20/2014  05:23:00      -73.221      -51.947       -1.040       31.774       18.763       14.284     1009.604      352.049      204.038        0.481        0.078       89.777       12.546        0.020      340.787       15.048      862.224
09/20/2014  05:24:00      -28.236      -32.591        4.317       24.772       28.403       17.873      613.630      806.722      319.428        0.181        0.087       43.121       13.669        0.100      340.844       15.145      862.229
09/20/2014  05:25:00      -74.235      -44.913        1.823       36.306       22.574       16.035     1318.144      509.601      257.109        0.481        0.104       86.764       16.632        0.037      340.862       15.174      862.235
09/20/2014  05:26:00     -110.671      -59.987       -5.485       22.456       19.194       14.892      504.281      368.394      221.768        0.849        0.055      125.883       10.824        0.007      340.860       15.173      862.250
09/20/2014  05:27:00      -94.572      -38.481       -4.815       16.848       17.417       13.068      283.868      303.360      170.765        0.560        0.038      102.101        7.709        0.006      340.824       15.110      862.255
09/20/2014  05:28:00      -97.223      -31.158       -4.455       10.782       15.884        9.776      116.258      252.297       95.576        0.545        0.023      102.094        6.392        0.004      340.857       15.167      862.249
09/20/2014  05:29:00      -56.391      -24.884        2.759       30.131       19.198       11.818      907.892      368.546      139.675        0.261        0.071       61.637       13.256        0.046      340.853       15.160      862.248
09/20/2014  05:30:00      -55.330      -22.811        0.204       29.300       14.691       12.043      858.499      215.818      145.038        0.240        0.061       59.848       15.500        0.067      340.834       15.128      862.262
09/20/2014  05:31:00      -68.990      -18.697       -3.686       22.640       18.064       10.204      512.550      326.317      104.132        0.303        0.047       71.479        9.473        0.018      340.799       15.070      862.270
09/20/2014  05:32:00      -80.306      -14.124       -2.349       28.895       16.664       15.081      834.913      277.680      227.428        0.400        0.067       81.539       15.627        0.037      340.609       14.751      862.279
09/20/2014  05:33:00      -67.214      -33.174        6.035       37.517       22.134       15.367     1407.529      489.920      236.154        0.389        0.107       74.955       18.953        0.064      340.620       14.768      862.279
09/20/2014  05:34:00        1.772       -7.945       16.789       18.923       14.390       17.616      358.072      207.063      310.306        0.061        0.044        8.140       14.715        3.268      340.637       14.795      862.294
09/20/2014  05:35:00       -8.975      -27.668       -1.951       10.943       10.538        9.811      119.758      111.052       96.250        0.059        0.016       29.087        4.140        0.020      340.722       14.939      862.292
09/20/2014  05:36:00      -63.799      -41.787      -12.019       20.324       11.853       10.074      413.051      140.482      101.484        0.331        0.033       76.266        7.778        0.010      340.816       15.097      862.285
09/20/2014  05:37:00      -80.615      -50.897       -0.043       32.393       20.468       16.490     1049.291      418.956      271.910        0.541        0.087       95.338       19.136        0.040      340.699       14.899      862.274
09/20/2014  05:38:00      -57.122      -44.766        3.492       36.765       29.191       20.040     1351.671      852.130      401.598        0.394        0.130       72.574       18.868        0.068      340.678       14.863      862.277
09/20/2014  05:39:00      -38.787      -49.141        8.245       33.373       31.716       17.195     1113.733     1005.892      295.672        0.320        0.121       62.604       17.950        0.082      340.593       14.720      862.271
09/20/2014  05:40:00      -84.723      -50.247        1.084       46.493       31.397       22.666     2161.554      985.802      513.758        0.668        0.183       98.503       21.081        0.046      340.640       14.802      862.261
09/20/2014  05:41:00     -132.134      -72.298       -3.298       33.150       28.285       19.818     1098.949      800.013      392.747        1.249        0.115      150.620       14.220        0.009      340.628       14.780      862.274
09/20/2014  05:42:00     -104.892      -47.657       -2.653       27.979       27.502       16.480      782.851      756.336      271.585        0.755        0.091      115.210       14.758        0.016      340.524       14.604      862.283
09/20/2014  05:43:00     -102.315      -55.855       -1.188       24.819       24.006       15.679      615.961      576.297      245.829        0.751        0.072      116.568       14.087        0.015      340.550       14.648      862.279
09/20/2014  05:44:00      -99.526      -48.022       -9.594       32.379       23.475       15.532     1048.413      551.068      241.246        0.707        0.092      110.506       14.748        0.018      340.610       14.749      862.286
09/20/2014  05:45:00     -112.448      -59.302       -8.058       14.278       20.616       13.695      203.859      425.014      187.559        0.852        0.041      127.127        6.557        0.003      340.651       14.819      862.291
09/20/2014  05:46:00     -114.161      -58.077      -11.256       15.559       13.736       11.326      242.078      188.686      128.282        0.855        0.028      128.085        7.477        0.003      340.589       14.714      862.302
09/20/2014  05:47:00     -103.369      -68.488       -8.922       16.342       15.290       11.277      267.074      233.796      127.179        0.804        0.031      123.999        5.693        0.002      340.577       14.694      862.304
09/20/2014  05:48:00     -112.570      -71.396       -5.829       17.632       18.263       13.702      310.903      333.536      187.755        0.932        0.042      133.303        7.923        0.004      340.630       14.783      862.302
09/20/2014  05:49:00     -114.278      -70.709       -7.642       34.598       24.877       23.104     1197.015      618.876      533.773        1.023        0.117      134.385       18.789        0.020      340.669       14.850      862.300
09/20/2014  05:50:00     -143.651      -72.485       -6.762       29.199       19.737       14.049      852.570      389.543      197.369        1.369        0.072      160.903       13.620        0.007      340.594       14.722      862.302
09/20/2014  05:51:00     -138.574      -50.156       -9.516       22.600       19.777       12.300      510.775      391.132      151.300        1.143        0.053      147.372        6.930        0.002      340.568       14.678      862.298
09/20/2014  05:52:00     -111.742      -36.845       -8.019       19.941       16.548       13.102      397.652      273.837      171.652        0.738        0.042      117.660        9.320        0.006      340.518       14.592      862.298
09/20/2014  05:53:00      -93.570      -42.157       -6.636       16.996       14.437       10.126      288.868      208.413      102.540        0.559        0.030      102.629        5.223        0.003      340.540       14.631      862.299
09/20/2014  05:54:00      -86.658      -32.145       -3.953       20.692       15.872       11.933      428.169      251.930      142.392        0.469        0.041       92.428       10.702        0.013      340.566       14.675      862.296
09/20/2014  05:55:00      -84.445      -28.814       -5.875       28.257       26.251       15.280      798.484      689.103      233.474        0.486        0.086       89.226       13.529        0.023      340.542       14.633      862.303
09/20/2014  05:56:00     -109.315      -32.059      -10.882       16.051       15.967       18.467      257.631      254.961      341.021        0.697        0.043      113.919       10.250        0.008      340.560       14.664      862.308
09/20/2014  05:57:00     -118.218      -41.360       -8.436       16.041       14.748       12.828      257.314      217.489      164.568        0.820        0.032      125.245        9.387        0.006      340.567       14.679      862.305
09/20/2014  05:58:00     -127.343      -45.860       -8.514       24.522       16.920       14.026      601.324      286.301      196.724        0.974        0.054      135.349       15.144        0.013      340.511       14.580      862.297
09/20/2014  05:59:00     -108.280      -62.060      -10.175       32.656       18.522       16.001     1066.414      343.046      256.018        0.867        0.083      124.803       12.063        0.009      340.490       14.547      862.292
09/20/2014  06:00:00     -108.057      -65.494       -3.733       23.371       19.490       13.367      546.191      379.861      178.664        0.854        0.055      126.356       11.917        0.009      340.536       14.623      862.281
09/20/2014  06:01:00      -94.691      -47.513       -1.714       22.581       25.048       13.908      509.883      627.388      193.446        0.628        0.067      105.943       13.781        0.017      340.587       14.712      862.280
09/20/2014  06:02:00      -99.570      -35.730       -5.183       22.234       23.926       13.689      494.368      572.432      187.400        0.624        0.063      105.786       12.933        0.015      340.608       14.746      862.279
09/20/2014  06:03:00     -108.286      -38.573       -2.098       27.947       20.148       16.778      781.056      405.959      281.502        0.734        0.073      114.950       13.944        0.015      340.601       14.736      862.275
09/20/2014  06:04:00     -108.242      -27.036       -7.894       25.482       23.522       18.155      649.311      553.284      329.595        0.702        0.077      111.567       13.259        0.014      340.591       14.717      862.269
09/20/2014  06:05:00     -130.222      -10.583      -11.398       27.860       27.769       18.816      776.187      771.103      354.027        0.955        0.095      130.651       13.448        0.011      340.829       15.119      862.271
09/20/2014  06:06:00     -102.878      -14.691       -3.575       41.157       29.713       21.474     1693.938      882.841      461.130        0.692        0.152      103.922       20.232        0.038      340.803       15.075      862.287
09/20/2014  06:07:00      -67.404      -12.001        1.799       35.760       32.027       24.309     1278.813     1025.699      590.903        0.379        0.145       68.464       23.543        0.118      340.940       15.306      862.302
09/20/2014  06:08:00     -128.883      -28.555      -13.367       33.460       24.932       20.640     1119.591      621.588      425.998        0.989        0.108      132.008       14.520        0.012      341.005       15.418      862.301
09/20/2014  06:09:00     -117.369      -36.203       -6.829       35.179       24.938       20.489     1237.536      621.916      419.794        0.871        0.114      122.826       19.138        0.024      340.871       15.191      862.299
09/20/2014  06:10:00     -107.182      -32.286       -5.334       35.893       22.531       20.800     1288.316      507.643      432.624        0.739        0.111      111.939       15.135        0.018      340.818       15.100      862.306
09/20/2014  06:11:00      -91.950      -53.145      -11.352       20.550       17.607       11.527      422.323      309.998      132.872        0.614        0.043      106.204        9.870        0.009      340.665       14.841      862.314
09/20/2014  06:12:00     -101.465      -61.650       -3.530       36.738       19.259       15.507     1349.713      370.921      240.470        0.803        0.098      118.726       15.723        0.018      340.650       14.818      862.332
09/20/2014  06:13:00      -94.956      -44.858       -2.198       36.371       20.993       14.250     1322.835      440.690      203.055        0.650        0.098      105.019        8.687        0.007      340.565       14.673      862.339
09/20/2014  06:14:00      -54.828      -51.817       -2.588       23.968       27.843       14.864      574.442      775.206      220.940        0.363        0.079       75.439        8.945        0.014      340.575       14.691      862.344
09/20/2014  06:15:00      -21.712      -21.496       13.922       30.743       23.604       17.183      945.157      557.146      295.271        0.146        0.090       30.553       10.393        0.116      340.493       14.551      862.350
09/20/2014  06:16:00      -34.954      -36.767        5.738       32.774       31.612       24.119     1074.143      999.346      581.720        0.263        0.133       50.730       22.176        0.191      340.479       14.527      862.351
09/20/2014  06:17:00      -44.309      -42.933        1.373       43.064       24.552       22.273     1854.475      602.803      496.072        0.338        0.148       61.697       17.870        0.084      340.491       14.547      862.356
09/20/2014  06:18:00      -45.477      -58.489        0.200       37.360       38.426       23.993     1395.759     1476.561      575.647        0.447        0.172       74.088       19.899        0.072      340.442       14.464      862.365
09/20/2014  06:19:00      -96.698      -63.124       -4.483       25.310       28.486       18.199      640.605      811.462      331.197        0.757        0.089      115.478       15.698        0.018      340.479       14.528      862.364
09/20/2014  06:20:00      -84.374      -64.349        1.980       41.920       27.550       19.893     1757.283      759.020      395.747        0.709        0.146      106.112       18.958        0.032      340.481       14.530      862.372
09/20/2014  06:21:00      -89.066      -74.462        0.773       44.442       34.275       21.845     1975.111     1174.808      477.185        0.855        0.181      116.092       17.271        0.022      340.430       14.444      862.382
09/20/2014  06:22:00      -66.907      -67.053        8.053       46.829       36.926       24.135     2192.976     1363.509      582.476        0.659        0.207       94.724       24.120        0.065      340.394       14.384      862.392
09/20/2014  06:23:00      -56.837      -56.458       -0.865       43.088       24.483       17.471     1856.556      599.405      305.246        0.459        0.138       80.112       12.099        0.023      340.445       14.470      862.405
09/20/2014  06:24:00      -77.920      -71.849       -0.315       35.624       26.609       23.358     1269.098      708.023      545.595        0.688        0.126      105.990       20.579        0.038      340.440       14.461      862.416
09/20/2014  06:25:00      -91.579      -75.709       -3.361       33.421       24.996       20.145     1116.980      624.806      405.806        0.814        0.107      118.822       16.165        0.019      340.477       14.525      862.422
09/20/2014  06:26:00     -107.809      -77.609       -1.492       47.365       29.895       26.251     2243.485      893.690      689.104        1.074        0.191      132.838       25.756        0.038      340.415       14.419      862.432
09/20/2014  06:27:00     -107.320      -67.726       -2.612       56.306       33.744       27.507     3170.396     1138.691      756.611        1.059        0.253      126.903       18.671        0.022      340.389       14.376      862.452
09/20/2014  06:28:00     -115.528      -81.899      -11.789       34.671       29.447       19.980     1202.073      867.110      399.198        1.133        0.123      141.613       10.872        0.006      340.395       14.385      862.463
09/20/2014  06:29:00     -114.813      -57.616       -9.820       56.492       27.647       19.936     3191.396      764.376      397.434        1.047        0.218      128.459       16.872        0.017      340.373       14.348      862.473
09/20/2014  06:30:00     -137.098      -66.897       -8.931       28.837       23.590       20.092      831.545      556.506      403.689        1.257        0.090      152.548       14.596        0.009      340.396       14.387      862.480
09/20/2014  06:31:00     -134.264      -65.760       -7.732       31.240       21.413       15.322      975.911      458.514      234.761        1.204        0.083      149.503       16.180        0.012      340.392       14.380      862.482
09/20/2014  06:32:00     -115.294      -68.162      -13.618       24.370       18.273       14.907      593.897      333.919      222.224        0.964        0.058      133.936        4.807        0.001      340.382       14.365      862.486
09/20/2014  06:33:00     -115.896      -80.607      -10.684       25.901       25.075       14.644      670.885      628.739      214.438        1.078        0.076      141.172       14.417        0.010      340.384       14.367      862.485
09/20/2014  06:34:00      -95.848      -81.296       -8.104       35.549       31.470       19.123     1263.766      990.335      365.700        0.924        0.131      125.682       14.737        0.014      340.408       14.408      862.487
09/20/2014  06:35:00      -99.170      -78.665        4.814       46.582       30.958       24.829     2169.868      958.393      616.458        0.989        0.187      126.581       20.623        0.027      340.350       14.310      862.495
09/20/2014  06:36:00     -100.080      -96.140       -5.161       49.088       37.816       26.857     2409.621     1430.021      721.311        1.192        0.228      138.776       28.583        0.042      340.342       14.297      862.511
09/20/2014  06:37:00     -102.533      -85.327       -1.745       61.092       37.271       25.285     3732.181     1389.112      639.326        1.178        0.288      133.393       28.162        0.045      340.414       14.417      862.525
09/20/2014  06:38:00     -104.763      -70.846       -1.951       52.450       37.258       22.884     2751.014     1388.171      523.658        1.033        0.233      126.469       25.712        0.041      340.434       14.452      862.535
09/20/2014  06:39:00      -89.123      -68.159        4.260       41.781       31.906       22.256     1745.614     1017.980      495.339        0.793        0.163      112.199       22.890        0.042      340.416       14.422      862.536
09/20/2014  06:40:00     -115.431      -79.913       -4.736       25.858       37.188       19.961      668.622     1382.911      398.445        1.109        0.122      140.394       13.873        0.010      340.433       14.450      862.542
09/20/2014  06:41:00      -61.980      -51.249        8.662       45.250       37.196       19.919     2047.556     1383.508      396.776        0.518        0.191       80.424       17.995        0.050      340.407       14.406      862.546
09/20/2014  06:42:00      -82.394      -70.417        0.458       31.211       23.450       17.619      974.144      549.911      310.445        0.679        0.092      108.385       11.624        0.012      340.453       14.484      862.546
09/20/2014  06:43:00     -104.775      -62.895       -3.715       30.283       17.493       14.761      917.065      306.009      217.875        0.819        0.072      122.203        5.842        0.002      340.475       14.521      862.536
09/20/2014  06:44:00     -110.041      -61.681       -2.013       21.755       19.295       19.427      473.267      372.303      377.425        0.857        0.061      126.149       14.776        0.014      340.439       14.460      862.525
09/20/2014  06:45:00      -91.640      -50.459      -11.528       17.669       12.329        8.251      312.201      152.000       68.083        0.580        0.027      104.613        2.819        0.001      340.450       14.479      862.513
09/20/2014  06:46:00     -102.445      -49.274      -12.386       11.954       13.868        9.217      142.892      192.331       84.951        0.675        0.021      113.679        5.182        0.002      340.438       14.458      862.516
09/20/2014  06:47:00     -124.617      -50.688      -17.892       15.952       10.597       12.443      254.470      112.295      154.823        0.947        0.026      134.532        5.355        0.002      340.422       14.432      862.522
09/20/2014  06:48:00     -130.483      -58.448      -15.199       11.981       12.369        9.919      143.535      152.989       98.386        1.053        0.020      142.975        5.840        0.002      340.403       14.398      862.535
09/20/2014  06:49:00      -98.263      -58.217       -5.126       21.948       16.731       15.816      481.723      279.918      250.148        0.704        0.051      114.214       15.295        0.018      340.382       14.363      862.552
09/20/2014  06:50:00      -79.771      -59.473       -3.765       26.497       14.328       11.938      702.092      205.300      142.512        0.548        0.052       99.501       12.589        0.016      340.450       14.478      862.568
09/20/2014  06:51:00      -73.441      -47.460       -2.597       34.926       22.693       14.213     1219.819      514.983      202.015        0.479        0.097       87.442       15.607        0.032      340.490       14.546      862.577
09/20/2014  06:52:00      -40.728      -44.107        3.952       37.213       21.419       21.166     1384.822      458.756      448.015        0.296        0.115       60.035       19.600        0.107      340.361       14.328      862.589
09/20/2014  06:53:00      -76.974      -69.510       -5.961       43.522       48.261       22.213     1894.190     2329.091      493.432        0.775        0.236      103.714       22.711        0.048      340.361       14.328      862.606
09/20/2014  06:54:00     -108.036      -76.327       -5.109       37.101       32.493       21.477     1376.487     1055.805      461.279        1.021        0.145      132.279       15.752        0.014      340.391       14.379      862.616
09/20/2014  06:55:00     -104.531      -57.899       -3.450       39.274       30.885       23.183     1542.432      953.913      537.443        0.866        0.152      119.495       18.353        0.024      340.372       14.347      862.623
09/20/2014  06:56:00      -67.689      -52.278        2.487       32.542       27.132       22.188     1058.961      736.143      492.325        0.480        0.114       85.526       18.232        0.045      340.263       14.161      862.638
09/20/2014  06:57:00      -88.936      -69.805       -1.733       61.289       24.455       20.790     3756.381      598.060      432.218        0.878        0.239      113.059       25.980        0.053      340.384       14.366      862.648
09/20/2014  06:58:00      -69.270      -50.322        3.682       46.983       26.469       27.371     2207.361      700.613      749.172        0.550        0.183       85.619       30.740        0.129      340.362       14.331      862.666
09/20/2014  06:59:00      -74.668      -70.377        4.688       34.740       31.712       18.532     1206.854     1005.649      343.448        0.655        0.128      102.608       17.394        0.029      340.321       14.261      862.691
09/20/2014  07:00:00      -52.825      -52.373        9.635       42.027       34.180       20.977     1766.256     1168.245      440.014        0.450        0.169       74.387       23.406        0.099      340.325       14.269      862.712
09/20/2014  07:01:00      -74.076      -66.955       -3.624       26.207       33.825       17.023      686.816     1144.130      289.785        0.605        0.106       99.851       10.418        0.011      340.368       14.343      862.734
09/20/2014  07:02:00      -53.093      -67.113       -4.984       26.887       34.466       17.177      722.924     1187.922      295.039        0.478        0.110       85.575       19.370        0.051      340.328       14.274      862.746
09/20/2014  07:03:00      -19.816      -61.953        1.881       30.951       26.593       23.731      957.959      707.186      563.161        0.323        0.111       65.045       15.767        0.059      340.371       14.345      862.756
09/20/2014  07:04:00      -23.070      -57.366       -2.131       28.678       34.598       23.744      822.422     1197.029      563.761        0.320        0.129       61.831       19.972        0.104      340.339       14.291      862.772
09/20/2014  07:05:00      -97.717     -101.512      -12.738       57.012       42.083       30.235     3250.344     1770.981      914.155        1.297        0.297      140.902       27.491        0.038      340.207       14.067      862.773
09/20/2014  07:06:00     -121.205     -112.811      -11.991       42.131       49.119       21.463     1775.060     2412.677      460.661        1.610        0.232      165.580       20.277        0.015      340.133       13.943      862.773
09/20/2014  07:07:00     -122.833      -82.612       -7.120       29.835       54.416       21.742      890.118     2961.133      472.717        1.314        0.216      148.029       11.274        0.006      340.149       13.970      862.781
09/20/2014  07:08:00     -137.075      -62.607       -7.325       28.583       23.937       19.198      816.985      572.975      368.559        1.226        0.088      150.696       13.480        0.008      340.197       14.051      862.783
09/20/2014  07:09:00     -128.320      -55.551       -7.122       19.549       20.488       15.434      382.182      419.740      238.221        1.032        0.052      139.828        8.042        0.003      340.229       14.105      862.781
09/20/2014  07:10:00     -118.385      -43.369       -5.293       38.571       28.845       18.552     1487.744      832.012      344.166        0.929        0.133      126.079       20.447        0.026      340.216       14.083      862.786
09/20/2014  07:11:00     -113.672      -53.464       -2.875       30.474       21.760       17.758      928.647      473.508      315.353        0.875        0.086      125.617       11.500        0.008      340.243       14.127      862.791
09/20/2014  07:12:00      -98.057      -40.690        0.864       35.377       34.376       19.980     1251.551     1181.683      399.189        0.705        0.142      106.164       18.295        0.030      340.298       14.222      862.784
09/20/2014  07:13:00     -117.457      -47.808       -4.993       44.132       24.220       17.303     1947.596      586.622      299.406        0.947        0.142      126.814       18.365        0.021      340.296       14.217      862.796
09/20/2014  07:14:00     -120.454      -33.256        0.591       27.363       28.187       17.586      748.744      794.528      309.254        0.873        0.093      124.960       15.176        0.015      340.284       14.198      862.793
09/20/2014  07:15:00      -85.953      -46.881        3.116       31.026       21.239       14.375      962.587      451.076      206.635        0.561        0.081       97.906       14.277        0.021      340.285       14.199      862.800
09/20/2014  07:16:00      -69.929      -43.229       -2.334       36.768       29.077       20.887     1351.858      845.456      436.275        0.470        0.132       82.212       17.196        0.044      340.370       14.343      862.797
09/20/2014  07:17:00      -92.460      -50.912       -6.414       15.200       22.543       11.861      231.053      508.202      140.689        0.603        0.044      105.550        7.485        0.005      340.409       14.409      862.805
09/20/2014  07:18:00     -100.842      -43.095       -8.430       23.551       23.684       13.323      554.665      560.944      177.495        0.669        0.065      109.664       11.356        0.011      340.449       14.476      862.812
09/20/2014  07:19:00     -110.510      -38.171      -12.304       13.979       20.687       13.000      195.410      427.962      169.002        0.731        0.040      116.916        8.250        0.005      340.551       14.651      862.807
09/20/2014  07:20:00      -93.882      -46.626       -3.567       24.499       24.409       13.638      600.180      595.782      186.001        0.619        0.069      104.823       12.570        0.014      340.486       14.540      862.806
09/20/2014  07:21:00      -98.514      -50.320       -3.284       22.709       15.258       16.207      515.714      232.794      262.656        0.663        0.051      110.621       13.921        0.016      340.516       14.591      862.817
09/20/2014  07:22:00      -85.017      -37.195        2.089       28.292       24.095       17.415      800.456      580.583      303.296        0.515        0.084       92.798       19.241        0.043      340.562       14.668      862.826
09/20/2014  07:23:00      -60.843      -37.266        2.126       32.482       23.809       13.229     1055.056      566.874      175.017        0.345        0.090       71.348        9.495        0.018      340.620       14.766      862.831
09/20/2014  07:24:00      -65.777      -34.940       -2.610       17.236       12.757        9.267      297.073      162.739       85.868        0.305        0.027       74.481        8.881        0.014      340.659       14.833      862.848
09/20/2014  07:25:00      -69.037      -33.915        1.131       24.310       17.445       11.990      590.981      304.327      143.764        0.348        0.052       76.917        8.612        0.013      340.663       14.840      862.871
09/20/2014  07:26:00      -57.994      -22.100        1.737       19.919       12.920        9.359      396.765      166.923       87.593        0.225        0.033       62.062        9.930        0.026      340.660       14.831      862.887
09/20/2014  07:27:00      -59.070      -38.926       -3.363       36.264       14.742       16.093     1315.060      217.333      258.991        0.340        0.090       70.742       18.828        0.071      340.727       14.948      862.902
09/20/2014  07:28:00      -56.317      -48.718       -5.295       36.891       21.601       16.722     1360.923      466.593      279.615        0.384        0.105       74.465       14.089        0.036      340.740       14.968      862.908
09/20/2014  07:29:00      -72.242      -63.660       -2.085       26.067       28.957       15.755      679.470      838.512      248.227        0.552        0.088       96.288        9.901        0.011      340.690       14.884      862.918
09/20/2014  07:30:00      -93.059      -65.118      -10.067       19.768       27.786       15.606      390.774      772.058      243.556        0.720        0.070      113.580       11.636        0.010      340.727       14.947      862.924
09/20/2014  07:31:00      -72.844      -54.899       -0.960       27.067       35.489       15.471      732.599     1259.434      239.367        0.528        0.112       91.215       17.266        0.036      340.704       14.908      862.936
09/20/2014  07:32:00      -67.560      -62.204       -3.937       37.358       25.583       18.786     1395.591      654.486      352.932        0.543        0.120       91.835       14.133        0.024      340.651       14.820      862.935
09/20/2014  07:33:00      -57.823      -46.113        1.783       28.502       23.957       13.148      812.365      573.915      172.879        0.352        0.078       73.959        8.172        0.012      340.658       14.831      862.925
09/20/2014  07:34:00      -45.315      -37.941       -2.834       27.057       20.861       14.884      732.078      435.179      221.544        0.244        0.069       59.101       11.962        0.041      340.633       14.788      862.933
09/20/2014  07:35:00      -83.355      -46.614       -0.270       21.578       20.286       14.454      465.601      411.537      208.910        0.510        0.054       95.504       10.789        0.013      340.619       14.764      862.936
09/20/2014  07:36:00      -57.673      -48.176        0.979       29.739       22.783       19.235      884.407      519.062      369.990        0.371        0.089       75.148       15.305        0.041      340.609       14.748      862.943
09/20/2014  07:37:00      -66.931      -70.025       -1.501       27.079       18.730       16.677      733.261      350.813      278.124        0.537        0.068       96.867       13.239        0.019      340.651       14.820      862.954
09/20/2014  07:38:00      -33.586      -37.403        9.089       34.759       27.176       22.704     1208.221      738.545      515.455        0.254        0.123       50.270       19.991        0.158      340.709       14.916      862.960
09/20/2014  07:39:00      -75.449      -52.291        0.901       40.087       22.471       17.967     1606.958      504.931      322.827        0.543        0.122       91.799       12.090        0.017      340.641       14.803      862.979
09/20/2014  07:40:00      -59.637      -54.504        1.845       37.396       23.855       19.749     1398.465      569.043      390.024        0.444        0.118       80.791       12.780        0.025      340.659       14.833      863.003
09/20/2014  07:41:00      -77.539      -63.574        1.082       43.706       34.141       21.294     1910.203     1165.577      453.417        0.679        0.176      100.270       24.849        0.061      340.570       14.683      863.014
09/20/2014  07:42:00      -86.833      -61.628       -4.276       61.855       33.663       27.193     3826.031     1133.198      739.476        0.853        0.285      106.480       36.204        0.116      340.607       14.745      863.016
09/20/2014  07:43:00      -91.546      -62.498        4.977       54.727       35.266       28.214     2995.028     1243.688      796.041        0.867        0.252      110.846       32.840        0.088      340.584       14.705      863.028
09/20/2014  07:44:00     -117.102      -59.414       -1.883       43.355       30.936       26.518     1879.662      957.012      703.187        1.039        0.177      131.313       27.740        0.045      340.604       14.740      863.029
09/20/2014  07:45:00     -115.643      -50.411      -16.353       21.739       19.686       13.711      472.566      387.557      187.987        0.861        0.052      126.153        3.925        0.001      340.610       14.749      863.020
09/20/2014  07:46:00      -95.309      -52.115       -8.698       22.454       27.242       14.292      504.170      742.144      204.269        0.666        0.073      108.627       11.173        0.011      340.704       14.909      863.022
09/20/2014  07:47:00      -97.765      -52.389       -9.219       25.648       23.629       16.266      657.798      558.326      264.591        0.693        0.074      110.917       11.536        0.011      340.835       15.129      863.021
09/20/2014  07:48:00      -99.998      -55.089       -7.056       27.652       19.356       16.229      764.637      374.642      263.379        0.724        0.070      114.168       17.040        0.022      340.742       14.973      863.023
09/20/2014  07:49:00      -69.275      -32.417        6.093       22.019       30.495       16.132      484.845      929.931      260.226        0.378        0.084       76.485       14.213        0.035      340.761       15.005      863.031
09/20/2014  07:50:00      -32.626      -36.987        7.924       48.856       25.815       18.680     2386.908      666.415      348.933        0.295        0.170       49.320       22.406        0.206      340.887       15.218      863.056
09/20/2014  07:51:00      -35.148      -39.172        4.234       30.817       26.242       21.173      949.662      688.652      448.283        0.244        0.104       52.629       15.687        0.089      340.858       15.169      863.070
09/20/2014  07:52:00      -20.114      -40.816       17.164       38.329       37.884       20.253     1469.146     1435.180      410.189        0.284        0.166       45.503       22.948        0.254      340.861       15.173      863.076
09/20/2014  07:53:00      -64.017     -104.256       -6.141       34.395       35.589       23.174     1183.038     1266.587      537.057        0.900        0.149      122.341       15.362        0.016      340.720       14.935      863.078
09/20/2014  07:54:00      -69.586      -94.193       -2.035       43.571       49.529       22.624     1898.433     2453.137      511.853        0.929        0.243      117.109       26.632        0.052      340.684       14.875      863.085
09/20/2014  07:55:00      -36.806      -54.980        2.985       31.072       44.148       22.647      965.475     1949.085      512.883        0.391        0.171       66.163       10.869        0.027      340.759       15.002      863.086
09/20/2014  07:56:00      -70.306      -71.484       -4.777       40.802       41.646       27.261     1664.813     1734.370      743.175        0.711        0.207      100.264       29.423        0.086      340.790       15.055      863.072
09/20/2014  07:57:00      -58.673      -76.384        2.822       32.386       22.962       21.416     1048.882      527.258      458.640        0.566        0.102       96.317       19.732        0.042      340.882       15.209      863.073
09/20/2014  07:58:00      -55.665      -57.164        1.014       20.497       18.850       18.347      420.124      355.308      336.598        0.374        0.056       79.789       13.685        0.029      340.914       15.262      863.068
09/20/2014  07:59:00      -39.661      -35.911       -2.850       18.048       14.279       13.095      325.734      203.889      171.469        0.179        0.035       53.503        8.960        0.028      341.005       15.417      863.072
09/20/2014  08:00:00      -63.428      -40.624       -4.383       12.853       13.851        7.043      165.187      191.845       49.605        0.305        0.020       75.322        5.829        0.006      341.035       15.468      863.072
09/20/2014  08:01:00      -50.311      -31.403       -0.718       26.819       14.082       10.410      719.268      198.297      108.360        0.227        0.051       59.307       11.926        0.040      341.134       15.636      863.062
09/20/2014  08:02:00      -35.751      -11.720       -3.004       15.514        8.428        8.116      240.679       71.025       65.862        0.090        0.019       37.623        8.174        0.047      341.227       15.796      863.064
09/20/2014  08:03:00      -42.718      -25.288       -4.131       17.093       14.534        7.673      292.159      211.245       58.874        0.152        0.028       49.642        8.691        0.031      341.258       15.846      863.068
09/20/2014  08:04:00      -58.114      -23.477       -5.927        5.250        3.981        4.494       27.565       15.850       20.199        0.201        0.003       62.677        2.047        0.001      341.306       15.925      863.077
09/20/2014  08:05:00      -47.253      -15.239       -7.936        8.239        7.220        6.135       67.883       52.134       37.643        0.134        0.008       49.650        3.519        0.005      341.329       15.963      863.078
09/20/2014  08:06:00      -17.144       -6.990       -1.282       10.945        9.639        6.462      119.802       92.906       41.761        0.030        0.013       18.515        3.126        0.029      341.433       16.142      863.085
09/20/2014  08:07:00      -14.660        4.488        2.098        8.030        7.539        9.431       64.476       56.837       88.946        0.022        0.011       15.332        5.271        0.118      341.481       16.224      863.098
09/20/2014  08:08:00      -24.957      -19.450       -5.505       21.610       13.762       10.166      466.984      189.395      103.344        0.090        0.038       31.641       11.957        0.143      341.514       16.280      863.117
09/20/2014  08:09:00      -14.384       -4.658        1.815       17.463       16.029       12.201      304.963      256.930      148.875        0.047        0.036       15.119       10.634        0.495      341.632       16.479      863.125
09/20/2014  08:10:00      -20.088      -18.135        7.268       16.046       19.945       11.752      257.464      397.821      138.109        0.079        0.040       27.063       10.603        0.153      341.582       16.394      863.130
09/20/2014  08:11:00      -26.696      -19.084        7.384       14.361       18.059        8.604      206.252      326.115       74.032        0.087        0.030       32.816        7.322        0.050      341.577       16.387      863.138
09/20/2014  08:12:00      -37.138       -6.309       -1.881       10.520        8.945        6.077      110.673       80.016       36.932        0.083        0.011       37.670        3.824        0.010      341.529       16.303      863.144
09/20/2014  08:13:00      -26.437       -9.565       -0.319       13.415       17.717        7.747      179.957      313.887       60.018        0.067        0.028       28.114        4.502        0.026      341.561       16.360      863.158
09/20/2014  08:14:00      -24.912       -5.387       -3.720       12.664        9.748        7.529      160.380       95.028       56.680        0.049        0.016       25.488        6.604        0.067      341.618       16.454      863.178
09/20/2014  08:15:00      -22.254      -41.403        1.443       14.326       18.261       12.351      205.235      333.461      152.551        0.145        0.035       47.005        5.929        0.016      341.645       16.502      863.176
09/20/2014  08:16:00      -28.212      -29.276        4.358       13.564       25.568       17.271      183.979      653.746      298.277        0.140        0.057       40.657       18.090        0.198      341.704       16.602      863.194
09/20/2014  08:17:00      -19.231      -42.804       -3.777       22.599       20.516       16.354      510.731      420.925      267.460        0.171        0.060       46.925       15.193        0.105      341.730       16.646      863.199
09/20/2014  08:18:00      -33.921      -25.214        0.411       14.659       13.207        8.981      214.892      174.437       80.652        0.113        0.023       42.265        4.875        0.013      341.633       16.483      863.198
09/20/2014  08:19:00      -28.711      -11.446       -3.218       21.344       14.156       11.657      455.587      200.406      135.881        0.088        0.040       30.908        8.699        0.079      341.650       16.509      863.203
09/20/2014  08:20:00      -27.703      -14.865       -2.199       15.811       19.006        8.618      250.002      361.211       74.274        0.084        0.034       31.439        6.352        0.041      341.669       16.544      863.201
09/20/2014  08:21:00      -26.350      -19.798        4.223       16.045       10.678       10.190      257.430      114.019      103.846        0.079        0.024       32.959        6.314        0.037      341.752       16.684      863.196
09/20/2014  08:22:00      -10.574        2.035        2.091       10.758       14.453       12.243      115.742      208.886      149.900        0.030        0.024       10.768        7.018        0.425      341.899       16.931      863.188
09/20/2014  08:23:00      -13.518        3.102        0.814       12.869       13.532       12.886      165.601      183.110      166.051        0.035        0.026       13.870        7.855        0.321      341.923       16.974      863.187
09/20/2014  08:24:00      -29.513       -8.755       -4.035        9.479       10.111        8.482       89.856      102.241       71.950        0.061        0.013       30.784        5.932        0.037      341.766       16.707      863.174
09/20/2014  08:25:00      -19.473      -32.658       -4.572        9.904       14.232        9.424       98.088      202.563       88.814        0.093        0.019       38.023        4.008        0.011      341.841       16.834      863.169
09/20/2014  08:26:00       -6.987      -31.933        1.183       14.346       17.633       15.767      205.819      310.923      248.597        0.092        0.038       32.688        9.419        0.083      342.018       17.133      863.173
09/20/2014  08:27:00      -10.762      -14.674        4.050       11.404       13.095       11.399      130.042      171.477      129.935        0.039        0.022       18.198        8.399        0.213      342.054       17.195      863.164
09/20/2014  08:28:00      -21.726      -15.660        1.288       16.833       14.587       11.673      283.355      212.781      136.252        0.068        0.032       26.782       10.382        0.150      341.906       16.944      863.166
09/20/2014  08:29:00        9.012      -27.812        0.020       14.821       16.357       10.730      219.671      267.564      115.142        0.073        0.030       29.236        5.133        0.031      342.025       17.147      863.163
09/20/2014  08:30:00      -21.261      -14.714        1.004       11.961       10.700       11.075      143.060      114.488      122.659        0.052        0.019       25.856        7.836        0.092      342.025       17.147      863.165
09/20/2014  08:31:00      -17.123       -0.914        9.990       10.599       13.684       16.890      112.335      187.263      285.273        0.049        0.029       17.148       14.558        0.721      342.099       17.272      863.172
09/20/2014  08:32:00       -5.100       14.468       32.088       11.970       19.897       11.977      143.282      395.894      143.459        0.097        0.034       15.341       10.670        0.484      342.552       18.042      863.181
09/20/2014  08:33:00      -10.375        0.304       20.768        7.456       11.403        7.943       55.591      130.022       63.090        0.039        0.012       10.379        6.774        0.426      342.574       18.080      863.186
09/20/2014  08:34:00       -5.083       -9.743       15.038        9.376       12.342        6.429       87.911      152.322       41.327        0.031        0.014       10.989        5.277        0.231      342.564       18.063      863.183
09/20/2014  08:35:00      -18.255       -4.363        7.791       11.299        9.053        7.182      127.675       81.957       51.588        0.034        0.013       18.769        4.513        0.058      342.256       17.538      863.183
09/20/2014  08:36:00        6.096       23.341       21.499       21.708       21.601       16.066      471.252      466.622      258.104        0.112        0.060       24.124       12.118        0.252      342.448       17.865      863.189
09/20/2014  08:37:00       16.644       43.332       -6.403       15.056       24.108       17.705      226.693      581.201      313.478        0.166        0.056       46.419       14.172        0.093      342.210       17.461      863.186
09/20/2014  08:38:00       45.658       43.960       41.000       19.091       21.594       25.219      364.449      466.287      636.016        0.358        0.073       63.381        9.145        0.021      342.348       17.695      863.178
09/20/2014  08:39:00       49.443       48.329       20.630       16.942       16.234       20.218      287.036      263.554      408.764        0.308        0.048       69.140        7.700        0.012      342.304       17.619      863.176
09/20/2014  08:40:00       36.493       30.031       15.698       28.114       19.924       17.419      790.382      396.974      303.437        0.199        0.075       47.261        9.040        0.037      342.361       17.716      863.182
09/20/2014  08:41:00       10.291       29.953        4.012       17.908       19.588       13.278      320.687      383.689      176.302        0.095        0.044       31.672        4.311        0.019      342.543       18.026      863.187
09/20/2014  08:42:00        5.326       19.921       -0.341       13.377       20.768       13.884      178.934      431.302      192.776        0.061        0.040       20.620        7.316        0.126      342.494       17.942      863.207
09/20/2014  08:43:00       -9.017       12.455       33.837        9.119       18.241       21.807       83.152      332.741      475.559        0.114        0.045       15.376       16.783        1.191      342.940       18.701      863.226
09/20/2014  08:44:00        1.380       -3.688       36.316       14.438       19.996       12.810      208.470      399.842      164.105        0.105        0.039        3.937        8.969        5.189      342.930       18.685      863.241
09/20/2014  08:45:00        7.395       -1.890       29.585       21.816       33.948       26.627      475.949     1152.490      709.018        0.164        0.117        7.632       19.288        6.387      342.801       18.465      863.249
09/20/2014  08:46:00       20.935       10.957       38.420       22.704       34.043       22.961      515.467     1158.937      527.217        0.212        0.110       23.629       18.746        0.629      342.702       18.297      863.268
09/20/2014  08:47:00       16.616      -62.834       20.147       26.453       33.881       27.876      699.737     1147.896      777.097        0.363        0.131       64.994       20.789        0.102      342.612       18.142      863.279
09/20/2014  08:48:00       -7.905      -23.076       32.847       24.248       41.018       28.065      587.981     1682.471      787.647        0.237        0.153       24.393       25.943        1.131      342.677       18.253      863.270
09/20/2014  08:49:00       32.943      -43.841        3.715       32.859       42.539       25.298     1079.717     1809.535      639.978        0.327        0.176       54.839       27.479        0.251      342.677       18.253      863.274
09/20/2014  08:50:00       15.038       18.713       42.780       28.748       25.752       20.122      826.468      663.170      404.889        0.215        0.095       24.007       14.428        0.361      342.792       18.450      863.277
09/20/2014  08:51:00        1.922      -20.849       12.105       18.414       35.899       23.861      339.062     1288.759      569.362        0.139        0.110       20.938       19.838        0.898      342.909       18.648      863.273
09/20/2014  08:52:00       -5.665      -33.875       21.544       23.863       25.819       19.959      569.463      666.609      398.346        0.164        0.082       34.346       12.058        0.123      342.851       18.549      863.284
09/20/2014  08:53:00       21.157      -17.059       24.594       21.338       30.669       21.473      455.305      940.594      461.072        0.160        0.093       27.178       11.985        0.194      342.900       18.632      863.285
09/20/2014  08:54:00       -1.802       15.295       51.586       18.877       24.241       13.521      356.342      587.642      182.826        0.201        0.056       15.401       12.692        0.679      343.217       19.174      863.282
09/20/2014  08:55:00       24.860      -41.945       23.160       24.911       36.618       26.719      620.578     1340.869      713.899        0.279        0.134       48.758       25.553        0.275      343.023       18.843      863.284
09/20/2014  08:56:00       19.682      -10.563       35.591       25.552       28.308       21.330      652.902      801.363      454.967        0.184        0.095       22.337       19.010        0.724      343.097       18.969      863.287
09/20/2014  08:57:00       17.021       28.411       41.057       26.161       28.852       25.185      684.392      832.460      634.270        0.247        0.108       33.119       25.247        0.581      342.976       18.763      863.298
09/20/2014  08:58:00       -4.783       24.273       48.174       17.730       32.046       15.223      314.367     1026.935      231.733        0.225        0.079       24.739       14.945        0.365      343.260       19.247      863.308
09/20/2014  08:59:00       40.954       21.480       30.668       45.465       31.099       27.733     2067.025      967.151      769.100        0.344        0.190       46.246       25.896        0.314      342.895       18.625      863.310
09/20/2014  09:00:00        6.190        5.984       20.151       27.028       30.429       21.219      730.518      925.920      450.231        0.129        0.105        8.609        9.807        1.298      343.046       18.881      863.314
09/20/2014  09:01:00       70.206       34.249        7.766       29.164       21.603       25.844      850.546      466.697      667.889        0.407        0.099       78.115       23.384        0.090      342.812       18.484      863.312
09/20/2014  09:02:00       58.974       23.151        5.265       44.569       18.042       20.788     1986.404      325.520      432.161        0.339        0.137       63.356       20.521        0.105      342.916       18.660      863.313
09/20/2014  09:03:00       37.314       32.009       19.788       33.840       35.328       28.109     1145.115     1248.047      790.097        0.300        0.159       49.162       19.246        0.153      343.013       18.825      863.321
09/20/2014  09:04:00       53.076       49.876       27.501       42.093       32.799       33.948     1771.787     1075.799     1152.496        0.503        0.200       72.833       25.304        0.121      342.949       18.716      863.329
09/20/2014  09:05:00       91.379       64.754       13.508       32.894       30.412       30.575     1082.047      924.864      934.812        0.783        0.147      111.996       25.446        0.052      342.711       18.312      863.335
09/20/2014  09:06:00       55.251       41.061        3.562       34.212       32.753       26.422     1170.441     1072.759      698.097        0.385        0.147       68.838       16.394        0.057      342.964       18.742      863.340
09/20/2014  09:07:00       60.132       33.748       14.884       42.604       33.820       24.669     1815.068     1143.764      608.537        0.427        0.178       68.955       23.520        0.116      342.995       18.795      863.342
09/20/2014  09:08:00       -4.015        3.690       40.910       14.853       22.843       15.904      220.618      521.782      252.931        0.135        0.050        5.453        2.576        0.223      343.468       19.601      863.341
09/20/2014  09:09:00        3.179       34.205       55.781       26.417       24.056       16.192      697.882      578.685      262.168        0.291        0.077       34.352       15.693        0.209      343.406       19.495      863.341
09/20/2014  09:10:00       64.578       54.304       40.293       18.563       13.651       14.286      344.601      186.350      204.085        0.474        0.037       84.375        9.773        0.013      342.767       18.407      863.352
09/20/2014  09:11:00       64.398       46.576       33.469       25.236       22.632       36.596      636.840      512.189     1339.256        0.496        0.124       79.476       16.992        0.046      342.879       18.599      863.358
09/20/2014  09:12:00       76.785       35.952       14.016       32.488       21.030       23.622     1055.466      442.260      558.008        0.472        0.103       84.785       16.162        0.036      342.827       18.509      863.375
09/20/2014  09:13:00       46.106       33.612        6.050       26.126       23.104       16.828      682.566      533.790      283.167        0.240        0.075       57.057        8.995        0.025      342.960       18.734      863.377
09/20/2014  09:14:00       54.710       35.450       10.458       38.570       19.916       19.746     1487.656      396.648      389.895        0.332        0.114       65.191       16.999        0.068      343.185       19.119      863.372
09/20/2014  09:15:00       35.215       18.125        0.642       31.673       27.883       16.444     1003.164      777.467      270.407        0.181        0.103       39.606       14.170        0.128      343.233       19.200      863.363
09/20/2014  09:16:00        6.358       -3.680       18.736       37.419       33.291       29.205     1400.212     1108.320      852.945        0.188        0.168        7.346       22.323        9.234      343.434       19.543      863.353
09/20/2014  09:17:00      -17.451       10.751       40.956       17.801       24.028       15.813      316.881      577.357      250.054        0.162        0.057       20.497       14.633        0.510      343.539       19.722      863.352
09/20/2014  09:18:00       19.834       32.354       31.311       29.047       15.585       19.060      843.752      242.907      363.275        0.193        0.072       37.949       19.012        0.251      343.262       19.251      863.359
09/20/2014  09:19:00       42.595       43.263       40.629       21.262       18.320       19.638      452.072      335.616      385.670        0.325        0.059       60.713        7.447        0.015      343.155       19.067      863.375
09/20/2014  09:20:00       32.249       38.644       45.119       21.037       20.567       14.027      442.542      423.011      196.765        0.282        0.053       50.332        9.515        0.036      343.263       19.253      863.398
09/20/2014  09:21:00       18.270       -8.253       33.825       40.221       47.837       35.987     1617.704     2288.366     1295.034        0.337        0.260       20.048       35.655        3.163      343.365       19.426      863.406
09/20/2014  09:22:00        6.667      -24.696       17.039       27.196       22.999       17.584      739.641      528.941      309.181        0.126        0.079       25.580        8.132        0.101      343.477       19.616      863.401
09/20/2014  09:23:00       -3.758       15.583       20.753       20.702       20.880       19.380      428.552      435.954      375.585        0.096        0.062       16.029       10.268        0.410      343.680       19.962      863.394
09/20/2014  09:24:00       17.878        3.938        7.955       27.982       26.365       22.238      782.990      695.132      494.523        0.119        0.099       18.306       15.098        0.680      343.473       19.609      863.373
09/20/2014  09:25:00       18.720      -56.799       -1.949       25.954       28.469       24.224      673.623      810.459      586.788        0.283        0.104       59.804       23.591        0.156      343.548       19.737      863.377
09/20/2014  09:26:00       24.173        3.015       18.780       24.660       34.724       23.882      608.109     1205.758      570.369        0.166        0.119       24.361       25.680        1.111      343.609       19.841      863.371
09/20/2014  09:27:00        3.203        3.491       29.697       18.109       40.629       17.691      327.928     1650.707      312.964        0.160        0.115        4.738       23.406       24.408      343.698       19.992      863.370
09/20/2014  09:28:00       23.501      -33.569       12.133       27.604       30.440       25.125      761.964      926.587      631.287        0.207        0.116       40.978       21.438        0.274      343.731       20.050      863.375
09/20/2014  09:29:00       -0.321       24.857       50.080       19.061       27.147       17.782      363.310      736.945      316.202        0.227        0.071       24.859       19.314        0.604      344.011       20.527      863.363
09/20/2014  09:30:00        8.673       47.127       54.116       22.501       19.800       16.100      506.277      392.058      259.207        0.319        0.058       47.919       14.118        0.087      343.697       19.992      863.370
09/20/2014  09:31:00       23.838       24.580       23.429       21.875       14.782       24.262      478.526      218.504      588.651        0.150        0.064       34.241        4.384        0.016      343.535       19.716      863.369
09/20/2014  09:32:00       28.577       38.959       11.070       12.412       15.578       16.353      154.056      242.674      267.427        0.156        0.033       48.316       10.341        0.046      343.335       19.375      863.372
09/20/2014  09:33:00       41.811       35.189       28.742       13.961       14.638       10.384      194.896      214.283      107.829        0.216        0.026       54.648        5.210        0.009      343.476       19.614      863.374
09/20/2014  09:34:00       16.034       31.611       27.962       20.441       17.983       13.390      417.817      323.379      179.294        0.148        0.046       35.445        6.199        0.031      343.898       20.333      863.369
09/20/2014  09:35:00       -9.590       43.934        3.270       20.162       24.132       17.166      406.507      582.347      294.657        0.166        0.064       44.968       11.066        0.061      343.811       20.186      863.372
09/20/2014  09:36:00        5.038       10.589       17.214       19.008       13.607       12.739      361.309      185.139      162.289        0.057        0.035       11.726        9.470        0.652      344.026       20.554      863.371
09/20/2014  09:37:00      -15.382        8.433        2.072       22.576       20.854       16.623      509.692      434.877      276.325        0.077        0.061       17.542       12.578        0.514      343.944       20.412      863.383
09/20/2014  09:38:00      -17.965       -3.675        6.052       24.837       16.629       14.653      616.880      276.519      214.706        0.074        0.055       18.337        9.745        0.282      343.966       20.449      863.379
09/20/2014  09:39:00        6.819      -17.373       14.015       13.891       13.680       11.660      192.952      187.134      135.958        0.053        0.026       18.663        9.015        0.233      344.017       20.539      863.388
09/20/2014  09:40:00      -23.703      -36.060        3.539       24.382       25.129       15.699      594.466      631.489      246.463        0.167        0.074       43.152       19.040        0.195      343.856       20.264      863.386
09/20/2014  09:41:00      -33.266      -37.323        3.255       23.938       21.630       17.988      573.018      467.871      323.580        0.194        0.068       49.996       19.498        0.152      343.791       20.152      863.393
09/20/2014  09:42:00      -23.209      -30.814        5.136       22.558       20.017       16.034      508.862      400.676      257.098        0.134        0.058       38.577       15.350        0.158      343.938       20.402      863.402
09/20/2014  09:43:00      -32.131      -20.604       -2.881       14.675        9.302       11.848      215.364       86.523      140.381        0.095        0.022       38.170        3.475        0.008      343.687       19.974      863.397
09/20/2014  09:44:00      -49.417      -36.004       -1.253       28.207       24.377       14.490      795.636      594.228      209.948        0.267        0.080       61.142       13.377        0.048      343.750       20.083      863.404
09/20/2014  09:45:00      -32.658      -24.186        0.064       25.033       31.933       20.750      626.646     1019.746      430.569        0.186        0.104       40.638       18.726        0.212      343.887       20.316      863.401
09/20/2014  09:46:00       -5.310        7.358       25.925       24.853       20.824       15.918      617.652      433.655      253.395        0.103        0.065        9.074       16.710        3.391      344.411       21.210      863.401
09/20/2014  09:47:00      -29.450       -9.954        9.933       25.727       19.121       21.500      661.876      365.606      462.262        0.128        0.074       31.086       20.518        0.436      344.134       20.738      863.400
09/20/2014  09:48:00      -45.541      -38.790       -3.110       33.613       23.414       16.377     1129.813      548.194      268.222        0.277        0.097       59.822       19.497        0.106      343.957       20.435      863.402
09/20/2014  09:49:00       -4.143       -7.197       10.758       19.929       13.364       19.637      397.174      178.602      385.613        0.057        0.048        8.304       13.479        2.635      344.451       21.279      863.411
09/20/2014  09:50:00      -30.869      -27.213        0.127       24.321       19.507       17.591      591.504      380.510      309.426        0.149        0.064       41.152       14.542        0.125      343.992       20.494      863.418
09/20/2014  09:51:00      -11.578        3.174       14.919       24.549       24.584       21.695      602.640      604.385      470.682        0.102        0.084       12.005       18.642        2.411      344.367       21.135      863.423
09/20/2014  09:52:00      -37.129        6.476       10.725       25.931       28.568       23.852      672.428      816.114      568.936        0.180        0.103       37.689       16.127        0.183      344.296       21.014      863.427
09/20/2014  09:53:00      -13.615      -39.788        8.319       30.815       34.846       25.489      949.578     1214.220      649.676        0.233        0.141       42.053       12.739        0.092      344.367       21.136      863.423
09/20/2014  09:54:00      -27.556      -11.374        7.450       22.997       13.631       12.686      528.850      185.798      160.946        0.091        0.044       29.811        7.596        0.065      344.233       20.906      863.424
09/20/2014  09:55:00       -7.696        3.768       18.732       11.760       21.367       21.448      138.309      456.566      460.002        0.074        0.053        8.569       14.946        3.043      345.028       22.267      863.423
09/20/2014  09:56:00      -43.416        4.028       -3.458       18.299       11.949       13.974      334.838      142.771      195.270        0.129        0.034       43.603       10.597        0.059      344.162       20.785      863.423
09/20/2014  09:57:00      -36.318      -25.933       -3.376       17.345       21.579       12.213      300.844      465.643      149.151        0.146        0.046       44.626        8.820        0.039      344.206       20.862      863.430
09/20/2014  09:58:00      -29.385      -20.737        5.986       20.886       22.427       20.303      436.233      502.961      412.195        0.134        0.068       35.965       10.294        0.082      344.495       21.354      863.425
09/20/2014  09:59:00      -12.032        7.817       25.054       27.095       21.013       28.843      734.149      441.567      831.890        0.142        0.100       14.348       23.878        2.770      345.095       22.384      863.426
09/20/2014  10:00:00        5.102       10.309       33.413       16.999       16.566        9.740      288.974      274.440       94.871        0.095        0.033       11.502        7.445        0.419      345.231       22.613      863.425
09/20/2014  10:01:00        2.932        4.975       47.905       17.697       25.728       21.155      313.198      661.939      447.545        0.188        0.071        5.775       17.603        9.291      345.494       23.066      863.420
09/20/2014  10:02:00      -15.230       10.849       42.673       26.203       31.022       29.631      686.621      962.337      877.973        0.235        0.126       18.700       27.167        2.111      344.967       22.162      863.412
09/20/2014  10:03:00       -7.410       26.059       50.506       13.701       17.698       11.498      187.726      313.203      132.213        0.196        0.032       27.092        7.998        0.087      345.304       22.739      863.393
09/20/2014  10:04:00      -33.791       12.842        8.328       27.760       24.808       21.686      770.595      615.417      470.300        0.162        0.093       36.149       17.065        0.223      344.786       21.852      863.370
09/20/2014  10:05:00      -31.506      -11.457        0.109       22.537       22.092       19.767      507.937      488.036      390.732        0.126        0.069       33.525       15.054        0.202      344.923       22.086      863.350
09/20/2014  10:06:00        6.916      -18.955       12.661       25.298       19.602       16.567      639.993      384.230      274.478        0.093        0.065       20.177       14.570        0.521      345.118       22.420      863.340
09/20/2014  10:07:00       -7.965      -34.912        3.525       23.461       22.050       17.975      550.416      486.185      323.104        0.133        0.068       35.809       14.885        0.173      344.794       21.865      863.342
09/20/2014  10:08:00      -55.388      -44.943       -6.632       21.934       29.407       14.865      481.080      864.769      220.969        0.335        0.078       71.328        6.589        0.009      344.413       21.215      863.339
09/20/2014  10:09:00      -36.113      -28.705        8.797       16.163       21.107       16.858      261.247      445.508      284.198        0.160        0.050       46.132        9.809        0.045      344.651       21.620      863.345
09/20/2014  10:10:00      -87.144       -6.384       -5.499       34.687       18.564       16.177     1203.210      344.607      261.682        0.474        0.090       87.377       20.503        0.055      344.528       21.412      863.331
09/20/2014  10:11:00      -92.727       -6.988      -14.586       23.406       15.445       11.909      547.851      238.550      141.815        0.489        0.046       92.990       10.653        0.013      344.490       21.342      863.322
09/20/2014  10:12:00      -93.981       -2.623      -14.491       17.214       14.642       11.352      296.312      214.393      128.872        0.484        0.032       94.018        5.450        0.003      344.465       21.302      863.301
09/20/2014  10:13:00      -27.490        9.222      -14.864       15.085       17.939       12.344      227.557      321.815      152.375        0.088        0.035       28.996        7.308        0.064      344.770       21.826      863.276
09/20/2014  10:14:00        8.770       11.018        8.751       15.657       18.251       20.361      245.133      333.117      414.574        0.063        0.050       14.083       11.921        0.717      345.232       22.616      863.256
09/20/2014  10:15:00       13.176       65.522        8.411       16.683       28.050       16.586      278.328      786.827      275.104        0.294        0.067       66.834       11.957        0.032      345.138       22.455      863.243
09/20/2014  10:16:00      -37.016       -5.531       -2.171       28.007       21.934       20.997      784.372      481.109      440.889        0.156        0.085       37.427       14.687        0.154      345.073       22.344      863.238
09/20/2014  10:17:00      -45.542       -4.609      -11.716       21.400       15.429        9.068      457.956      238.044       82.222        0.151        0.039       45.775        7.417        0.026      344.782       21.845      863.232
09/20/2014  10:18:00       36.178       17.257      -10.888       22.586       30.734       12.806      510.109      944.564      163.983        0.167        0.081       40.083       11.600        0.084      344.850       21.961      863.227
09/20/2014  10:19:00       45.259       26.434       -7.900       19.633       27.270       22.051      385.451      743.630      486.227        0.221        0.081       52.413       12.337        0.055      344.861       21.981      863.231
09/20/2014  10:20:00       38.759       16.377      -12.553       14.803       17.004       17.511      219.123      289.153      306.639        0.137        0.041       42.077        8.823        0.044      344.916       22.074      863.236
09/20/2014  10:21:00       27.917       76.315        7.148       29.317       24.163       23.620      859.500      583.844      557.898        0.433        0.100       81.261       12.980        0.026      345.333       22.790      863.251
09/20/2014  10:22:00        9.071       51.163       64.887       31.119       55.125       26.277      968.381     3038.786      690.465        0.580        0.235       51.961       14.809        0.081      345.827       23.636      863.276
09/20/2014  10:23:00      -26.642      -13.209       20.745       31.636       23.291       19.143     1000.807      542.493      366.442        0.161        0.095       29.737       16.872        0.322      345.622       23.283      863.284
09/20/2014  10:24:00      -11.090       -7.362       22.395       19.864       14.410       19.214      394.578      207.638      369.163        0.082        0.049       13.311       13.305        0.999      345.906       23.772      863.281
09/20/2014  10:25:00       15.825      -41.154       29.444       27.540       40.084       25.639      758.449     1606.751      657.338        0.292        0.151       44.092       14.172        0.103      345.691       23.402      863.269
09/20/2014  10:26:00       41.197       37.390       37.574       35.776       24.818       31.579     1279.949      615.917      997.255        0.370        0.145       55.634       12.623        0.051      345.580       23.214      863.252
09/20/2014  10:27:00       54.551       51.431       12.136       20.695       16.608       17.575      428.282      275.828      308.889        0.339        0.051       74.973       10.718        0.020      345.178       22.523      863.247
09/20/2014  10:28:00       81.630       67.853       11.119       31.856       31.735       29.604     1014.817     1007.137      876.384        0.714        0.145      106.148        9.597        0.008      345.464       23.014      863.246
09/20/2014  10:29:00       93.962       73.149        6.040       29.976       20.610       30.815      898.576      424.752      949.546        0.824        0.114      119.078       13.754        0.013      345.471       23.026      863.250
09/20/2014  10:30:00       81.045       73.388       -6.045       20.871       19.127       20.672      435.611      365.855      427.349        0.661        0.061      109.335       13.481        0.015      345.193       22.549      863.252
09/20/2014  10:31:00       25.276       11.496        6.271       40.782       23.207       17.857     1663.167      538.549      318.858        0.166        0.126       27.767       17.162        0.382      345.750       23.504      863.241
09/20/2014  10:32:00      -17.811      -43.534       24.715       23.072       40.667       29.847      532.320     1653.765      890.826        0.295        0.154       47.037       10.109        0.046      346.044       24.008      863.244
09/20/2014  10:33:00       19.098       34.880       56.090       32.700       46.812       21.042     1069.280     2191.353      442.753        0.421        0.185       39.766        9.599        0.058      345.945       23.839      863.254
09/20/2014  10:34:00       66.961       60.748       32.101       35.195       20.356       30.998     1238.668      414.360      960.856        0.591        0.131       90.411       17.521        0.038      345.504       23.081      863.273
09/20/2014  10:35:00       37.225       31.105       44.171       29.023       33.388       18.606      842.315     1114.776      346.176        0.330        0.115       48.510       12.745        0.069      345.961       23.866      863.283
09/20/2014  10:36:00       23.257       36.403       54.073       26.302       43.857       20.359      691.796     1923.451      414.475        0.391        0.151       43.198       25.642        0.352      346.206       24.288      863.286
09/20/2014  10:37:00       12.270       19.523       24.034       30.183       33.141       20.365      911.006     1098.299      414.732        0.177        0.121       23.058       17.527        0.578      346.017       23.963      863.288
09/20/2014  10:38:00      -71.159      -22.129        0.084       31.538       23.474       20.104      994.674      551.028      404.177        0.375        0.097       74.520       20.377        0.075      345.707       23.429      863.293
09/20/2014  10:39:00      -59.206      -34.411      -11.250       20.115       19.737       18.768      404.625      389.545      352.237        0.298        0.057       68.480       11.964        0.031      345.601       23.248      863.283
09/20/2014  10:40:00      -12.472      -16.871       -3.911       53.846       29.325       25.404     2899.386      859.947      645.351        0.243        0.220       20.981       20.132        0.921      345.767       23.532      863.286
09/20/2014  10:41:00       30.369        1.125       14.331       37.190       38.535       33.029     1383.118     1484.961     1090.886        0.254        0.198       30.390       23.163        0.581      346.317       24.477      863.289
09/20/2014  10:42:00       15.860      -53.886       10.161       57.772       47.540       34.095     3337.566     2260.030     1162.469        0.501        0.338       56.172       34.108        0.369      346.360       24.551      863.294
09/20/2014  10:43:00      -18.867       11.744       41.588       22.162       31.633       26.257      491.147     1000.669      689.455        0.220        0.109       22.224       23.295        1.099      347.009       25.667      863.300
09/20/2014  10:44:00        8.445     -114.224       -1.941       50.810       69.608       41.055     2581.626     4845.292     1685.518        1.112        0.456      114.536       38.349        0.112      346.072       24.056      863.306
09/20/2014  10:45:00       72.671     -132.108      -13.651       77.963       56.709       50.179     6078.272     3215.958     2517.901        1.736        0.591      150.776       42.180        0.078      345.853       23.680      863.315
09/20/2014  10:46:00       68.385     -120.386       -2.383       50.153       57.163       32.661     2515.295     3267.616     1066.719        1.301        0.342      138.453       32.726        0.056      345.850       23.675      863.335
09/20/2014  10:47:00       76.166      -16.875       18.898       49.468       75.437       53.398     2447.097     5690.782     2851.385        0.871        0.549       78.013       62.018        0.632      345.985       23.909      863.348
09/20/2014  10:48:00       -5.148      -28.144       43.676       23.325       65.851       33.241      544.053     4336.377     1104.937        0.435        0.299       28.611       25.339        0.784      346.461       24.726      863.349
09/20/2014  10:49:00       17.484      -90.524        6.367       47.780       52.728       36.628     2282.952     2780.196     1341.633        0.747        0.320       92.197       28.862        0.098      346.168       24.222      863.360
09/20/2014  10:50:00       57.791       11.742       34.564       61.471       71.668       47.354     3778.707     5136.334     2242.436        0.791        0.558       58.972       41.672        0.499      346.318       24.478      863.355
09/20/2014  10:51:00       64.791      -11.874       33.834       71.826       62.665       52.788     5159.043     3926.869     2786.590        0.868        0.594       65.870       49.023        0.554      346.242       24.348      863.358
09/20/2014  10:52:00      147.631       59.148       35.250       81.753       58.319       56.790     6683.500     3401.057     3225.060        1.992        0.665      159.039       33.471        0.044      345.905       23.767      863.358
09/20/2014  10:53:00      115.397       89.251        3.939       37.216       30.463       32.469     1385.037      928.003     1054.242        1.233        0.168      145.885       15.150        0.011      345.766       23.531      863.339
09/20/2014  10:54:00       96.856       67.060       11.206       47.958       30.945       31.265     2299.939      957.608      977.475        0.912        0.212      117.806       19.667        0.028      345.935       23.822      863.328
09/20/2014  10:55:00       64.665       51.880        9.301       40.910       42.446       31.844     1673.613     1801.660     1014.043        0.572        0.224       82.904       19.353        0.054      346.043       24.007      863.315
09/20/2014  10:56:00       70.301       45.594       25.079       44.642       33.473       34.172     1992.902     1120.413     1167.750        0.596        0.214       83.792       20.274        0.059      346.290       24.429      863.301
09/20/2014  10:57:00       -7.602        1.395       33.247       51.588       50.636       37.964     2661.342     2564.016     1441.281        0.391        0.333        7.729       18.413        5.675      346.683       25.107      863.296
09/20/2014  10:58:00       70.512      -72.925       46.516       60.594       95.421       51.395     3671.621     9105.138     2641.395        1.393        0.771      101.439       64.926        0.410      346.356       24.544      863.272
09/20/2014  10:59:00       38.527      -48.866       27.729       44.656       96.892       45.804     1994.182     9388.001     2097.994        0.906        0.674       62.227       55.356        0.791      346.114       24.129      863.258
09/20/2014  11:00:00       72.294       13.195       34.679       44.244       80.631       37.633     1957.574     6501.326     1416.267        0.824        0.494       73.488       45.036        0.376      346.203       24.281      863.235
09/20/2014  11:01:00       67.341       52.673       58.405       63.915       50.428       42.486     4085.183     2543.006     1805.094        0.958        0.422       85.494       33.369        0.152      346.504       24.800      863.228
09/20/2014  11:02:00       -8.445       51.527       85.299       33.401       50.783       33.382     1115.610     2578.873     1114.349        0.740        0.240       52.214       20.647        0.156      346.751       25.225      863.218
09/20/2014  11:03:00       36.122       38.562       34.506       38.108       35.852       44.452     1452.213     1285.347     1975.970        0.435        0.236       52.837       25.422        0.231      346.509       24.808      863.217
09/20/2014  11:04:00       77.770       40.232       48.769       75.574       91.104       58.114     5711.413     8299.909     3377.293        1.371        0.869       87.560       52.123        0.354      346.446       24.699      863.213
09/20/2014  11:05:00       44.510     -111.186       21.806       68.818       89.134       48.308     4735.969     7944.923     2333.651        1.491        0.751      119.764       43.890        0.134      346.579       24.927      863.201
09/20/2014  11:06:00       58.727       49.293       73.335       64.752       60.593       41.738     4192.810     3671.517     1742.094        1.043        0.480       76.672       23.026        0.090      346.927       25.527      863.192
09/20/2014  11:07:00       33.099       32.501       71.374       44.244       62.744       38.389     1957.505     3936.842     1473.677        0.731        0.368       46.388       40.483        0.762      346.620       25.000      863.181
09/20/2014  11:08:00       28.488      -37.084       27.573       49.831       70.219       45.454     2483.098     4930.731     2066.107        0.621        0.474       46.763       44.153        0.891      346.472       24.743      863.158
09/20/2014  11:09:00       57.456       10.046       43.014       42.508       63.584       38.923     1806.941     4042.977     1515.010        0.631        0.368       58.328       17.307        0.088      346.846       25.388      863.137
09/20/2014  11:10:00      161.008       99.469       32.569       85.471       62.563       60.060     7305.223     3914.134     3607.227        2.585        0.741      189.256       47.036        0.062      346.467       24.733      863.143
09/20/2014  11:11:00      152.319      111.036       26.816       66.298       55.408       49.881     4395.361     3070.073     2488.097        2.310        0.498      188.494       23.674        0.016      346.388       24.598      863.144
09/20/2014  11:12:00      130.467       66.574       36.639       67.695       56.915       40.378     4582.644     3239.266     1630.412        1.612        0.473      146.471       37.108        0.064      346.450       24.705      863.136
09/20/2014  11:13:00      133.598       79.502       18.560       76.075       53.025       46.067     5787.415     2811.686     2122.210        1.762        0.536      155.463       42.776        0.076      346.510       24.808      863.140
09/20/2014  11:14:00       85.540       39.566       31.847       61.148       57.291       44.236     3739.079     3282.251     1956.848        0.944        0.449       94.247       29.660        0.099      346.344       24.524      863.130
09/20/2014  11:15:00      115.900       78.855       15.214       63.883       55.614       56.612     4081.099     3092.965     3204.971        1.513        0.519      140.181       40.388        0.083      346.458       24.720      863.101
09/20/2014  11:16:00      123.644       74.343       36.813       86.828       50.473       50.401     7539.179     2547.493     2540.244        1.740        0.631      144.273       21.817        0.023      346.909       25.494      863.090
09/20/2014  11:17:00      133.713       63.841       14.101       85.928       55.943       40.990     7383.549     3129.564     1680.156        1.717        0.610      148.171       41.813        0.080      346.465       24.731      863.091
09/20/2014  11:18:00       37.453       85.788       73.968       67.949       49.009       60.896     4617.107     2401.841     3708.339        1.248        0.536       93.607       45.107        0.232      346.515       24.818      863.063
09/20/2014  11:19:00       59.654       48.110       94.275       66.496       99.719       54.642     4421.710     9943.933     2985.743        1.605        0.868       76.637       59.301        0.599      346.616       24.992      863.042
09/20/2014  11:20:00       79.311      109.945       58.216       94.999       62.180       86.054     9024.764     3866.392     7405.367        2.103        1.015      135.567       41.274        0.093      346.550       24.876      863.050
09/20/2014  11:21:00      -23.094       -4.243       13.483       58.875       47.182       44.487     3466.239     2226.171     1979.123        0.420        0.384       23.481       39.408        2.817      346.730       25.187      863.035
09/20/2014  11:22:00       63.152      106.146      115.699      122.940       77.376       62.780    15114.185     5987.106     3941.334        2.684        1.252      123.512       52.358        0.180      347.020       25.686      863.036
09/20/2014  11:23:00      255.879      141.621       38.265       65.919       62.191       61.919     4345.299     3867.694     3833.994        4.952        0.602      292.456       24.054        0.007      346.356       24.539      863.033
09/20/2014  11:24:00       44.750      172.921      -14.232       70.190       71.127       50.445     4926.627     5059.086     2544.736        2.232        0.627      178.618       41.372        0.054      346.440       24.687      863.025
09/20/2014  11:25:00      116.681      176.271        6.675      139.268       76.148       55.830    19395.634     5798.463     3117.043        3.652        1.416      211.391       44.838        0.045      346.737       25.196      863.003
09/20/2014  11:26:00       90.287      176.479        3.626      104.478       93.934       66.389    10915.716     8823.602     4407.451        3.172        1.207      198.234       52.277        0.070      346.659       25.064      862.979
09/20/2014  11:27:00       73.207       68.372       21.980      102.880       62.053       49.713    10584.249     3850.569     2471.364        1.371        0.845      100.170       27.611        0.076      346.867       25.423      862.968
09/20/2014  11:28:00      100.462       66.010       47.617       75.788       41.927       46.260     5743.755     1757.866     2140.025        1.318        0.482      120.208       25.066        0.043      346.989       25.634      862.982
09/20/2014  11:29:00       92.854       90.605       63.216       90.175       80.987       62.630     8131.444     6558.898     3922.473        1.972        0.931      129.734       42.629        0.108      346.963       25.587      862.960
09/20/2014  11:30:00      139.749       97.099        6.396       59.686       46.730       36.480     3562.425     2183.652     1330.791        1.804        0.354      170.171       23.976        0.020      346.439       24.686      862.960
09/20/2014  11:31:00      133.255       51.607       14.000       78.715       63.737       29.051     6196.014     4062.396      843.955        1.586        0.555      142.899       21.093        0.022      346.311       24.466      862.961
09/20/2014  11:32:00       89.626       41.429       43.435       80.603       78.178       43.818     6496.775     6111.818     1920.040        1.308        0.726       98.738       39.326        0.159      346.441       24.690      862.948
09/20/2014  11:33:00       19.770       35.495       30.012       36.919       28.252       34.786     1362.986      798.148     1210.042        0.296        0.169       40.629       30.268        0.555      346.759       25.237      862.940
09/20/2014  11:34:00       37.142      -10.421        6.193       40.468       60.827       22.368     1637.667     3699.924      500.338        0.368        0.292       38.577       28.651        0.552      346.789       25.290      862.932
09/20/2014  11:35:00       25.616       23.374       30.260       29.228       54.304       29.150      854.261     2948.917      849.722        0.338        0.233       34.677       22.584        0.424      347.231       26.050      862.916
09/20/2014  11:36:00       12.681       33.209       18.099       34.955       28.590       35.000     1221.872      817.382     1224.995        0.243        0.163       35.548       18.743        0.278      346.996       25.646      862.900
09/20/2014  11:37:00        1.292       83.883       -3.151       31.775       44.523       25.649     1009.644     1982.334      657.875        0.535        0.182       83.893       25.273        0.091      346.853       25.400      862.891
09/20/2014  11:38:00       -9.744       40.548       12.456       16.385       32.336       20.218      268.478     1045.623      408.776        0.181        0.086       41.702       19.248        0.213      347.395       26.335      862.861
09/20/2014  11:39:00      -19.148       17.004       29.153       35.807       17.376       19.121     1282.161      301.916      365.594        0.173        0.097       25.609       13.267        0.268      347.491       26.500      862.852
09/20/2014  11:40:00       11.183       23.623       27.544       24.130       21.614       24.920      582.261      467.151      621.009        0.156        0.084       26.137       17.769        0.462      347.366       26.284      862.847
09/20/2014  11:41:00       16.894       28.175       11.592       28.813       26.092       28.510      830.212      680.768      812.839        0.177        0.116       32.852       13.139        0.160      347.349       26.253      862.837
09/20/2014  11:42:00       45.318       64.868        8.974       32.381       28.466       30.248     1048.533      810.338      914.939        0.456        0.139       79.131       19.013        0.058      347.082       25.795      862.824
09/20/2014  11:43:00       55.339       60.887       -1.507       53.336       54.707       38.491     2844.705     2992.883     1481.593        0.704        0.366       82.278       19.231        0.055      347.058       25.754      862.819
09/20/2014  11:44:00       27.779      102.904       -0.089       66.809       53.636       37.204     4463.453     2876.793     1384.111        1.004        0.436      106.588       41.391        0.151      346.836       25.371      862.800
09/20/2014  11:45:00       33.617       95.050       -0.107       50.704       44.931       37.808     2570.922     2018.791     1429.461        0.809        0.301      100.820       26.256        0.068      347.076       25.783      862.767
09/20/2014  11:46:00       48.698       49.232        6.682       39.619       36.988       28.114     1569.649     1368.130      790.385        0.428        0.186       69.248       19.938        0.083      347.156       25.922      862.749
09/20/2014  11:47:00        3.348       29.188       -1.076       34.990       24.903       21.538     1224.294      620.137      463.879        0.159        0.115       29.379       21.082        0.515      347.146       25.905      862.729
09/20/2014  11:48:00      -71.070       30.911      -22.107       23.069       34.425       12.371      532.178     1185.047      153.032        0.418        0.094       77.501       15.277        0.039      346.693       25.124      862.705
09/20/2014  11:49:00       56.822       20.459       16.136       56.930       39.216       27.698     3241.014     1537.867      767.154        0.473        0.277       60.392       19.816        0.108      346.997       25.648      862.676
09/20/2014  11:50:00       42.305       45.659       23.436       33.127       27.339       43.766     1097.396      747.436     1915.497        0.409        0.188       62.245       30.505        0.240      347.078       25.786      862.647
09/20/2014  11:51:00       45.989        5.292       54.382       78.190       69.249       49.250     6113.735     4795.480     2425.515        0.921        0.667       46.293       41.108        0.789      347.395       26.332      862.617
09/20/2014  11:52:00       76.122      111.657      103.278       79.051       59.321       53.065     6249.139     3519.003     2815.848        2.075        0.629      135.136       42.943        0.101      347.019       25.683      862.600
09/20/2014  11:53:00       75.820        7.899       27.994       52.953       75.724       54.798     2804.029     5734.081     3002.786        0.907        0.577       76.230       50.548        0.440      346.852       25.398      862.583
09/20/2014  11:54:00       39.205       58.684       46.793       43.998       33.930       42.784     1935.814     1151.272     1830.487        0.604        0.246       70.575       25.893        0.135      347.164       25.935      862.562
09/20/2014  11:55:00       26.354       20.777       31.542       61.207       52.401       41.327     3746.242     2745.842     1707.907        0.516        0.410       33.559       24.424        0.530      347.272       26.122      862.551
09/20/2014  11:56:00       97.112      -16.542       -1.305       49.681       43.098       44.494     2468.189     1857.472     1979.739        0.800        0.315       98.510       26.894        0.075      346.992       25.638      862.549
09/20/2014  11:57:00      136.264       58.619       30.677       56.595       50.352       32.959     3202.952     2535.367     1086.284        1.488        0.341      148.337       17.491        0.014      346.941       25.550      862.534
09/20/2014  11:58:00      110.506       73.958       34.095       32.637       27.706       37.348     1065.195      767.623     1394.902        1.104        0.161      132.972       20.047        0.023      346.811       25.328      862.521
09/20/2014  11:59:00       78.748       64.488        5.820       30.416       23.658       25.428      925.131      559.720      646.565        0.626        0.107      101.784       13.020        0.016      346.830       25.360      862.499
09/20/2014  12:00:00       66.046       53.510       18.637       49.338       29.088       33.837     2434.262      846.115     1144.964        0.600        0.221       85.002       20.365        0.057      347.288       26.148      862.490
09/20/2014  12:01:00       24.910      -37.618        5.904       52.847       78.759       49.057     2792.800     6202.957     2406.555        0.673        0.570       45.118       41.622        0.851      347.502       26.518      862.474
09/20/2014  12:02:00       52.141       31.694       24.551       63.955       58.230       37.867     4090.288     3390.766     1433.873        0.662        0.446       61.018       20.916        0.117      347.533       26.572      862.463
09/20/2014  12:03:00       16.605       99.978       -1.477       38.850       50.856       32.311     1509.352     2586.343     1043.979        0.771        0.257      101.348       27.328        0.073      347.663       26.795      862.471
09/20/2014  12:04:00      177.831      115.742       -5.361       52.863       58.002       45.783     2794.513     3364.194     2096.072        2.665        0.413      212.179       19.462        0.008      347.261       26.100      862.464
09/20/2014  12:05:00       53.622       70.688        3.806       37.424       34.888       37.671     1400.587     1217.161     1419.074        0.596        0.202       88.725       31.091        0.123      347.284       26.143      862.456
09/20/2014  12:06:00      103.336       87.117       21.312       59.367       46.086       53.868     3524.459     2123.878     2901.749        1.363        0.428      135.158       38.265        0.080      347.322       26.208      862.439
09/20/2014  12:07:00      100.529       87.746       28.419       76.630       48.805       47.343     5872.149     2381.921     2241.385        1.455        0.525      133.437       28.675        0.046      347.515       26.539      862.406
09/20/2014  12:08:00      113.787       83.266       24.575       82.460       70.103       55.851     6799.570     4914.449     3119.300        1.766        0.742      140.999       43.288        0.094      347.640       26.753      862.383
09/20/2014  12:09:00      118.794       81.709       18.421       61.654       52.305       43.171     3801.233     2735.822     1863.749        1.476        0.420      144.182       22.443        0.024      347.262       26.104      862.364
09/20/2014  12:10:00      122.362       72.066       21.339       78.830       47.629       40.116     6214.157     2268.509     1609.290        1.535        0.505      142.008       24.505        0.030      347.490       26.495      862.337
09/20/2014  12:11:00      165.143      111.130       29.484       56.749       46.773       50.694     3220.464     2187.728     2569.842        2.423        0.399      199.053       36.946        0.034      347.264       26.105      862.315
09/20/2014  12:12:00      130.308       89.157       36.727       82.155       52.263       38.002     6749.395     2731.386     1444.144        1.860        0.546      157.890       39.013        0.061      347.289       26.149      862.282
09/20/2014  12:13:00        3.736       70.139       47.401       47.983       45.423       38.516     2302.414     2063.218     1483.457        0.651        0.292       70.239       27.136        0.149      347.838       27.098      862.264
09/20/2014  12:14:00       18.075       61.643       -3.384       43.132       61.431       35.967     1860.378     3773.786     1293.643        0.553        0.346       64.238       28.441        0.196      347.583       26.658      862.253
09/20/2014  12:15:00       92.649       80.563       24.079       68.217       58.068       49.542     4653.593     3371.941     2454.403        1.306        0.524      122.777       36.490        0.088      347.625       26.730      862.240
09/20/2014  12:16:00      110.573       43.886       29.398      105.535       44.345       38.554    11137.611     1966.513     1486.424        1.480        0.730      118.963       20.421        0.029      347.577       26.646      862.208
09/20/2014  12:17:00      130.918       75.439       32.610      123.768       66.696       52.149    15318.502     4448.306     2719.541        2.319        1.124      151.098       46.140        0.093      347.653       26.776      862.184
09/20/2014  12:18:00      235.780      138.317       15.838       79.043       65.709       66.689     6247.860     4317.660     4447.439        4.499        0.751      273.357       44.374        0.026      347.488       26.490      862.175
09/20/2014  12:19:00       98.205       85.476       15.007       98.624       72.822       54.135     9726.748     5303.115     2930.611        1.756        0.898      130.194       45.592        0.123      348.008       27.390      862.175
09/20/2014  12:20:00       98.942       54.760       35.351       67.218       52.186       39.749     4518.207     2723.340     1579.972        1.143        0.441      113.085       16.849        0.022      347.904       27.211      862.164
09/20/2014  12:21:00      120.519       57.814       30.791       70.421       53.426       48.573     4959.087     2854.327     2359.385        1.449        0.509      133.669       37.730        0.080      347.686       26.835      862.153
09/20/2014  12:22:00       44.616       23.443       21.710       58.956       40.816       31.068     3475.792     1665.962      965.191        0.456        0.305       50.400       24.325        0.233      347.960       27.308      862.141
09/20/2014  12:23:00       49.775      -72.353       13.191       55.355      109.549       41.120     3064.169    12001.076     1690.858        1.232        0.838       87.821       50.376        0.329      347.940       27.273      862.109
09/20/2014  12:24:00       93.663      -34.118        8.828       68.880       91.693       46.422     4744.456     8407.688     2155.034        1.266        0.765       99.684       60.004        0.362      347.663       26.795      862.107
09/20/2014  12:25:00       46.613       63.310       64.670       48.316       34.482       31.363     2334.390     1189.039      983.617        0.743        0.225       78.619       28.245        0.129      347.549       26.599      862.106
09/20/2014  12:26:00       77.631       55.653       36.016       22.582       26.091       30.334      509.943      680.743      920.141        0.627        0.106       95.518       20.879        0.048      347.297       26.164      862.079
09/20/2014  12:27:00      105.196       63.095        9.283       41.472       29.292       46.767     1719.919      858.030     2187.115        0.995        0.238      122.667       22.559        0.034      347.423       26.383      862.067
09/20/2014  12:28:00      115.831       84.837       13.972       41.703       30.233       31.178     1739.166      914.050      972.095        1.222        0.181      143.576       17.650        0.015      347.290       26.152      862.034
09/20/2014  12:29:00       18.407       39.114       14.802       23.789       31.531       27.037      565.898      994.200      731.024        0.219        0.115       43.229       23.859        0.305      347.925       27.248      862.008
09/20/2014  12:30:00      -13.427      158.511      -19.182       62.220       44.970       30.251     3871.387     2022.338      915.107        1.624        0.340      159.079       27.696        0.030      347.594       26.677      862.007
09/20/2014  12:31:00      146.682      118.337       16.560       79.672       54.660       52.124     6347.629     2987.684     2716.861        2.392        0.603      188.466       32.053        0.029      347.574       26.639      861.981
09/20/2014  12:32:00      105.786      170.653      -19.173       85.259       76.381       53.069     7269.073     5834.069     2816.279        2.830        0.796      200.781       40.807        0.041      347.544       26.588      861.954
09/20/2014  12:33:00       57.892      168.121       -7.643       64.812      110.160       62.573     4200.531    12135.273     3915.361        2.596        1.013      177.809       62.478        0.123      347.706       26.868      861.945
09/20/2014  12:34:00       40.806      114.889       -3.866       53.509       61.806       47.070     2863.225     3820.015     2215.594        1.189        0.445      121.920       41.469        0.116      347.718       26.890      861.930
09/20/2014  12:35:00      -15.936      180.237      -10.786       37.578      105.809       36.131     1412.115    11195.471     1305.452        2.338        0.696      180.940       46.867        0.067      347.715       26.884      861.915
09/20/2014  12:36:00      -41.999      171.051      -17.708       54.491       86.705       40.484     2969.246     7517.773     1638.944        2.173        0.606      176.132       47.910        0.074      347.755       26.953      861.898
09/20/2014  12:37:00      -12.999      142.775      -11.051       29.141       55.325       34.663      849.217     3060.885     1201.556        1.289        0.256      143.365       30.579        0.045      347.717       26.889      861.902
09/20/2014  12:38:00       -7.740       48.516       17.356       31.470       52.036       33.614      990.375     2707.743     1129.912        0.377        0.241       49.130       28.454        0.335      348.230       27.774      861.899
09/20/2014  12:39:00       -4.490       10.678        0.342       29.899       27.984       23.258      893.947      783.107      540.925        0.118        0.111       11.583       14.896        1.654      347.907       27.217      861.904
09/20/2014  12:40:00      -18.532      -41.773       -8.021       36.311       62.744       24.561     1318.516     3936.866      603.253        0.400        0.293       45.700       15.293        0.112      348.036       27.439      861.904
09/20/2014  12:41:00      106.604     -143.544      -15.602       47.244       38.640       26.177     2232.008     1493.075      685.219        1.831        0.221      178.800       24.156        0.018      347.728       26.906      861.896
09/20/2014  12:42:00       88.968     -139.827        9.533       61.958      100.167       49.384     3838.738    10033.450     2438.797        2.193        0.816      165.731       55.619        0.113      347.897       27.197      861.899
09/20/2014  12:43:00       96.705      -58.001       50.649       76.214       67.354       50.008     5808.608     4536.612     2500.825        1.406        0.642      112.765       27.811        0.061      347.825       27.074      861.904
09/20/2014  12:44:00       31.575      -70.721       27.018       68.122      112.556       43.148     4640.621    12668.869     1861.734        1.295        0.959       77.450       60.844        0.617      348.176       27.680      861.908
09/20/2014  12:45:00      105.444     -170.100      -34.622       72.364       74.139       51.278     5236.490     5496.572     2629.407        2.730        0.668      200.131       53.062        0.070      347.702       26.860      861.909
09/20/2014  12:46:00       36.513       35.014       38.756       65.294       52.149       32.624     4263.366     2719.484     1064.319        0.605        0.402       50.589       27.362        0.293      347.864       27.141      861.913
09/20/2014  12:47:00       25.703        4.019       34.405       31.813       49.488       33.262     1012.088     2449.019     1106.331        0.321        0.228       26.015       31.754        1.490      347.975       27.334      861.876
09/20/2014  12:48:00       20.133       41.488       52.695       30.991       30.119       19.106      960.412      907.181      365.034        0.357        0.112       46.115        8.964        0.038      348.249       27.809      861.854
09/20/2014  12:49:00       49.051      -29.816       19.641       50.366       43.567       36.757     2536.722     1898.049     1351.098        0.473        0.289       57.402       41.859        0.532      348.132       27.606      861.837
09/20/2014  12:50:00       87.588      -39.721       28.713       65.409       86.188       54.218     4278.310     7428.417     2939.558        1.236        0.732       96.173       50.583        0.277      348.042       27.448      861.816
09/20/2014  12:51:00       65.326       35.260       74.637       62.429       46.498       36.885     3897.409     2162.093     1360.524        0.925        0.371       74.234       39.382        0.281      347.995       27.367      861.821
09/20/2014  12:52:00       69.890       70.992       62.266       57.918       56.425       35.466     3354.489     3183.837     1257.858        1.080        0.390       99.622       33.445        0.113      347.982       27.344      861.806
09/20/2014  12:53:00       74.569       59.825       39.045       63.223       61.720       49.839     3997.146     3809.324     2483.931        1.048        0.515       95.601       27.544        0.083      348.121       27.585      861.785
09/20/2014  12:54:00        7.149       33.072       11.305       24.849       61.446       34.290      617.477     3775.571     1175.793        0.342        0.278       33.836       27.920        0.681      348.454       28.163      861.774
09/20/2014  12:55:00       14.331       21.765       60.230       41.192       78.024       52.184     1696.812     6087.695     2723.180        0.741        0.525       26.059       46.211        3.145      348.604       28.422      861.770
09/20/2014  12:56:00       61.319      -52.153       19.892       72.808      112.830       45.877     5300.946    12730.540     2104.732        1.350        1.007       80.498       64.297        0.638      348.472       28.194      861.761
09/20/2014  12:57:00      112.352      -28.814       48.547      115.736      119.916       67.765    13394.882    14379.830     4592.041        2.408        1.618      115.988       79.063        0.465      348.330       27.946      861.718
09/20/2014  12:58:00       53.700       84.021       82.195       60.676       72.189       55.571     3681.522     5211.258     3088.190        1.434        0.599       99.715       41.758        0.175      348.336       27.956      861.695
09/20/2014  12:59:00      -21.546       23.321       75.000       26.417       60.953       32.238      697.853     3715.238     1039.275        0.604        0.273       31.750       35.032        1.217      348.865       28.872      861.679
09/20/2014  13:00:00       36.779      115.484       33.486       70.648       81.071       68.936     4991.201     6572.546     4752.113        1.606        0.816      121.199       55.056        0.206      348.529       28.291      861.664
09/20/2014  13:01:00      146.113       96.354       -7.784       75.677       71.645       58.618     5726.977     5132.991     3436.106        2.249        0.715      175.024       34.758        0.039      348.149       27.634      861.646
09/20/2014  13:02:00        7.161       96.162        4.542       51.022       77.218       46.600     2603.260     5962.597     2171.605        1.003        0.537       96.428       50.192        0.271      348.681       28.554      861.636
09/20/2014  13:03:00       53.791       88.379        8.349       79.420       58.460       50.336     6307.480     3417.594     2533.742        1.151        0.613      103.462       32.984        0.102      348.695       28.580      861.622
09/20/2014  13:04:00       36.189       74.310       13.817       56.158       63.253       42.610     3153.726     4000.974     1815.586        0.799        0.449       82.654       34.712        0.176      348.447       28.150      861.597
09/20/2014  13:05:00       56.326      104.351        1.856       61.028       88.420       49.432     3724.465     7818.070     2443.524        1.402        0.699      118.582       46.932        0.157      348.402       28.072      861.585
09/20/2014  13:06:00       49.289      203.119       -7.758       55.449      109.500       54.663     3074.594    11990.290     2988.047        3.090        0.903      209.013       61.270        0.086      348.199       27.719      861.585
09/20/2014  13:07:00       46.355        4.147       39.300       58.040       83.443       41.259     3368.586     6962.723     1702.282        0.787        0.602       46.540       50.015        1.155      348.287       27.873      861.589
09/20/2014  13:08:00       89.557       39.435       27.727       94.193       77.426       48.461     8872.364     5994.836     2348.444        1.378        0.861       97.855       35.639        0.133      348.394       28.056      861.571
09/20/2014  13:09:00      101.580       39.937       56.315       70.365       77.092       52.275     4951.281     5943.251     2732.726        1.435        0.681      109.149       42.256        0.150      348.178       27.684      861.556
09/20/2014  13:10:00      164.138      187.326      125.733       98.053       64.424       78.821     9614.374     4150.410     6212.812        4.891        0.999      249.063       67.669        0.074      348.000       27.372      861.541
09/20/2014  13:11:00      197.454       90.103       32.444      122.294      101.786       74.360    14955.865    10360.300     5529.340        3.950        1.542      217.040       48.811        0.051      348.129       27.599      861.498
09/20/2014  13:12:00       73.392       39.481       30.919       86.758       56.988       33.411     7526.911     3247.620     1116.286        0.989        0.595       83.338       18.437        0.049      348.481       28.207      861.496
09/20/2014  13:13:00       28.834      -14.562       25.747       33.868       64.959       42.418     1147.011     4219.627     1799.285        0.443        0.358       32.303       49.872        2.384      348.669       28.534      861.497
09/20/2014  13:14:00       -4.711       62.362        0.847       34.892       56.615       26.241     1217.431     3205.285      688.607        0.451        0.256       62.539       30.934        0.245      348.651       28.503      861.472
09/20/2014  13:15:00       -1.437       99.096        9.895       33.066       53.116       34.239     1093.391     2821.292     1172.276        0.750        0.254       99.106       23.008        0.054      348.534       28.301      861.436
09/20/2014  13:16:00       37.171       65.824        0.765       44.367       54.462       40.639     1968.448     2966.075     1651.497        0.615        0.329       75.594       23.582        0.097      348.168       27.668      861.405
09/20/2014  13:17:00       19.113       15.274       34.129       44.182       20.072       20.727     1952.016      402.872      429.600        0.227        0.139       24.467        8.523        0.121      348.832       28.816      861.381
09/20/2014  13:18:00      -21.463       22.184       26.513       30.256       28.553       22.991      915.421      815.257      528.606        0.196        0.113       30.868       21.350        0.478      348.952       29.023      861.368
09/20/2014  13:19:00      -57.093      -13.658       -5.838       21.209       32.759       27.191      449.822     1073.181      739.341        0.287        0.113       58.704        7.610        0.017      348.552       28.331      861.350
09/20/2014  13:20:00      -67.119       44.778        4.680       65.023       48.241       31.779     4227.983     2327.196     1009.915        0.705        0.378       80.685       17.760        0.048      348.542       28.315      861.350
09/20/2014  13:21:00       38.094      172.591      -15.872       67.238       96.799       49.233     4521.013     9370.139     2423.866        2.390        0.816      176.745       57.129        0.104      348.486       28.214      861.350
09/20/2014  13:22:00       49.432       20.754       30.194       68.025       45.644       41.455     4627.394     2083.377     1718.548        0.611        0.421       53.612       16.262        0.092      348.967       29.049      861.339
09/20/2014  13:23:00       39.438       69.124        4.128       67.201       58.844       56.280     4515.948     3462.591     3167.406        0.875        0.557       79.583       35.342        0.197      348.635       28.474      861.336
09/20/2014  13:24:00      -13.180     -122.601       16.022      117.747       84.802       61.878    13864.447     7191.312     3828.859        2.017        1.244      123.307       45.546        0.136      348.759       28.686      861.307
09/20/2014  13:25:00       26.753       33.654       91.841       54.482       85.858       56.256     2968.250     7371.652     3164.685        1.189        0.675       42.992       42.583        0.981      348.978       29.069      861.303
09/20/2014  13:26:00       78.611        8.279       32.181       59.834      101.248       65.291     3580.141    10251.098     4262.940        1.269        0.905       79.046       62.133        0.618      348.856       28.857      861.331
09/20/2014  13:27:00       19.714      -21.375       19.193       64.348       95.528       45.534     4140.621     9125.606     2073.372        0.827        0.767       29.078       20.146        0.480      349.264       29.564      861.322
09/20/2014  13:28:00      121.500       90.235       63.356       79.924       72.997       64.063     6387.777     5328.535     4104.043        2.137        0.791      151.342       42.016        0.077      348.759       28.689      861.327
09/20/2014  13:29:00       49.759       33.227       13.582       50.211       45.829       35.818     2521.141     2100.310     1282.932        0.483        0.295       59.833       25.134        0.176      348.789       28.741      861.308
09/20/2014  13:30:00      135.577       85.304       18.765       79.637       77.214       46.535     6342.029     5962.006     2165.498        2.024        0.723      160.181       25.307        0.025      348.698       28.582      861.295
09/20/2014  13:31:00       99.079       70.754       55.223       87.462       61.255       46.948     7649.586     3752.163     2204.146        1.574        0.680      121.749       36.407        0.089      349.021       29.143      861.260
09/20/2014  13:32:00       11.949      -14.276       37.391       58.747       62.337       54.435     3451.251     3885.842     2963.142        0.602        0.515       18.617       55.416        8.861      349.146       29.359      861.252
09/20/2014  13:33:00      109.547       22.796       34.130       96.959       93.089       47.750     9401.115     8665.473     2280.016        1.701        1.017      111.894       29.933        0.072      348.775       28.716      861.242
09/20/2014  13:34:00      206.282       69.344       87.846      129.188       93.535      100.480    16689.601     8748.779    10096.168        4.530        1.777      217.625       57.261        0.069      348.724       28.626      861.217
09/20/2014  13:35:00      195.687     -160.046       11.012       88.866       82.603       62.857     7897.209     6823.190     3951.056        4.135        0.934      252.801       62.215        0.061      348.578       28.373      861.202
09/20/2014  13:36:00       81.838      -58.412       45.012       69.182       76.649       58.556     4786.094     5875.029     3428.862        1.311        0.704      100.545       57.307        0.325      348.806       28.770      861.200
09/20/2014  13:37:00       99.476      -76.332       16.207       70.080      111.832       62.622     4911.217    12506.342     3921.506        1.866        1.067      125.388       54.575        0.189      348.849       28.844      861.167
09/20/2014  13:38:00      179.574     -141.460       28.496      137.221      209.226      109.110    18829.729    43775.688    11905.051        6.378        3.726      228.600      124.852        0.298      348.921       28.967      861.152
09/20/2014  13:39:00      141.447      -22.870      121.240      162.911      163.416       99.713    26539.865    26704.707     9942.781        4.920        3.159      143.284      105.302        0.540      348.764       28.697      861.132
09/20/2014  13:40:00      118.697       14.269      145.351      144.710      177.451      129.904    20941.093    31488.698    16875.043        5.235        3.465      119.551      119.075        0.992      348.925       28.974      861.109
09/20/2014  13:41:00      134.488      120.312      230.710      153.508      236.140      146.864    23564.848    55762.202    21568.914        9.332        5.045      180.450      167.688        0.864      348.833       28.815      861.098
09/20/2014  13:42:00      136.356        7.349       86.270      146.468      141.531       91.506    21452.883    20031.090     8373.292        3.796        2.493      136.554       78.081        0.327      348.941       29.002      861.108
09/20/2014  13:43:00      147.532       95.634      169.282      179.814      172.193      124.501    32333.146    29650.334    15500.438        6.851        3.874      175.816      120.828        0.472      349.093       29.264      861.105
09/20/2014  13:44:00      285.898      218.183      181.452      156.720      157.915      142.374    24561.183    24937.087    20270.464       11.600        3.488      359.641      112.363        0.098      348.805       28.764      861.066
09/20/2014  13:45:00      206.577      206.624      210.820      216.463      191.834      172.897    46856.395    36800.311    29893.396       12.166        5.678      292.178      158.764        0.295      348.898       28.927      861.067
09/20/2014  13:46:00      263.036     -158.108       79.457      174.050      212.130      129.958    30293.302    44999.329    16888.954        9.632        4.609      306.898      133.975        0.191      348.820       28.790      861.100
09/20/2014  13:47:00      205.148      -60.729       89.389      188.267      163.455      113.141    35444.362    26717.655    12800.824        6.435        3.748      213.947      118.578        0.307      349.001       29.106      861.100
09/20/2014  13:48:00      143.468      -36.670      141.583      143.679      225.514      132.700    20643.651    50856.721    17609.177        6.552        4.455      148.080      152.341        1.058      348.925       28.975      861.103
09/20/2014  13:49:00      171.042       20.458      150.968      179.798      254.666      172.818    32327.458    64854.852    29866.004        8.973        6.352      172.261      213.490        1.536      348.738       28.649      861.138
09/20/2014  13:50:00      291.084     -407.527      -74.743      118.898      124.887       80.491    14136.802    15596.864     6478.749       14.630        1.811      500.808       60.666        0.015      348.589       28.392      861.098
09/20/2014  13:51:00      224.575       63.159       95.473      171.433      182.011      128.057    29389.150    33128.004    16398.550        7.121        3.946      233.287      114.764        0.242      349.015       29.130      861.121
09/20/2014  13:52:00      241.372      206.598      163.198      141.015      138.532      127.738    19885.112    19191.179    16316.934        9.147        2.770      317.716       98.299        0.096      348.848       28.840      861.106
09/20/2014  13:53:00      319.166      166.810      158.074      167.050      147.106      127.215    27905.774    21640.278    16183.655       11.019        3.286      360.129      104.178        0.084      348.902       28.934      861.119
09/20/2014  13:54:00      209.908       90.881       99.896      143.439       98.381       93.851    20574.851     9678.887     8808.050        5.067        1.953      228.737       76.384        0.112      348.762       28.690      861.106
09/20/2014  13:55:00      205.357      102.769      114.517      183.810      146.273      113.320    33786.254    21395.645    12841.347        6.692        3.401      229.637      110.736        0.233      348.964       29.040      861.072
09/20/2014  13:56:00      166.602       16.388      136.907      166.287      139.799       94.966    27651.251    19543.863     9018.584        5.148        2.811      167.406      102.385        0.374      348.854       28.852      861.082
09/20/2014  13:57:00      172.358     -151.596       47.359      118.132      147.984       87.116    13955.162    21899.154     7589.124        4.918        2.172      229.540       87.871        0.147      348.887       28.907      861.047
09/20/2014  13:58:00      169.849       96.525      164.873      148.112      157.074       99.420    21937.064    24672.339     9884.435        6.091        2.825      195.360      102.589        0.276      349.117       29.305      861.031
09/20/2014  13:59:00      168.722      151.487      133.286      177.432      157.514      119.086    31482.285    24810.698    14181.591        6.981        3.524      226.749       95.235        0.176      348.977       29.066      861.044
09/20/2014  14:00:00      163.852       71.999       85.656      138.184      114.402       90.701    19094.725    13087.771     8226.737        3.988        2.020      178.973       73.030        0.167      348.901       28.932      861.004
09/20/2014  14:01:00      257.998     -290.785      -20.638      174.571      198.279      103.443    30475.131    39314.374    10700.441       11.600        4.024      388.740      122.206        0.099      348.737       28.649      860.997
09/20/2014  14:02:00      265.786     -314.006        0.080      158.307      278.481      129.209    25061.256    77551.647    16694.996       14.425        5.965      411.391      186.060        0.205      348.735       28.645      860.975
09/20/2014  14:03:00       97.024     -139.345      -12.481      107.592      103.797       52.256    11576.070    10773.910     2730.650        2.703        1.254      169.796       62.359        0.135      348.891       28.915      861.003
09/20/2014  14:04:00       41.971      -12.260       81.822      108.226      161.949       87.235    11712.817    26227.417     7609.959        2.707        2.278       43.725      106.704        5.955      349.067       29.221      860.994
09/20/2014  14:05:00      141.956       27.406       94.469      136.493      191.459       97.617    18630.316    36656.358     9528.985        4.731        3.241      144.577       85.881        0.353      349.182       29.419      860.974
09/20/2014  14:06:00      199.367     -118.744       86.056      177.008      214.569      123.375    31331.928    46040.068    15221.452        7.690        4.630      232.050      156.747        0.456      349.249       29.536      860.957
09/20/2014  14:07:00      218.865     -242.064       -8.331      159.681      204.628       92.156    25498.013    41872.790     8492.711        9.120        3.793      326.338      118.580        0.132      349.094       29.267      860.919
09/20/2014  14:08:00      193.036     -180.099       37.725      134.054      130.863       91.766    17970.529    17125.128     8421.044        5.731        2.176      264.005       93.170        0.125      349.043       29.180      860.942
09/20/2014  14:09:00       95.173       40.078      125.941      110.592      152.461      105.206    12230.583    23244.279    11068.318        3.652        2.327      103.267      101.319        0.963      349.022       29.144      860.968
09/20/2014  14:10:00      165.402       -4.764      109.275      152.845      171.035      105.979    23361.618    29253.078    11231.542        5.157        3.192      165.470      116.386        0.495      348.852       28.848      860.988
09/20/2014  14:11:00      204.445       -8.062       76.531      130.451      145.574       90.959    17017.536    21191.738     8273.585        4.709        2.324      204.604      106.923        0.273      348.817       28.787      860.959
09/20/2014  14:12:00      115.963       61.758      108.802      143.625      106.573       74.085    20628.184    11357.787     5488.588        3.328        1.874      131.382       80.004        0.371      349.045       29.183      860.925
09/20/2014  14:13:00      114.096      -70.871       79.606      159.257      199.980      107.496    25362.937    39991.801    11555.380        5.063        3.846      134.315      138.017        1.056      349.258       29.552      860.902
09/20/2014  14:14:00      252.712     -260.024       -8.327      205.377      217.598       93.452    42179.916    47348.969     8733.309       11.488        4.913      362.596      138.180        0.145      348.921       28.968      860.913
09/20/2014  14:15:00      291.663     -316.508      -22.263      163.744      191.121       93.869    26812.000    36527.339     8811.317       12.893        3.608      430.400      100.081        0.054      348.598       28.407      860.926
09/20/2014  14:16:00      121.255       14.923      104.761      135.287      127.568      110.820    18302.539    16273.701    12281.120        3.637        2.343      122.170      111.044        0.826      348.822       28.795      860.956
09/20/2014  14:17:00      108.354      -19.945       39.992       86.608      135.373       72.656     7500.944    18325.718     5278.840        2.242        1.555      110.175       84.080        0.582      348.847       28.840      860.941
09/20/2014  14:18:00       53.764       33.143       75.017       77.620       50.467       49.703     6024.887     2546.871     2470.374        1.033        0.552       63.159       44.329        0.493      348.901       28.936      860.932
09/20/2014  14:19:00       77.845       39.881       68.433       88.322       60.814       49.729     7800.698     3698.351     2472.925        1.315        0.699       87.466       42.003        0.231      349.037       29.171      860.931
09/20/2014  14:20:00       67.756       23.015       88.627       66.232      129.742       63.801     4386.665    16832.865     4070.568        1.913        1.265       71.558       73.924        1.067      349.062       29.213      860.911
09/20/2014  14:21:00      151.182      -40.953       58.733      174.077      127.902       81.502    30302.783    16359.026     6642.573        4.063        2.665      156.631       77.521        0.245      349.087       29.257      860.875
09/20/2014  14:22:00      205.970      -65.080       84.195      154.813      220.052      131.654    23966.945    48423.037    17332.794        7.172        4.486      216.007      144.038        0.445      349.051       29.193      860.859
09/20/2014  14:23:00      154.564       22.452      160.741      142.728      225.074      142.370    20371.303    50658.505    20269.235        7.075        4.565      156.186      154.372        0.977      349.021       29.139      860.880
09/20/2014  14:24:00      138.273      -88.511       52.000      140.456      188.900      112.231    19728.004    35683.054    12595.688        4.882        3.400      164.176      126.044        0.589      349.063       29.214      860.861
09/20/2014  14:25:00      182.982      -42.021       96.273      160.938      160.045      113.321    25901.026    25614.323    12841.640        5.442        3.218      187.745      121.773        0.421      349.209       29.468      860.875
09/20/2014  14:26:00      114.472       68.966       88.062      116.976      111.687       75.118    13683.329    12474.013     5642.678        2.870        1.590      133.642       67.160        0.253      349.384       29.770      860.892
09/20/2014  14:27:00      106.221      -79.599       37.158      105.694      118.610       74.394    11171.170    14068.439     5534.462        2.488        1.539      132.736       75.919        0.327      349.458       29.900      860.917
09/20/2014  14:28:00      187.363     -215.358       -6.414      103.809      116.730       65.165    10776.208    13625.810     4246.475        5.508        1.432      285.454       64.497        0.051      349.005       29.112      860.897
09/20/2014  14:29:00      143.295       11.973       94.455      126.776      148.663      111.586    16072.256    22100.617    12451.539        4.010        2.531      143.794      105.472        0.538      349.036       29.166      860.860
09/20/2014  14:30:00      284.783      205.330      139.729      182.922      150.171      129.418    33460.531    22551.283    16748.928       10.776        3.638      351.087      104.352        0.088      348.850       28.843      860.859
09/20/2014  14:31:00       55.189       27.220       96.290       96.205       80.083       74.455     9255.371     6413.306     5543.589        1.713        1.061       61.537       53.641        0.760      349.305       29.635      860.893
09/20/2014  14:32:00      175.704       39.581      112.030      178.678      166.920      105.271    31925.676    27862.232    11082.049        5.792        3.543      180.107      102.653        0.325      348.922       28.970      860.886
09/20/2014  14:33:00      207.008      126.908      120.130      121.933      127.461      111.586    14867.692    16246.245    12451.377        5.847        2.178      242.812       95.040        0.153      348.886       28.905      860.874
09/20/2014  14:34:00      134.059      118.806      106.525      102.942       91.408       92.449    10597.017     8355.448     8546.797        3.546        1.375      179.128       64.577        0.130      349.068       29.222      860.887
09/20/2014  14:35:00       96.141       93.457       87.114       98.347      101.279       67.729     9672.079    10257.364     4587.174        2.504        1.226      134.079       56.340        0.177      349.079       29.243      860.875
09/20/2014  14:36:00      153.351       62.663       52.961      105.694       71.408       60.063    11171.230     5099.066     3607.528        2.506        0.994      165.660       36.018        0.047      349.245       29.530      860.868
09/20/2014  14:37:00      256.503      197.230      110.199      213.103      120.990      102.547    45412.839    14638.543    10515.939        9.369        3.528      323.563       85.557        0.070      349.180       29.415      860.858
09/20/2014  14:38:00      202.381      180.857      191.868      197.815      146.522      123.071    39130.830    21468.603    15146.592        9.310        3.787      271.417      119.970        0.195      349.113       29.299      860.831
09/20/2014  14:39:00      154.023      179.838      172.831      137.644      108.821      103.413    18945.750    11842.035    10694.146        6.370        2.074      236.780       80.178        0.115      349.101       29.279      860.844
09/20/2014  14:40:00      131.579      104.394      114.144      114.495      133.306       76.060    13109.188    17770.469     5785.104        3.895        1.833      167.962       74.122        0.195      348.948       29.013      860.857
09/20/2014  14:41:00      157.803      120.232      100.744      149.101       99.849       90.092    22231.074     9969.762     8116.644        4.490        2.016      198.388       71.417        0.130      349.095       29.268      860.826
09/20/2014  14:42:00      250.054      151.212      127.422      161.911      117.746      109.601    26215.227    13864.106    12012.472        7.685        2.605      292.219       79.473        0.074      348.926       28.975      860.765
09/20/2014  14:43:00      240.941      269.159      237.453      224.080      149.349      131.020    50211.945    22305.211    17166.238       13.827        4.484      361.246      129.907        0.129      348.949       29.016      860.705
09/20/2014  14:44:00      243.376      134.029      170.320      188.486      158.243      117.893    35527.100    25040.837    13898.800        9.032        3.723      277.841      105.756        0.145      349.080       29.243      860.676
09/20/2014  14:45:00      252.674      178.361      170.100      170.971      169.930      128.017    29231.107    28876.160    16388.266        9.953        3.725      309.285      112.787        0.133      349.058       29.204      860.700
09/20/2014  14:46:00      197.678      163.314      193.989      208.627      178.675      117.322    43525.110    31924.669    13764.336        9.628        4.461      256.414      102.336        0.159      349.019       29.137      860.695
09/20/2014  14:47:00      207.391       91.642      134.039      146.618      217.552      138.955    21496.747    47328.866    19308.448        7.874        4.407      226.736      136.484        0.362      348.886       28.906      860.735
09/20/2014  14:48:00      147.542       -9.512      133.523      172.665      226.365      137.502    29813.282    51240.968    18906.922        6.980        4.998      147.849      171.277        1.342      349.032       29.158      860.740
09/20/2014  14:49:00      174.563        0.131      113.404      159.397      239.075      131.999    25407.449    57157.083    17423.697        7.164        4.999      174.563      168.767        0.935      348.950       29.015      860.740
09/20/2014  14:50:00      156.192       80.314      134.529      129.705      197.299      142.306    16823.439    38926.953    20251.047        6.246        3.800      175.631      144.091        0.673      348.977       29.065      860.733
09/20/2014  14:51:00      177.909       61.500      154.348      155.051      200.680      124.623    24040.752    40272.301    15530.834        6.953        3.992      188.239      143.884        0.584      348.854       28.851      860.747
09/20/2014  14:52:00       83.737      -77.998       58.990       93.739      155.596       82.819     8786.992    24209.974     6858.916        2.821        1.993      114.436       91.026        0.633      349.179       29.416      860.751
09/20/2014  14:53:00      169.628     -131.284       42.189      131.424      167.886       91.951    17272.185    28185.864     8454.964        5.084        2.696      214.497      119.790        0.312      348.981       29.072      860.743
09/20/2014  14:54:00       99.382     -111.811       39.582       80.538      120.428       73.011     6486.310    14502.791     5330.562        2.513        1.316      149.594       80.575        0.290      348.620       28.447      860.750
09/20/2014  14:55:00       81.734      -49.640       29.303       62.279      104.400       62.034     3878.670    10899.404     3848.242        1.431        0.931       95.627       53.905        0.318      348.653       28.503      860.692
09/20/2014  14:56:00       95.976        0.646       61.368      103.599       86.217       51.716    10732.682     7433.361     2674.590        1.691        1.042       95.978       64.876        0.457      348.881       28.900      860.666
09/20/2014  14:57:00      149.801       76.606       64.647       99.056       89.361       75.012     9812.068     7985.308     5626.839        2.795        1.171      168.252       55.423        0.109      348.851       28.848      860.661
09/20/2014  14:58:00      100.751       92.187      101.028      144.325      102.734       82.356    20829.574    10554.267     6782.449        3.350        1.908      136.562       67.924        0.247      348.861       28.865      860.662
09/20/2014  14:59:00      260.351      -16.890       87.629      165.814      197.211       96.382    27494.315    38892.060     9289.555        7.570        3.784      260.898      106.180        0.166      348.903       28.936      860.624
09/20/2014  15:00:00      178.968      113.654      139.110      150.525      182.435      113.614    22657.807    33282.586    12908.111        6.656        3.442      212.006       99.931        0.222      348.801       28.759      860.595
09/20/2014  15:01:00      271.374      141.439      141.428      149.850      171.895      121.480    22455.034    29547.911    14757.431        9.019        3.338      306.021      113.247        0.137      348.785       28.731      860.574
09/20/2014  15:02:00      238.584      107.436      120.214      190.323      127.828      106.238    36222.881    16339.925    11286.611        7.337        3.192      261.658       80.100        0.094      348.943       29.004      860.570
09/20/2014  15:03:00      309.288      202.281      186.660      163.714      157.661      129.751    26802.343    24857.021    16835.428       11.994        3.425      369.563       97.805        0.070      348.782       28.726      860.552
09/20/2014  15:04:00      212.328      -50.606       93.269      198.410      240.096      124.593    39366.638    57646.147    15523.387        8.442        5.627      218.275      159.070        0.531      348.960       29.033      860.533
09/20/2014  15:05:00       92.849       33.907       99.526      124.395      131.048       83.883    15474.173    17173.631     7036.364        2.967        1.984       98.847       70.750        0.512      349.100       29.277      860.537
09/20/2014  15:06:00      204.757       11.981      127.376      135.418      174.173      116.552    18337.944    30336.369    13584.359        6.026        3.113      205.107      123.323        0.362      348.827       28.803      860.533
09/20/2014  15:07:00      146.547      -61.009       77.417      132.965      231.621      150.089    17679.587    53648.299    22526.858        6.250        4.693      158.739      168.065        1.121      348.700       28.585      860.515
09/20/2014  15:08:00      100.999       82.010      114.825       97.647      130.291       93.237     9534.943    16975.678     8693.194        3.265        1.760      130.102      101.667        0.611      348.602       28.418      860.508
09/20/2014  15:09:00      222.920      118.351      148.358      155.522      149.700      113.014    24187.046    22410.041    12772.177        7.253        2.968      252.389       98.407        0.152      348.686       28.559      860.466
09/20/2014  15:10:00       93.985       -0.788       99.762      124.931      133.980       72.586    15607.754    17950.612     5268.763        2.880        1.941       93.989       84.192        0.802      348.936       28.995      860.501
09/20/2014  15:11:00      136.081      -40.251       47.822      119.768      141.584       82.409    14344.401    20045.984     6791.171        3.180        2.059      141.909      105.136        0.549      348.828       28.806      860.519
09/20/2014  15:12:00      191.960     -321.943      -28.534      101.716       99.483       78.501    10346.223     9896.894     6162.376        8.385        1.320      374.827       66.982        0.032      348.624       28.453      860.498
09/20/2014  15:13:00       47.958     -199.777       -6.686       90.287      122.507       50.643     8151.793    15008.045     2564.718        3.398        1.286      205.453       52.095        0.064      348.945       29.009      860.496
09/20/2014  15:14:00       84.261     -144.150       -9.331       84.404      114.877       55.699     7123.954    13196.721     3102.328        2.569        1.171      166.970       67.573        0.164      349.013       29.128      860.510
09/20/2014  15:15:00      122.365       93.776      140.923      121.841      101.996       80.623    14845.123    10403.192     6500.056        3.768        1.587      154.166       72.686        0.222      349.078       29.238      860.526
09/20/2014  15:16:00      131.029     -126.915       40.872      135.777      211.056       87.410    18435.520    44544.453     7640.447        5.277        3.531      182.417      115.369        0.400      348.993       29.094      860.513
09/20/2014  15:17:00       57.080       12.566       60.527       87.195      130.037       85.881     7602.959    16909.543     7375.575        1.948        1.594       58.447       73.401        1.577      349.274       29.581      860.526
09/20/2014  15:18:00      217.772       60.875      128.880      172.020      113.652       99.500    29591.052    12916.877     9900.171        6.006        2.620      226.121       99.433        0.193      348.876       28.889      860.551
09/20/2014  15:19:00      111.728      118.534       99.655       98.558       64.304       66.854     9713.604     4135.001     4469.474        2.739        0.916      162.891       49.150        0.091      348.775       28.717      860.537
09/20/2014  15:20:00       94.060       97.155      101.564       96.589       74.399       48.515     9329.443     5535.176     2353.727        2.291        0.861      135.227       39.377        0.085      349.177       29.411      860.532
09/20/2014  15:21:00      109.992       85.150      112.299      144.045      107.610       97.264    20748.923    11579.825     9460.293        3.687        2.089      139.100       83.594        0.361      349.181       29.418      860.542
09/20/2014  15:22:00      224.107       20.514       98.801      151.303      162.719      100.663    22892.594    26477.332    10133.036        5.994        2.975      225.044      112.653        0.251      348.774       28.711      860.550
09/20/2014  15:23:00      172.267     -162.635       24.913      143.244      207.794       97.826    20518.877    43178.418     9569.877        6.499        3.663      236.910      119.478        0.254      348.808       28.771      860.529
09/20/2014  15:24:00       38.723      -70.959       37.592       54.489       90.541       39.027     2969.055     8197.726     1523.126        1.032        0.634       80.837       47.868        0.351      348.938       29.000      860.525
09/20/2014  15:25:00       56.581      -46.736       23.033       57.732       56.247       42.330     3332.988     3163.740     1791.817        0.710        0.414       73.387       36.355        0.245      348.885       28.908      860.507
09/20/2014  15:26:00      101.858     -122.664        3.716       70.981      106.841       64.692     5038.362    11414.907     4185.035        2.303        1.032      159.441       56.171        0.124      348.971       29.056      860.473
09/20/2014  15:27:00       54.180      -11.487       53.998       84.159      119.351       55.305     7082.694    14244.759     3058.677        1.518        1.219       55.384       58.502        1.116      349.186       29.429      860.444
09/20/2014  15:28:00      146.309       86.557      148.785      142.929      134.555       95.144    20428.735    18104.936     9052.446        4.930        2.379      169.996       98.012        0.332      348.940       29.000      860.422
09/20/2014  15:29:00      227.802     -132.855       57.949      146.581      257.610      124.692    21486.036    66362.944    15548.147        8.813        5.170      263.712      174.646        0.439      348.841       28.828      860.391
09/20/2014  15:30:00       98.998        2.858      123.912      123.169      188.160      100.761    15170.691    35404.056    10152.848        4.293        3.036       99.039      126.358        1.628      349.091       29.261      860.406
09/20/2014  15:31:00      140.172      -43.253       78.657      118.667      125.811       69.877    14081.771    15828.430     4882.796        3.124        1.740      146.693       78.328        0.285      349.052       29.194      860.406
09/20/2014  15:32:00      154.286       34.922      106.793      142.081      163.610      114.019    20186.945    26768.074    13000.261        4.818        2.998      158.189      128.213        0.657      348.903       28.937      860.388
09/20/2014  15:33:00      104.446        8.654      105.366      115.220      182.247       96.049    13275.704    33214.119     9225.401        3.889        2.786      104.804      119.762        1.306      348.902       28.934      860.392
09/20/2014  15:34:00      155.329     -239.048      -23.591      105.696      102.752       43.714    11171.612    10558.040     1910.909        5.273        1.182      285.080       44.388        0.024      348.827       28.805      860.372
09/20/2014  15:35:00      114.467       95.414       81.143       84.238       92.870       81.474     7095.991     8624.849     6637.997        2.557        1.118      149.019       53.753        0.130      348.839       28.826      860.367
09/20/2014  15:36:00      197.986      154.709      106.446      161.373      117.130      102.287    26041.226    13719.334    10462.703        6.233        2.511      251.263       87.297        0.121      348.669       28.530      860.345
09/20/2014  15:37:00      276.830      152.936      113.637      168.897       90.741       92.286    28526.335     8233.926     8516.741        7.910        2.264      316.266       89.144        0.079      348.755       28.679      860.313
09/20/2014  15:38:00      141.467      120.703       75.159      109.237       77.672       67.036    11932.719     6032.989     4493.857        3.134        1.123      185.962       40.824        0.048      348.958       29.032      860.306
09/20/2014  15:39:00      276.981      139.390       64.841      132.986       95.845       76.514    17685.163     9186.298     5854.337        6.653        1.636      310.077       64.293        0.043      348.828       28.805      860.311
09/20/2014  15:40:00      185.382       78.952       80.643      122.686       82.266       76.397    15051.846     6767.705     5836.516        3.737        1.383      201.494       75.333        0.140      348.872       28.880      860.308
09/20/2014  15:41:00       58.253       19.301       64.321       62.422       77.653       54.919     3896.489     6029.972     3016.043        1.042        0.647       61.367       53.446        0.758      348.899       28.932      860.301
09/20/2014  15:42:00       74.962       38.523       47.432       71.835       52.332       32.622     5160.309     2738.600     1064.205        0.916        0.448       84.281       23.917        0.081      349.076       29.238      860.278
09/20/2014  15:43:00       96.815       68.017       25.769       61.377       50.917       48.952     3767.130     2592.506     2396.259        1.171        0.438      118.319       30.195        0.065      349.196       29.446      860.245
09/20/2014  15:44:00      240.776      136.746       61.092       90.571       58.372       69.009     8203.062     3407.246     4762.183        4.839        0.819      276.898       38.415        0.019      348.791       28.741      860.210
09/20/2014  15:45:00      124.071       83.279       33.544       82.369       75.627       59.964     6784.642     5719.430     3595.701        1.977        0.805      149.429       42.232        0.080      348.920       28.966      860.180
09/20/2014  15:46:00      155.139      106.774       30.288       84.853       67.390       66.350     7199.956     4541.362     4402.387        2.626        0.807      188.332       40.460        0.046      348.690       28.567      860.170
09/20/2014  15:47:00      138.504       82.412       33.874       77.678       62.082       53.544     6033.800     3854.113     2866.929        1.994        0.638      161.168       34.488        0.046      348.659       28.513      860.156
09/20/2014  15:48:00      208.958       85.214       25.080      125.553      107.024       67.633    15763.655    11454.190     4574.196        4.167        1.590      225.665       48.279        0.046      348.794       28.747      860.120
09/20/2014  15:49:00      200.849      122.458       85.245      107.408       91.258       90.279    11536.407     8327.983     8150.321        4.530        1.401      235.237       62.055        0.070      348.714       28.608      860.098
09/20/2014  15:50:00       87.794       78.728       51.592       82.440       70.334       61.708     6796.407     4946.858     3807.932        1.606        0.778      117.923       48.998        0.173      348.785       28.733      860.084
09/20/2014  15:51:00      113.341       69.531       34.329      109.413       89.173       58.979    11971.205     7951.838     3478.581        2.113        1.170      132.969       52.025        0.153      348.846       28.840      860.084
09/20/2014  15:52:00       41.107       30.739       54.649       76.020       83.657       51.453     5778.998     6998.558     2647.389        1.052        0.771       51.329       55.938        1.188      349.057       29.204      860.071
09/20/2014  15:53:00       95.890       94.792       87.757       84.373       69.754       48.825     7118.740     4865.580     2383.911        2.012        0.718      134.835       26.102        0.037      349.022       29.143      860.054
09/20/2014  15:54:00       96.713      106.612       99.271       86.067       80.876       62.726     7407.526     6540.875     3934.535        2.423        0.894      143.943       57.968        0.162      348.678       28.548      860.043
09/20/2014  15:55:00      172.476      101.415       84.028      138.905       94.958       75.559    19294.642     9017.003     5709.150        4.055        1.701      200.082       41.417        0.043      348.819       28.791      860.015
09/20/2014  15:56:00      186.766       74.029       73.488      202.422      107.007       86.148    40974.582    11450.460     7421.483        5.279        2.992      200.902       70.107        0.122      348.993       29.092      859.998
09/20/2014  15:57:00       64.386      108.505      151.817      138.681      104.646       76.684    19232.425    10950.721     5880.487        3.751        1.803      126.170       84.947        0.453      348.976       29.062      860.046
09/20/2014  15:58:00      157.995      109.984      139.228      126.859      123.036       96.228    16093.092    15137.767     9259.832        4.846        2.025      192.507       91.136        0.224      348.915       28.956      860.089
09/20/2014  15:59:00      194.566      119.017      114.342      124.470      110.607      107.423    15492.846    12233.817    11539.669        5.217        1.963      228.081       81.671        0.128      348.949       29.014      860.115
09/20/2014  16:00:00      132.434      121.699      123.398      122.385      101.542       97.009    14978.081    10310.836     9410.787        4.113        1.735      179.859       74.888        0.173      348.846       28.837      860.150
09/20/2014  16:01:00      198.914      100.323       71.866      131.529       91.386       74.898    17299.856     8351.339     5609.723        4.302        1.563      222.781       60.853        0.075      348.807       28.770      860.176
09/20/2014  16:02:00      137.601       49.729       55.782      104.773       66.472       66.603    10977.427     4418.469     4435.918        2.217        0.992      146.312       58.178        0.158      348.784       28.732      860.216
09/20/2014  16:03:00      143.578       75.937      100.571      112.453       88.035       60.776    12645.712     7750.085     3693.708        3.029        1.204      162.423       58.703        0.131      348.856       28.855      860.232
09/20/2014  16:04:00      115.624       83.971       75.604       98.564       86.406       68.638     9714.782     7465.922     4711.206        2.401        1.095      142.899       53.408        0.140      348.815       28.785      860.246
09/20/2014  16:05:00      204.184      114.992       89.770      149.227      110.397       79.999    22268.690    12187.458     6399.807        5.191        2.043      234.338       61.432        0.069      348.819       28.792      860.241
09/20/2014  16:06:00       83.518       40.178       78.906       87.281      105.264       57.476     7617.933    11080.479     3303.457        1.840        1.100       92.680       64.439        0.483      348.886       28.909      860.267
09/20/2014  16:07:00      184.802       10.018       58.936       90.857      134.665      101.439     8255.034    18134.696    10289.867        3.720        1.834      185.073       90.808        0.241      348.785       28.731      860.263
09/20/2014  16:08:00      141.837      125.779      112.037      131.858      102.079       89.180    17386.494    10420.191     7953.090        4.212        1.788      189.573       73.550        0.151      348.842       28.830      860.243
09/20/2014  16:09:00      117.142       85.790      124.664      113.817      110.117       80.972    12954.341    12125.842     6556.466        3.412        1.582      145.197       83.989        0.335      348.817       28.787      860.233
09/20/2014  16:10:00       77.799       40.006       61.290      115.190       87.464       62.868    13268.791     7649.940     3952.347        1.814        1.244       87.483       40.169        0.211      348.844       28.837      860.212
09/20/2014  16:11:00      130.200       60.678       59.282      122.053       91.950       82.023    14896.825     8454.722     6727.818        2.711        1.504      143.645       55.058        0.147      348.847       28.840      860.191
09/20/2014  16:12:00       62.910       47.742       54.923       64.264       55.970       47.389     4129.891     3132.692     2245.763        0.938        0.475       78.974       48.368        0.375      348.743       28.660      860.196
09/20/2014  16:13:00       39.108       12.615       38.047       51.515       46.168       36.845     2653.777     2131.445     1357.580        0.464        0.307       41.092       36.982        0.810      348.800       28.761      860.172
09/20/2014  16:14:00      115.325       42.059       31.264       64.245       61.454       40.932     4127.472     3776.641     1675.459        1.281        0.479      122.755       37.671        0.094      348.801       28.763      860.158
09/20/2014  16:15:00       49.177       13.072       29.649       63.656       69.834       30.125     4052.059     4876.767      907.502        0.665        0.492       50.885       30.294        0.354      348.878       28.897      860.146
09/20/2014  16:16:00       49.186       29.356       42.820       69.301       73.117       49.867     4802.621     5346.044     2486.727        0.887        0.632       57.280       53.211        0.863      348.922       28.971      860.156
09/20/2014  16:17:00       59.815       47.391       28.830       62.678       61.729       46.266     3928.470     3810.471     2140.569        0.827        0.494       76.313       40.338        0.279      348.851       28.847      860.156
09/20/2014  16:18:00       89.782       60.504       27.236       66.608       49.025       40.209     4436.682     2403.448     1616.759        1.046        0.423      108.266       31.239        0.083      348.820       28.795      860.141
09/20/2014  16:19:00       41.151      -50.572        4.611       59.624       85.897       41.617     3555.081     7378.324     1731.940        0.847        0.633       65.199       22.895        0.123      348.835       28.821      860.144
09/20/2014  16:20:00       99.663       71.080       42.725       56.260       51.403       51.801     3165.224     2642.310     2683.366        1.265        0.425      122.413       37.402        0.093      348.790       28.743      860.139
09/20/2014  16:21:00       35.778      -50.478       15.382       68.419       56.710       28.087     4681.134     3216.056      788.888        0.637        0.434       61.871       18.370        0.088      348.839       28.827      860.146
09/20/2014  16:22:00       55.659      -23.209       48.793       84.285       76.882       57.546     7103.978     5910.881     3311.547        1.117        0.816       60.305       54.027        0.803      348.865       28.874      860.125
09/20/2014  16:23:00       84.853       43.978       53.469       90.755       75.471       51.092     8236.506     5695.891     2610.388        1.426        0.827       95.573       44.793        0.220      348.853       28.852      860.105
09/20/2014  16:24:00      108.810       49.867       81.943       96.338       93.747       62.229     9281.000     8788.522     3872.436        2.149        1.097      119.692       65.711        0.301      348.829       28.809      860.103
09/20/2014  16:25:00      153.475       12.711       52.229       90.571       97.713       59.339     8203.188     9547.825     3521.094        2.385        1.064      154.001       50.396        0.107      348.779       28.721      860.093
09/20/2014  16:26:00       48.499       42.820       65.359       94.369       75.048       53.933     8905.416     5632.242     2908.801        1.295        0.872       64.697       44.593        0.475      348.944       29.009      860.076
09/20/2014  16:27:00       40.205       56.410       93.238       65.634       68.724       50.272     4307.783     4723.039     2527.317        1.252        0.578       69.271       42.265        0.372      348.911       28.952      860.063
09/20/2014  16:28:00      128.410       95.779       71.523       96.492       61.598       54.029     9310.634     3794.253     2919.181        2.340        0.801      160.197       36.393        0.052      348.907       28.943      860.056
09/20/2014  16:29:00      165.753      109.130       24.499      120.628       92.532       64.873    14551.117     8562.237     4208.454        3.365        1.366      198.453       39.936        0.040      348.936       28.992      860.048
09/20/2014  16:30:00      136.588      100.185       70.865       96.678       72.074       64.932     9346.642     5194.676     4216.123        2.623        0.938      169.391       51.656        0.093      348.947       29.012      860.048
09/20/2014  16:31:00       64.948       48.332       60.720       56.317       51.631       36.610     3171.645     2665.777     1340.261        0.871        0.359       80.958       38.679        0.228      348.767       28.704      860.039
09/20/2014  16:32:00      241.177      128.511       62.932      128.147       83.557       80.324    16421.637     6981.845     6451.892        5.424        1.493      273.279       72.569        0.071      348.954       29.024      860.031
09/20/2014  16:33:00       96.144      136.187      139.334       86.471      101.724       78.634     7477.283    10347.793     6183.323        3.560        1.200      166.705       79.216        0.226      348.846       28.837      860.035
09/20/2014  16:34:00       78.895       87.381       84.687       83.389       74.683       64.635     6953.763     5577.504     4177.634        1.887        0.835      117.727       44.772        0.145      348.861       28.864      860.031
09/20/2014  16:35:00      116.928       78.551       68.031       69.043       68.488       57.370     4766.908     4690.560     3291.313        1.861        0.637      140.863       33.618        0.057      348.764       28.698      860.029
09/20/2014  16:36:00      149.152      118.364      102.600      117.691       99.869       67.213    13851.261     9973.763     4517.523        3.756        1.417      190.411       59.335        0.097      348.845       28.836      860.025
09/20/2014  16:37:00      197.079       96.573       97.132      145.715      121.456       90.359    21232.978    14751.466     8164.770        5.087        2.207      219.468       82.491        0.141      348.806       28.769      860.008
09/20/2014  16:38:00      131.458       96.694      141.921      133.373      110.005       92.140    17788.308    12101.055     8489.752        4.257        1.919      163.189       65.263        0.160      348.836       28.818      860.008
09/20/2014  16:39:00      268.919      140.078       97.580      157.622      110.441       92.824    24844.850    12197.298     8616.313        7.355        2.283      303.215       75.353        0.062      348.842       28.830      859.998
09/20/2014  16:40:00      175.760      116.026       33.477      116.464       94.593       61.118    13563.966     8947.861     3735.468        3.586        1.312      210.603       36.285        0.030      348.819       28.791      860.009
09/20/2014  16:41:00      227.039      144.621      114.592      150.843       98.761      110.478    22753.720     9753.785    12205.361        6.514        2.236      269.188       99.663        0.137      348.802       28.759      860.002
09/20/2014  16:42:00      144.417      112.057       99.235      160.599      108.960       76.948    25792.110    11872.237     5920.982        4.341        2.179      182.792       56.350        0.095      348.825       28.802      860.002
09/20/2014  16:43:00      179.219      119.616       29.711      147.411      106.285       68.504    21729.958    11296.425     4692.830        4.251        1.886      215.470       51.747        0.058      348.777       28.719      860.001
09/20/2014  16:44:00      278.249      145.980       40.068      116.468       90.047       67.907    13564.863     8108.436     4611.411        6.331        1.314      314.218       53.191        0.029      348.776       28.715      859.985
09/20/2014  16:45:00      170.247      101.156       50.949      135.195       99.283       91.453    18277.823     9857.069     8363.704        3.915        1.825      198.032       57.703        0.085      348.792       28.746      859.959
09/20/2014  16:46:00       72.712      -70.654       16.207       57.078       66.391       43.533     3257.843     4407.755     1895.127        1.005        0.478      101.386       40.676        0.161      348.663       28.523      859.887
09/20/2014  16:47:00       61.998       38.861      113.822       84.065      132.902       93.107     7066.874    17663.034     8668.943        2.585        1.670       73.170       98.032        1.795      348.759       28.687      859.911
09/20/2014  16:48:00       94.686      116.777      150.339      132.783       98.650       62.631    17631.365     9731.735     3922.665        3.824        1.564      150.341       51.792        0.119      348.795       28.750      859.988
09/20/2014  16:49:00      162.408      140.179      155.859      128.708      117.397       93.831    16565.834    13782.062     8804.228        5.473        1.958      214.538       74.207        0.120      348.751       28.672      860.027
09/20/2014  16:50:00      225.719      113.330       86.125      172.640      141.989      125.183    29804.565    20160.889    15670.726        6.841        3.282      252.573       94.094        0.139      348.599       28.410      860.027
09/20/2014  16:51:00      255.525      174.017      183.146      170.722      122.166      112.789    29146.022    14924.414    12721.347        9.294        2.840      309.152       99.454        0.103      348.553       28.330      860.031
09/20/2014  16:52:00      179.224      111.404       50.897      108.829       92.467       71.500    11843.767     8550.077     5112.228        3.631        1.275      211.026       51.678        0.060      348.580       28.376      860.026
09/20/2014  16:53:00      246.243      150.964       38.408      141.120       95.008       81.118    19914.935     9026.552     6580.201        6.020        1.776      288.835       35.465        0.015      348.547       28.319      860.039
09/20/2014  16:54:00      130.022      108.931       97.201      120.206      105.870       84.071    14449.444    11208.352     7067.865        3.547        1.636      169.622       69.015        0.166      348.499       28.239      860.014
09/20/2014  16:55:00      430.170      322.249       52.170      184.054      173.585      122.072    33875.977    30131.902    14901.674       18.525        3.945      537.485       56.499        0.011      348.455       28.160      859.997
09/20/2014  16:56:00      266.379      162.789       52.703      190.190      141.783      122.208    36172.244    20102.502    14934.802        8.571        3.560      312.182       92.531        0.088      348.478       28.200      859.955
09/20/2014  16:57:00      251.098      130.224       57.470      136.208      119.882       87.527    18552.497    14371.599     7660.989        6.194        2.029      282.858       57.488        0.041      348.522       28.276      859.999
09/20/2014  16:58:00      320.947      167.790       41.354      173.964      127.533       99.724    30263.620    16264.778     9944.847        9.466        2.824      362.161       82.476        0.052      348.517       28.268      860.012
09/20/2014  16:59:00      295.942      125.000       68.733      152.984      141.612       90.684    23404.246    20053.953     8223.601        7.980        2.584      321.258       63.573        0.039      348.551       28.327      860.045
09/20/2014  17:00:00      193.424      159.938      153.010      178.905      142.960      106.113    32007.128    20437.527    11260.045        7.504        3.185      250.984       79.338        0.100      348.483       28.209      860.010
09/20/2014  17:01:00      180.189      149.848       99.281      160.288      121.218      118.409    25692.259    14693.748    14020.695        5.958        2.720      234.356      108.199        0.213      348.495       28.231      859.998
09/20/2014  17:02:00      303.121      137.615       29.770      146.411      130.988       72.693    21436.216    17157.858     5284.306        7.778        2.194      332.896       43.540        0.017      348.478       28.202      860.017
09/20/2014  17:03:00      296.640      201.271       71.207      166.349      116.956       99.114    27671.855    13678.629     9823.508        9.236        2.559      358.476       55.218        0.024      348.418       28.097      859.996
09/20/2014  17:04:00      464.275      274.501       83.658      161.865      147.107      117.113    26200.199    21640.331    13715.564       17.972        3.078      539.353       48.439        0.008      348.372       28.015      859.994
09/20/2014  17:05:00      334.969      143.026       59.595      197.410      145.510       89.548    38970.766    21173.041     8018.807       10.217        3.408      364.226       49.466        0.018      348.370       28.012      859.991
09/20/2014  17:06:00      249.301      131.500       36.548      109.961       90.680       94.852    12091.321     8222.902     8996.826        5.504        1.466      281.857       68.010        0.058      348.374       28.018      860.020
09/20/2014  17:07:00      292.691       95.269       90.243      208.302      162.764      136.222    43389.806    26492.270    18556.470        9.565        4.422      307.805       84.499        0.075      348.389       28.046      860.017
09/20/2014  17:08:00      309.802      198.363      134.158      154.304      135.367      101.034    23809.657    18324.303    10207.880       10.282        2.617      367.866       64.912        0.031      348.385       28.036      860.008
09/20/2014  17:09:00      329.782      162.702       97.216      202.872      122.535       99.209    41157.209    15014.706     9842.360       10.533        3.301      367.734       90.926        0.061      348.389       28.046      860.042
09/20/2014  17:10:00      326.610      123.513       56.170      157.463      112.929      101.238    24794.533    12752.901    10249.081        8.643        2.390      349.184       84.230        0.058      348.362       28.000      860.059
09/20/2014  17:11:00      268.265      105.064       32.363      129.428      117.184       75.354    16751.720    13732.129     5678.275        6.010        1.808      288.105       52.378        0.033      348.356       27.990      860.046
09/20/2014  17:12:00      193.543      114.827       46.936      137.149       94.636       77.449    18809.811     8955.994     5998.294        4.330        1.688      225.042       65.670        0.085      348.354       27.987      860.031
09/20/2014  17:13:00      164.490       88.146       39.682      100.856       63.008       63.902    10171.883     3970.063     4083.419        2.731        0.911      186.618       52.141        0.078      348.367       28.009      860.031
09/20/2014  17:14:00      151.781      107.153       67.887       92.670       70.716       64.989     8587.753     5000.746     4223.588        2.847        0.891      185.794       44.285        0.057      348.365       28.006      860.014
09/20/2014  17:15:00      133.523       85.762       59.785       72.929       68.134       63.341     5318.673     4642.183     4012.053        2.136        0.699      158.693       42.564        0.072      348.358       27.994      860.000
09/20/2014  17:16:00      148.631      132.502      113.960      122.436       94.006       79.896    14990.507     8837.139     6383.303        4.142        1.511      199.118       67.257        0.114      348.361       27.996      859.969
09/20/2014  17:17:00      204.529      162.659      142.694      128.240      114.759       92.565    16445.464    13169.521     8568.361        6.341        1.909      261.323       57.934        0.049      348.373       28.018      859.930
09/20/2014  17:18:00      119.864       -4.728       85.704      112.974      135.874       73.119    12763.172    18461.848     5346.425        2.915        1.829      119.957       69.975        0.340      348.381       28.033      859.923
09/20/2014  17:19:00       81.950       65.016      115.245      103.900      120.333       71.651    10795.231    14480.049     5133.904        2.731        1.520      104.609       71.163        0.463      348.351       27.982      859.898
09/20/2014  17:20:00      165.858       60.342      109.524      131.206      104.685       78.464    17215.142    10958.949     6156.538        3.873        1.717      176.494       56.718        0.103      348.285       27.866      859.876
09/20/2014  17:21:00      215.279      167.504      138.719      152.812      121.512      105.804    23351.448    14765.084    11194.567        7.147        2.466      272.768       92.893        0.116      348.324       27.933      859.855
09/20/2014  17:22:00      239.321      108.084      133.385      126.550      101.657       79.019    16014.813    10334.059     6243.957        5.966        1.630      262.596       69.509        0.070      348.255       27.814      859.828
09/20/2014  17:23:00      189.116      132.683      112.832      119.159       86.944       86.452    14198.865     7559.327     7473.888        4.766        1.462      231.019       67.532        0.085      348.212       27.739      859.811
09/20/2014  17:24:00      207.424      142.236      129.265      152.216      107.755       95.410    23169.852    11611.089     9103.115        6.192        2.194      251.507       95.856        0.145      348.280       27.857      859.795
09/20/2014  17:25:00       76.425       57.524      123.244      136.749      140.891       99.680    18700.384    19850.402     9936.057        3.640        2.424       95.654      110.639        1.338      348.321       27.929      859.765
09/20/2014  17:26:00      151.444      -23.004       78.385      142.360      120.849       75.018    20266.486    14604.585     5627.736        3.505        2.025      153.182       73.335        0.229      348.320       27.928      859.731
09/20/2014  17:27:00      121.863      -38.572       31.295       85.041       99.209       54.920     7231.968     9842.416     3016.177        1.870        1.005      127.822       39.463        0.095      348.287       27.869      859.726
09/20/2014  17:28:00      161.768      147.995      120.658       96.021       84.856       75.081     9219.996     7200.483     5637.154        4.234        1.103      219.252       56.112        0.065      348.304       27.899      859.721
09/20/2014  17:29:00       74.529       31.194       58.640       87.296       67.480       41.971     7620.621     4553.516     1761.568        1.195        0.697       80.794       30.631        0.144      348.303       27.899      859.732
09/20/2014  17:30:00      123.259      -49.856       44.848      101.688       88.981       65.427    10340.502     7917.616     4280.744        2.111        1.127      132.960       48.018        0.130      348.337       27.958      859.726
09/20/2014  17:31:00       84.069      -26.160       49.036       74.706       75.620       54.903     5580.974     5718.342     3014.313        1.223        0.716       88.045       54.585        0.384      348.162       27.657      859.718
09/20/2014  17:32:00      159.027     -149.038       20.322      110.325      170.960       80.650    12171.563    29227.458     6504.469        4.790        2.395      217.949      107.556        0.244      348.273       27.844      859.699
09/20/2014  17:33:00       65.384       27.899      103.988       91.772      123.675       71.900     8422.100    15295.544     5169.639        2.237        1.444       71.088       91.169        1.645      348.275       27.852      859.694
09/20/2014  17:34:00      120.816      -23.060       81.555      111.390      134.541       81.030    12407.799    18101.162     6565.871        2.942        1.854      122.997       87.409        0.505      348.299       27.892      859.693
09/20/2014  17:35:00      173.572     -163.388       -6.508      104.631      127.002       55.047    10947.731    16129.458     3030.196        4.348        1.505      238.376       50.689        0.045      348.367       28.008      859.679
09/20/2014  17:36:00       89.553      -47.542       15.964       80.777       60.069       47.837     6524.967     3608.240     2288.425        1.148        0.621      101.390       51.237        0.255      348.282       27.866      859.692
09/20/2014  17:37:00      130.942       42.795       76.662      112.193       90.382       72.755    12587.228     8168.887     5293.341        2.545        1.302      137.758       46.947        0.116      348.219       27.754      859.688
09/20/2014  17:38:00       53.285       -0.545       71.193      101.498       73.007       50.287    10301.815     5329.994     2528.771        1.303        0.908       53.287       60.236        1.278      348.179       27.685      859.703
09/20/2014  17:39:00      159.954      -56.330       40.455      117.958      113.586       69.325    13914.037    12901.735     4805.896        3.100        1.581      169.583       81.878        0.233      348.177       27.681      859.706
09/20/2014  17:40:00      162.853       57.503      114.240      124.377      130.420       85.088    15469.728    17009.378     7239.889        4.129        1.986      172.707       81.755        0.224      348.227       27.765      859.726
09/20/2014  17:41:00      138.074     -108.208       22.568      105.280      102.657       73.315    11083.857    10538.437     5375.026        2.913        1.350      175.423       76.013        0.188      348.233       27.775      859.741
09/20/2014  17:42:00       53.268       45.634       74.522       69.076       78.922       48.811     4771.474     6228.630     2382.535        1.193        0.669       70.142       23.826        0.115      348.232       27.777      859.762
09/20/2014  17:43:00      186.636      -68.195       29.804      122.934      111.352       67.205    15112.797    12399.272     4516.508        3.619        1.601      198.705       66.551        0.112      348.237       27.783      859.790
09/20/2014  17:44:00       78.915       66.627       82.878       87.023      116.835       83.554     7572.963    13650.353     6981.192        2.286        1.410      103.280       87.534        0.718      348.234       27.779      859.807
09/20/2014  17:45:00       64.283       61.797      109.981       71.044       71.327       61.206     5047.230     5087.578     3746.201        1.696        0.694       89.169       55.457        0.387      348.196       27.714      859.847
09/20/2014  17:46:00       54.904       18.912       87.294       83.380       79.499       53.649     6952.151     6320.015     2878.246        1.357        0.808       58.070       58.685        1.021      348.166       27.662      859.869
09/20/2014  17:47:00       61.393       66.766       98.129       74.678       86.179       48.270     5576.864     7426.829     2330.009        1.659        0.767       90.701       49.763        0.301      348.188       27.700      859.903
09/20/2014  17:48:00       33.222       42.645       73.510       46.882       66.997       38.390     2197.915     4488.543     1473.783        0.824        0.408       54.059       29.621        0.300      348.125       27.593      859.936
09/20/2014  17:49:00       47.321       31.740       78.453       64.649       92.229       64.325     4179.499     8506.099     4137.706        1.311        0.841       56.979       69.185        1.474      348.182       27.692      859.967
09/20/2014  17:50:00       75.891       83.065       92.567      110.034       81.003       58.296    12107.471     6561.557     3398.394        2.164        1.103      112.513       47.726        0.180      348.233       27.779      859.997
09/20/2014  17:51:00       96.545       28.120       59.411       89.221       86.179       56.043     7960.423     7426.798     3140.868        1.608        0.926      100.557       23.896        0.056      348.219       27.754      860.021
09/20/2014  17:52:00      110.313       12.025       61.123       92.894       81.342       57.415     8629.264     6616.459     3296.440        1.729        0.927      110.967       45.750        0.170      348.130       27.600      860.055
09/20/2014  17:53:00       96.526       84.661       89.990       85.705       61.024       46.259     7345.432     3723.947     2139.860        1.889        0.660      128.393       29.554        0.053      348.218       27.751      860.072
09/20/2014  17:54:00       51.021      -39.410       48.205       50.231       91.467       43.521     2523.147     8366.192     1894.064        0.963        0.639       64.469       50.336        0.610      348.108       27.563      860.086
09/20/2014  17:55:00       91.570       18.515       52.645       65.142       54.556       43.274     4243.494     2976.351     1872.667        1.029        0.455       93.423       35.073        0.141      348.138       27.616      860.105
09/20/2014  17:56:00       59.285       54.521       68.228       60.408       51.167       40.359     3649.128     2618.108     1628.889        0.952        0.395       80.543       34.457        0.183      348.215       27.747      860.129
09/20/2014  17:57:00        9.180       32.021       42.308       34.701       33.686       25.242     1204.177     1134.720      637.171        0.294        0.149       33.310       11.954        0.129      348.155       27.644      860.139
09/20/2014  17:58:00       56.632       34.831       47.446       48.092       59.978       35.869     2312.880     3597.310     1286.571        0.693        0.360       66.486       30.016        0.204      348.125       27.592      860.165
09/20/2014  17:59:00      108.445       65.800       59.685       62.573       46.689       51.508     3915.362     2179.866     2653.025        1.420        0.437      126.846       26.138        0.042      348.176       27.680      860.165
09/20/2014  18:00:00       65.566      -26.838       23.264       54.979       60.320       43.182     3022.665     3638.475     1864.668        0.704        0.426       70.846       37.189        0.276      348.154       27.643      860.161
09/20/2014  18:01:00       92.372       52.461       61.401       56.192       60.274       37.209     3157.564     3633.006     1384.501        1.161        0.409      106.230       20.805        0.038      348.262       27.828      860.149
09/20/2014  18:02:00      100.731      -16.248       49.570       80.068       89.076       49.953     6410.805     7934.621     2495.293        1.485        0.842      102.033       42.397        0.173      348.215       27.748      860.136
09/20/2014  18:03:00       81.364       60.087       50.855       70.386       52.273       51.763     4954.246     2732.438     2679.444        1.159        0.518      101.147       28.557        0.080      348.275       27.851      860.131
09/20/2014  18:04:00       75.833       56.369       58.366       65.429       74.038       58.408     4280.916     5481.581     3411.467        1.275        0.659       94.489       42.952        0.207      348.235       27.782      860.138
09/20/2014  18:05:00      117.816       48.853       47.271       75.956       70.620       41.816     5769.312     4987.238     1748.558        1.550        0.625      127.543       28.322        0.049      348.279       27.857      860.135
09/20/2014  18:06:00      131.756       63.041       79.012      130.540       81.688       72.825    17040.782     6672.962     5303.549        2.829        1.451      146.061       63.461        0.189      348.232       27.775      860.122
09/20/2014  18:07:00       49.994       93.245       73.334       56.590       42.920       46.657     3202.404     1842.155     2176.860        1.190        0.361      105.801       43.382        0.168      348.189       27.704      860.138
09/20/2014  18:08:00       74.808       73.540       64.260       88.746       65.006       40.508     7875.929     4225.776     1640.897        1.444        0.687      104.902       38.894        0.137      348.264       27.832      860.140
09/20/2014  18:09:00       77.068       22.930       30.036       73.415       57.844       37.712     5389.702     3345.941     1422.219        0.876        0.508       80.407       33.726        0.176      348.159       27.652      860.140
09/20/2014  18:10:00       63.310       27.615       51.633       80.426       56.135       49.078     6468.286     3151.142     2408.635        0.973        0.601       69.070       44.016        0.406      348.178       27.684      860.139
09/20/2014  18:11:00       77.355       57.337       44.675       56.828       42.736       39.521     3229.399     1826.402     1561.949        0.894        0.331       96.288       29.357        0.093      348.138       27.616      860.142
09/20/2014  18:12:00       31.981      -44.607       21.050       36.572       39.210       38.749     1337.495     1537.392     1501.466        0.392        0.219       54.886       27.659        0.254      348.061       27.481      860.122
09/20/2014  18:13:00       50.675      -10.444       17.126       88.466       40.176       30.706     7826.254     1614.112      942.876        0.667        0.519       51.740       28.770        0.309      348.181       27.690      860.104
09/20/2014  18:14:00       98.390      -68.418       28.055       88.831      100.638       50.505     7890.920    10127.928     2550.714        1.785        1.028      119.840       54.397        0.206      348.151       27.637      860.082
09/20/2014  18:15:00      140.329      -97.140       16.142       84.064       93.424       44.463     7066.807     8728.035     1976.985        2.358        0.889      170.670       54.230        0.101      348.226       27.765      860.057
09/20/2014  18:16:00      113.779     -159.085        0.614       68.394       95.478       51.178     4677.673     9116.087     2619.237        2.733        0.821      195.585       59.774        0.093      348.259       27.821      860.038
09/20/2014  18:17:00       55.031      -36.466       45.201       63.384      115.779       54.347     4017.588    13404.702     2953.633        1.338        1.019       66.016       67.300        1.039      348.101       27.551      860.026
09/20/2014  18:18:00       66.317      -35.355       21.269       61.274       52.565       44.324     3754.521     2763.034     1964.650        0.729        0.424       75.153       39.226        0.272      348.118       27.582      860.018
09/20/2014  18:19:00       77.812       52.512       80.410       58.639       95.779       48.121     3438.509     9173.667     2315.662        1.510        0.746       93.873       50.998        0.295      348.135       27.609      860.010
09/20/2014  18:20:00       93.354      -66.010       26.041       55.651       88.566       41.343     3096.988     7843.998     1709.267        1.320        0.633      114.334       47.106        0.170      348.139       27.615      860.010
09/20/2014  18:21:00      101.772     -142.471       -3.025       66.059       96.538       45.276     4363.789     9319.603     2049.872        2.320        0.787      175.087       53.367        0.093      348.164       27.657      859.993
09/20/2014  18:22:00       69.617      -54.124       19.249       60.674      110.056       52.927     3681.311    12112.427     2801.289        1.337        0.930       88.181       64.175        0.530      348.118       27.580      859.985
09/20/2014  18:23:00       29.834        2.171       65.775       61.078       77.711       54.355     3730.470     6038.948     2954.499        0.897        0.636       29.913       51.195        2.929      348.083       27.521      859.992
09/20/2014  18:24:00      143.144       29.234      105.035      125.663      125.302       83.804    15791.180    15700.657     7023.131        3.544        1.926      146.099       93.883        0.413      348.149       27.631      859.973
09/20/2014  18:25:00       90.986       27.295       48.867       94.930      105.039       70.707     9011.715    11033.196     4999.549        1.822        1.252       94.992       63.532        0.447      348.180       27.686      859.955
09/20/2014  18:26:00      164.651      -26.411       61.095      112.935       85.701       78.738    12754.391     7344.738     6199.596        2.891        1.315      166.756       72.959        0.191      348.197       27.715      859.946
09/20/2014  18:27:00      188.869      122.573       85.537      114.857       60.503       67.327    13192.209     3660.603     4532.938        3.969        1.069      225.157       51.958        0.053      348.180       27.685      859.963
09/20/2014  18:28:00      140.513       82.870       79.195       74.793       69.431       62.352     5593.987     4820.643     3887.733        2.359        0.715      163.130       43.648        0.072      348.131       27.600      859.966
09/20/2014  18:29:00      100.760       72.893      108.065      114.389       86.202       81.846    13084.740     7430.757     6698.796        2.717        1.361      124.362       61.662        0.246      348.097       27.543      859.969
09/20/2014  18:30:00      227.268      123.690       63.222       91.494       59.993       58.179     8371.144     3599.119     3384.783        4.315        0.768      258.747       45.544        0.031      348.151       27.634      859.971
09/20/2014  18:31:00      187.259       76.580       17.860      117.402       77.201       57.500    13783.207     5959.945     3306.223        3.214        1.152      202.312       49.462        0.060      348.127       27.594      859.975
09/20/2014  18:32:00      108.491       20.289       22.043       84.684       53.404       43.033     7171.419     2851.963     1851.844        1.227        0.594      110.372       39.719        0.130      348.017       27.404      859.977
09/20/2014  18:33:00       88.170       24.843       17.156       70.176       76.957       42.715     4924.673     5922.441     1824.606        1.068        0.634       91.603       32.990        0.130      347.901       27.206      859.982
09/20/2014  18:34:00       86.973       53.885       22.583       68.780       45.101       43.135     4730.628     2034.058     1860.630        0.980        0.431      102.313       39.285        0.147      347.903       27.210      860.000
09/20/2014  18:35:00      177.553      120.153       58.618      121.020       86.835       71.065    14645.843     7540.253     5050.235        3.831        1.362      214.387       54.502        0.065      347.977       27.334      860.005
09/20/2014  18:36:00      274.289      117.075       53.906      131.582      110.249       98.466    17313.779    12154.868     9695.467        6.550        1.958      298.229       61.835        0.043      348.001       27.376      860.010
09/20/2014  18:37:00      177.706      123.488       83.630      101.747       98.772       72.714    10352.518     9755.828     5287.287        3.960        1.270      216.399       59.745        0.076      347.933       27.258      860.015
09/20/2014  18:38:00      216.038      102.973       88.369      150.136      107.082       98.104    22540.738    11466.514     9624.415        5.435        2.182      239.323       91.288        0.145      347.959       27.304      860.024
09/20/2014  18:39:00      189.540       98.639       77.601      119.587       83.034       66.312    14301.136     6894.605     4397.257        3.863        1.280      213.671       56.224        0.069      347.943       27.275      860.033
09/20/2014  18:40:00      252.161       99.092       48.039      113.135       93.200       88.205    12799.512     8686.172     7780.167        5.248        1.463      270.932       57.875        0.046      347.953       27.293      860.033
09/20/2014  18:41:00      141.023       78.306       47.786       95.246       91.999       67.009     9071.727     8463.809     4490.218        2.516        1.101      161.305       49.368        0.094      347.877       27.164      860.057
09/20/2014  18:42:00      120.402       91.248       63.698       94.781       99.165       63.137     8983.377     9833.642     3986.285        2.484        1.140      151.073       37.980        0.063      347.844       27.105      860.063
09/20/2014  18:43:00      196.541      150.129       73.063       94.940       96.338       75.279     9013.559     9281.031     5666.995        4.523        1.198      247.320       41.125        0.028      347.934       27.260      860.056
09/20/2014  18:44:00      117.122       97.472       88.370       98.101       84.141       69.408     9623.714     7079.693     4817.470        2.627        1.076      152.376       63.904        0.176      347.835       27.089      860.078
09/20/2014  18:45:00      112.646       88.169       60.060       85.969       60.981       54.391     7390.644     3718.622     2958.358        1.907        0.703      143.049       36.305        0.064      347.758       26.960      860.104
09/20/2014  18:46:00      167.866      102.161       56.733       89.233       77.872       61.850     7962.512     6064.074     3825.467        2.984        0.893      196.509       47.633        0.059      347.749       26.940      860.119
09/20/2014  18:47:00      167.150      118.565       69.488       61.999       54.754       48.628     3843.818     2997.958     2364.728        2.801        0.460      204.931       40.288        0.039      347.848       27.112      860.119
09/20/2014  18:48:00      155.289       78.375       48.954       78.032       63.235       46.843     6089.003     3998.724     2194.228        2.247        0.614      173.947       36.191        0.043      347.775       26.987      860.118
09/20/2014  18:49:00      141.016       72.899       29.827       66.535       55.036       56.325     4426.901     3028.958     3172.490        1.836        0.531      158.745       29.661        0.035      347.728       26.906      860.104
09/20/2014  18:50:00      161.062       56.770       18.173       72.637       58.520       37.886     5276.189     3424.619     1435.318        1.981        0.507      170.774       25.510        0.022      347.739       26.923      860.097
09/20/2014  18:51:00      163.825       70.380       41.712       66.196       52.188       44.720     4381.874     2723.590     1999.860        2.132        0.455      178.303       34.380        0.037      347.737       26.921      860.079
09/20/2014  18:52:00      122.417       85.649       31.064      115.247       68.976       52.458    13281.814     4757.705     2751.860        2.203        1.040      149.404       35.818        0.057      347.693       26.846      860.055
09/20/2014  18:53:00      234.139      118.793       39.091       75.125      101.690       76.205     5643.772    10340.834     5807.176        4.612        1.090      262.551       41.775        0.025      347.728       26.903      860.034
09/20/2014  18:54:00      241.636      133.805       65.887      143.989      104.112       79.249    20732.864    10839.293     6280.382        5.924        1.893      276.209       56.149        0.041      347.738       26.920      860.010
09/20/2014  18:55:00      199.919      177.003       75.484      147.167      106.027       86.096    21658.121    11241.638     7412.603        5.865        2.016      267.016       69.030        0.067      347.731       26.909      859.997
09/20/2014  18:56:00      214.674      105.171       55.848       94.202       89.695       56.786     8873.930     8045.239     3224.595        4.020        1.007      239.052       38.115        0.025      347.710       26.873      860.002
09/20/2014  18:57:00      219.613      141.781       65.321      120.751       92.503       77.164    14580.766     8556.780     5954.237        5.084        1.455      261.403       44.835        0.029      347.769       26.976      859.971
09/20/2014  18:58:00      261.115      156.447       29.946       90.471       67.682       52.749     8184.974     4580.839     2782.485        5.455        0.777      304.396       29.840        0.010      347.778       26.988      859.963
09/20/2014  18:59:00      138.870      106.698       61.500       80.158       64.247       56.007     6425.280     4127.629     3136.782        2.407        0.684      175.127       43.878        0.063      347.756       26.953      859.964
09/20/2014  19:00:00       72.417       35.464       43.007       79.351       55.288       40.006     6296.594     3056.740     1600.495        0.965        0.548       80.635       37.179        0.213      347.582       26.655      859.955
09/20/2014  19:01:00      125.230       72.424       24.716       47.538       55.090       33.534     2259.866     3034.866     1124.498        1.398        0.321      144.664       14.066        0.009      347.561       26.619      859.957
09/20/2014  19:02:00      103.779      111.208       63.440       93.634       67.628       59.012     8767.398     4573.506     3482.440        2.199        0.841      152.109       47.704        0.098      347.615       26.712      859.947
09/20/2014  19:03:00      151.960       62.227        3.877      102.529       62.026       55.223    10512.097     3847.279     3049.600        2.219        0.870      164.207       39.149        0.057      347.647       26.766      859.927
09/20/2014  19:04:00      120.679       58.592       39.855       95.771       53.699       39.711     9171.992     2883.590     1576.962        1.661        0.682      134.151       33.849        0.064      347.505       26.521      859.921
09/20/2014  19:05:00      127.893       29.287       32.923       67.885       75.755       34.525     4608.364     5738.853     1191.979        1.492        0.577      131.203       29.652        0.051      347.504       26.521      859.921
09/20/2014  19:06:00       76.098       37.637       16.279       66.810       44.605       39.728     4463.638     1989.624     1578.275        0.775        0.402       84.896       31.441        0.137      347.438       26.408      859.919
09/20/2014  19:07:00      113.022       52.187        8.221       52.524       43.539       30.888     2758.747     1895.617      954.040        1.059        0.280      124.489       22.265        0.032      347.529       26.565      859.916
09/20/2014  19:08:00       83.024       44.697       17.855       59.943       45.520       30.912     3593.129     2072.048      955.550        0.791        0.331       94.291       11.095        0.014      347.458       26.441      859.923
09/20/2014  19:09:00      132.129       67.052        4.582       52.012       45.898       32.253     2705.234     2106.630     1040.264        1.391        0.293      148.169       17.822        0.014      347.522       26.551      859.909
09/20/2014  19:10:00      128.946       57.746       12.934       65.976       51.329       38.504     4352.846     2634.651     1482.529        1.430        0.424      141.286       17.335        0.015      347.517       26.543      859.899
09/20/2014  19:11:00      106.644       56.212        8.939       44.563       35.213       39.273     1985.827     1239.963     1542.331        0.969        0.238      120.552       13.755        0.013      347.437       26.404      859.886
09/20/2014  19:12:00      150.830       94.164       23.349       45.213       39.413       33.665     2044.173     1553.355     1133.358        1.845        0.237      177.811       17.698        0.010      347.476       26.472      859.862
09/20/2014  19:13:00      158.896      111.248       16.230       88.780       68.040       58.368     7881.841     4629.388     3406.774        2.690        0.796      193.969       49.171        0.064      347.495       26.504      859.853
09/20/2014  19:14:00      178.407       70.151       31.088       95.862       70.301       44.008     9189.508     4942.275     1936.698        2.689        0.803      191.704       22.444        0.014      347.437       26.403      859.839
09/20/2014  19:15:00      164.302      106.156       22.428       53.809       37.708       38.606     2895.436     1421.882     1490.414        2.229        0.290      195.612       21.738        0.012      347.408       26.354      859.842
09/20/2014  19:16:00      140.324       91.877       26.011       55.670       58.042       53.844     3099.103     3368.864     2899.179        1.909        0.468      167.726       27.200        0.026      347.418       26.371      859.844
09/20/2014  19:17:00      165.226      100.368       36.278       65.107       44.481       36.791     4238.879     1978.566     1353.564        2.313        0.379      193.322       27.354        0.020      347.419       26.372      859.845
09/20/2014  19:18:00      144.719       85.710       28.915       63.870       41.938       45.540     4079.395     1758.800     2073.862        1.852        0.396      168.196       29.339        0.030      347.430       26.392      859.849
09/20/2014  19:19:00      108.075       91.381       13.809       67.865       46.300       45.174     4605.592     2143.733     2040.720        1.450        0.440      141.530       34.451        0.059      347.408       26.354      859.863
09/20/2014  19:20:00      130.540       85.277       20.166       50.220       42.624       32.944     2522.049     1816.825     1085.300        1.507        0.271      155.926       15.306        0.010      347.366       26.282      859.877
09/20/2014  19:21:00      188.722      143.404       30.825       77.968       51.283       51.390     6078.993     2629.902     2640.920        3.424        0.567      237.024       25.202        0.011      347.453       26.430      859.885
09/20/2014  19:22:00      129.888       87.113       18.213       69.209       63.656       46.254     4789.902     4052.113     2139.412        1.788        0.549      156.395       30.331        0.038      347.363       26.277      859.918
09/20/2014  19:23:00      142.574       93.657       26.108       44.980       32.812       36.752     2023.210     1076.609     1350.687        1.711        0.223      170.584       19.163        0.013      347.353       26.261      859.949
09/20/2014  19:24:00      122.603       77.254       26.426       46.612       45.112       27.587     2172.694     2035.132      761.065        1.333        0.248      144.913       21.744        0.023      347.291       26.154      859.972
09/20/2014  19:25:00      111.036       61.434       23.484       37.630       29.532       31.191     1416.045      872.148      972.887        0.996        0.163      126.898       15.777        0.015      347.288       26.148      860.003
09/20/2014  19:26:00      117.298       68.522       19.736       53.529       51.207       33.909     2865.375     2622.107     1149.839        1.274        0.332      135.846       19.266        0.020      347.304       26.175      860.042
09/20/2014  19:27:00      182.734      108.743       24.949      104.233       70.488       60.776    10864.622     4968.514     3693.783        3.268        0.976      212.643       38.014        0.032      347.343       26.240      860.051
09/20/2014  19:28:00      124.211       61.104       30.280       39.804       33.494       36.654     1584.381     1121.830     1343.497        1.206        0.202      138.427       25.336        0.033      347.268       26.114      860.094
09/20/2014  19:29:00      149.514       94.161       11.651       40.859       40.610       32.344     1669.420     1649.149     1046.113        1.786        0.218      176.694       14.554        0.007      347.274       26.122      860.120
09/20/2014  19:30:00      106.617       63.747       37.595       90.685       60.011       39.133     8223.773     3601.274     1531.387        1.510        0.668      124.221       16.544        0.018      347.255       26.091      860.144
09/20/2014  19:31:00      195.619      119.795       11.504       79.648       56.637       47.910     6343.755     3207.739     2295.353        3.230        0.592      229.386       12.797        0.003      347.312       26.186      860.171
09/20/2014  19:32:00      185.843      118.107       45.948       52.901       55.882       44.376     2798.532     3122.789     1969.263        2.924        0.395      220.197       23.689        0.012      347.291       26.150      860.221
09/20/2014  19:33:00      189.678       86.077       27.455       68.126       52.606       44.415     4641.102     2767.375     1972.667        2.676        0.469      208.296       27.496        0.017      347.210       26.010      860.255
09/20/2014  19:34:00      170.565      104.298       46.585       83.007       71.973       58.608     6890.144     5180.177     3434.913        2.882        0.775      199.926       37.050        0.034      347.297       26.161      860.282
09/20/2014  19:35:00      236.186      154.857       27.804       63.388       62.916       53.018     4018.029     3958.458     2810.937        4.566        0.539      282.426       30.052        0.011      347.365       26.277      860.315
09/20/2014  19:36:00      158.220       72.698       22.865       65.750       54.743       43.379     4323.027     2996.743     1881.705        2.002        0.460      174.122       26.029        0.022      347.269       26.115      860.338
09/20/2014  19:37:00       88.144       39.147       10.789       75.283       60.099       46.025     5667.531     3611.931     2118.340        1.041        0.570       96.446       16.729        0.030      347.218       26.026      860.352
09/20/2014  19:38:00      169.230       91.852       31.712       74.147       62.222       38.226     5497.776     3871.611     1461.244        2.445        0.542      192.550       18.504        0.009      347.257       26.092      860.376
09/20/2014  19:39:00      131.907       88.562       38.179       72.143       51.460       45.189     5204.550     2648.144     2042.067        1.830        0.495      158.879       33.908        0.046      347.220       26.029      860.381
09/20/2014  19:40:00      121.206       75.731       14.108       59.784       50.366       44.679     3574.124     2536.719     1996.249        1.436        0.405      142.920       15.915        0.012      347.164       25.934      860.385
09/20/2014  19:41:00      189.608      118.980       34.669       99.156       63.462       64.699     9831.867     4027.452     4185.979        3.467        0.902      223.847       32.093        0.021      347.230       26.045      860.401
09/20/2014  19:42:00      111.254       62.114        9.456       75.359       52.804       42.882     5678.933     2788.212     1838.878        1.331        0.515      127.419       31.563        0.061      347.210       26.012      860.409
09/20/2014  19:43:00      171.107      108.965       11.828       89.716       69.061       55.555     8049.036     4769.447     3086.381        2.859        0.795      202.857       28.779        0.020      347.254       26.088      860.418
09/20/2014  19:44:00      189.831      115.245       27.952       93.042       70.071       43.015     8656.833     4909.897     1850.270        3.275        0.771      222.075       34.387        0.024      347.221       26.031      860.441
09/20/2014  19:45:00      186.885      151.027        0.950       84.335       76.639       62.134     7112.309     5873.558     3860.584        3.729        0.842      240.282       41.883        0.030      347.235       26.053      860.473
09/20/2014  19:46:00      175.714      136.242       27.454      120.962       74.125       42.148    14631.889     5494.526     1776.432        3.604        1.095      222.345       41.989        0.036      347.254       26.089      860.487
09/20/2014  19:47:00      225.476      134.261       43.348       96.791       66.604       65.102     9368.481     4436.090     4238.241        4.439        0.902      262.422       41.667        0.025      347.234       26.051      860.498
09/20/2014  19:48:00      155.581      118.343       33.879      112.889       84.011       61.540    12743.979     7057.797     3787.169        3.147        1.179      195.475       51.034        0.068      347.240       26.062      860.519
09/20/2014  19:49:00      239.164      149.186       39.367      107.867      101.991       61.244    11635.266    10402.227     3750.852        5.339        1.289      281.880       30.875        0.012      347.266       26.108      860.538
09/20/2014  19:50:00      218.508      142.735       33.459       93.379       79.627       52.253     8719.574     6340.408     2730.403        4.351        0.890      260.996       41.231        0.025      347.253       26.084      860.546
09/20/2014  19:51:00      188.250      116.612       27.914       64.859       49.142       43.069     4206.742     2414.889     1854.967        2.914        0.424      221.441       22.356        0.010      347.221       26.029      860.560
09/20/2014  19:52:00      179.335      117.845       15.667       70.035       46.054       41.257     4904.958     2120.937     1702.127        2.751        0.436      214.590       24.295        0.013      347.256       26.091      860.568
09/20/2014  19:53:00      137.751       78.176       13.171       59.797       60.899       42.040     3575.650     3708.729     1767.327        1.715        0.453      158.388       22.903        0.021      347.189       25.975      860.579
09/20/2014  19:54:00      168.278      101.238       10.469      101.084       72.682       39.709    10218.020     5282.724     1576.781        2.787        0.854      196.384       16.262        0.007      347.265       26.106      860.568
09/20/2014  19:55:00      166.071      109.259       25.285       94.277       81.422       61.157     8888.158     6629.605     3740.192        2.970        0.963      198.789       36.494        0.034      347.229       26.044      860.574
09/20/2014  19:56:00      155.545      124.718        9.350       90.998       77.975       55.113     8280.628     6080.063     3037.397        2.861        0.870      199.371       48.381        0.059      347.196       25.987      860.594
09/20/2014  19:57:00      124.613       73.667       17.081       59.364       47.568       38.577     3524.029     2262.719     1488.201        1.426        0.364      144.759       29.036        0.040      347.090       25.806      860.608
09/20/2014  19:58:00      108.144       59.417       19.110       67.525       52.303       46.010     4559.581     2735.614     2116.900        1.250        0.471      123.391       35.155        0.081      347.097       25.818      860.608
09/20/2014  19:59:00      175.633      129.041        8.715       67.908       57.315       57.452     4611.502     3284.966     3300.705        2.938        0.560      217.942       38.274        0.031      347.168       25.938      860.631
09/20/2014  20:00:00      172.146      104.739       28.018       70.310       42.319       48.760     4943.444     1790.906     2377.542        2.525        0.456      201.505       17.183        0.007      347.141       25.895      860.668
09/20/2014  20:01:00      129.753       54.617       13.258       70.440       60.237       44.378     4961.725     3628.451     1969.379        1.527        0.528      140.779       14.300        0.010      347.086       25.800      860.680
09/20/2014  20:02:00      206.719      141.456        4.147       83.952       49.741       47.186     7047.932     2474.160     2226.479        3.725        0.587      250.485       35.008        0.020      347.226       26.038      860.710
09/20/2014  20:03:00      178.905      113.583       19.720       54.632       39.375       37.472     2984.653     1550.353     1404.153        2.562        0.297      211.915       17.946        0.007      347.132       25.877      860.741
09/20/2014  20:04:00      111.825       76.333        8.673       84.225       63.641       58.307     7093.892     4050.240     3399.758        1.647        0.727      135.393       39.999        0.087      347.180       25.962      860.772
09/20/2014  20:05:00       83.049       89.158       69.186       77.574       45.824       48.496     6017.756     2099.808     2351.890        1.505        0.523      121.846       35.311        0.084      347.151       25.913      860.785
09/20/2014  20:06:00      166.083      158.806        7.889       98.925       73.474       75.759     9786.158     5398.405     5739.429        3.689        1.046      229.788       56.360        0.060      347.192       25.982      860.806
09/20/2014  20:07:00      129.418       66.537       24.375       66.322       43.421       36.184     4398.656     1885.412     1309.271        1.468        0.380      145.521       21.471        0.022      347.171       25.947      860.822
09/20/2014  20:08:00      155.944       98.150       31.960       60.493       45.682       38.258     3659.440     2086.816     1463.709        2.109        0.360      184.260       14.428        0.006      347.168       25.941      860.846
09/20/2014  20:09:00      153.992       95.389       17.596       53.382       42.763       32.359     2849.634     1828.711     1047.130        1.942        0.286      181.142       27.390        0.023      347.169       25.943      860.845
09/20/2014  20:10:00       92.328       56.951       24.107       44.708       24.632       26.236     1998.762      606.730      688.304        0.782        0.165      108.480       17.913        0.027      347.166       25.939      860.839
09/20/2014  20:11:00      126.091       61.035       24.493       39.820       35.731       27.837     1585.653     1276.736      774.888        1.193        0.182      140.086       23.878        0.029      347.208       26.012      860.852
09/20/2014  20:12:00      135.525       98.481       30.274       78.019       55.899       41.439     6086.982     3124.685     1717.160        1.995        0.546      167.528       33.887        0.041      347.193       25.982      860.856
09/20/2014  20:13:00      235.886      114.717       37.907      137.150      100.860       62.998    18810.250    10172.736     3968.761        5.159        1.648      262.302       36.780        0.020      347.242       26.067      860.848
09/20/2014  20:14:00      123.396       75.454       34.654       68.908       61.090       45.285     4748.285     3732.021     2050.729        1.632        0.527      144.638       35.800        0.061      347.140       25.892      860.853
09/20/2014  20:15:00      109.066       75.690       49.704       65.833       53.802       46.968     4333.983     2894.644     2205.991        1.476        0.472      132.757       36.821        0.077      347.094       25.815      860.859
09/20/2014  20:16:00      157.911      147.500        7.303      108.779       77.106       72.979    11832.782     5945.311     5325.980        3.492        1.155      216.084       47.727        0.049      347.134       25.880      860.861
09/20/2014  20:17:00      139.421       83.406       32.504       95.414       64.362       49.613     9103.774     4142.474     2461.435        2.158        0.785      162.465       40.846        0.063      347.115       25.848      860.873
09/20/2014  20:18:00      214.887      148.486       48.685       86.558       73.930       49.107     7492.373     5465.691     2411.535        4.298        0.768      261.198       18.521        0.005      347.108       25.834      860.872
09/20/2014  20:19:00      174.075      164.674        2.606      102.681       74.133       62.372    10543.302     5495.693     3890.315        3.867        0.996      239.624       43.844        0.033      347.166       25.934      860.861
09/20/2014  20:20:00      210.576      112.986       31.334       59.765       56.075       50.547     3571.855     3144.381     2554.988        3.368        0.464      238.973       24.093        0.010      347.128       25.870      860.867
09/20/2014  20:21:00      176.657      119.166       42.738       77.801       65.656       46.298     6053.031     4310.768     2143.524        2.987        0.625      213.092        9.953        0.002      347.147       25.903      860.875
09/20/2014  20:22:00      152.480       77.500       15.074       81.618       55.538       45.948     6661.563     3084.470     2111.215        2.067        0.593      171.045       33.324        0.038      347.155       25.919      860.882
09/20/2014  20:23:00      194.179      146.288       23.234       85.402       61.356       50.639     7293.434     3764.557     2564.346        3.663        0.681      243.116       36.558        0.023      347.173       25.947      860.887
09/20/2014  20:24:00      169.402      108.903       19.435       71.010       49.668       45.454     5042.488     2466.877     2066.043        2.525        0.479      201.387       21.881        0.012      347.139       25.890      860.895
09/20/2014  20:25:00      121.195      101.563       31.805       89.719       52.758       48.311     8049.420     2783.404     2333.915        1.959        0.658      158.124       26.023        0.027      347.098       25.819      860.900
09/20/2014  20:26:00      176.295      108.173       17.840       77.784       66.691       59.769     6050.388     4447.715     3572.345        2.858        0.704      206.837       40.950        0.039      347.126       25.867      860.906
09/20/2014  20:27:00       62.715       65.343        8.687       63.895       46.342       44.749     4082.554     2147.580     2002.455        0.825        0.412       90.570       32.109        0.126      347.114       25.850      860.906
09/20/2014  20:28:00       46.609       63.337       -2.952       37.428       29.388       25.417     1400.876      863.630      646.004        0.455        0.146       78.638       18.856        0.057      347.087       25.802      860.905
09/20/2014  20:29:00       38.075       66.276       10.144       45.984       56.188       33.836     2114.499     3157.066     1144.881        0.618        0.321       76.434       30.167        0.156      347.111       25.844      860.894
09/20/2014  20:30:00       57.952       75.360       14.534       56.033       54.425       38.060     3139.700     2962.070     1448.532        0.840        0.378       95.066       28.666        0.091      347.099       25.822      860.889
09/20/2014  20:31:00       43.851      148.154      -18.678       34.169       72.758       36.713     1167.541     5293.657     1347.858        1.601        0.390      154.507       38.067        0.061      347.080       25.788      860.899
09/20/2014  20:32:00       37.556      169.295      -21.604       46.828       86.209       41.077     2192.882     7432.050     1687.281        2.092        0.566      173.410       44.803        0.067      347.143       25.897      860.902
09/20/2014  20:33:00       15.451      183.256      -20.329       53.919       92.236       42.743     2907.302     8507.428     1826.922        2.374        0.662      183.906       46.848        0.065      347.052       25.736      860.915
09/20/2014  20:34:00       39.329       93.103       -8.784       37.913       57.819       36.014     1437.403     3343.012     1296.990        0.818        0.304      101.069       33.427        0.109      347.003       25.658      860.918
09/20/2014  20:35:00       48.016       66.628       10.898       52.692       60.154       46.702     2776.433     3618.490     2181.033        0.772        0.429       82.127       39.227        0.228      347.056       25.747      860.926
09/20/2014  20:36:00       83.634      160.019        5.148       67.702      101.842       79.228     4583.537    10371.858     6277.081        2.693        1.062      180.557       73.080        0.164      347.119       25.855      860.929
09/20/2014  20:37:00       88.597      169.218      -21.929       76.015      119.815       64.594     5778.231    14355.577     4172.421        3.063        1.215      191.008       65.189        0.116      347.193       25.983      860.937
09/20/2014  20:38:00       66.399       84.127        9.513       95.800       65.331       42.845     9177.597     4268.124     1835.702        1.343        0.764      107.174       33.599        0.098      347.108       25.838      860.954
09/20/2014  20:39:00       70.275      134.482        3.168       52.276      102.706       48.932     2732.831    10548.553     2394.298        1.935        0.784      151.737       48.771        0.103      347.119       25.856      860.960
09/20/2014  20:40:00       61.541      222.743      -28.098       74.538      115.668       52.726     5555.866    13379.014     2780.050        3.795        1.086      231.088       62.087        0.072      347.235       26.056      860.950
09/20/2014  20:41:00       48.013       93.269        5.582       57.763       66.412       50.855     3336.592     4410.501     2586.195        1.068        0.517      104.902       48.007        0.209      347.157       25.922      860.957
09/20/2014  20:42:00       65.147       55.178       15.482       46.104       41.263       37.548     2125.557     1702.620     1409.855        0.638        0.262       85.375       24.988        0.086      347.097       25.821      860.965
09/20/2014  20:43:00       15.199       46.821       -2.055       32.811       38.460       22.834     1076.582     1479.174      521.414        0.275        0.154       49.226       22.857        0.216      347.028       25.701      860.953
09/20/2014  20:44:00       13.717      136.428       -7.666       40.601       69.531       37.740     1648.476     4834.611     1424.284        1.338        0.395      137.116       40.625        0.088      347.013       25.674      860.953
09/20/2014  20:45:00       15.372      233.278      -31.419       50.666       89.030       45.097     2567.014     7926.280     2033.746        3.408        0.626      233.784       54.009        0.053      347.044       25.726      860.965
09/20/2014  20:46:00       43.114      190.317      -10.595       73.643      118.519       66.503     5423.319    14046.807     4422.603        3.104        1.195      195.140       68.631        0.124      347.032       25.704      860.975
09/20/2014  20:47:00       31.611      150.310       -7.785       53.466       81.941       56.829     2858.598     6714.294     3229.488        1.823        0.640      153.598       54.931        0.128      347.076       25.783      860.991
09/20/2014  20:48:00       37.820      184.848      -21.026       50.033      112.843       48.478     2503.253    12733.535     2350.090        2.681        0.879      188.678       53.608        0.081      347.078       25.784      861.011
09/20/2014  20:49:00      110.400       91.585        6.788       74.374       49.674       37.355     5531.537     2467.464     1395.363        1.501        0.470      143.443       30.138        0.044      347.011       25.671      861.027
09/20/2014  20:50:00      125.156       89.050       17.779       64.142       46.750       43.615     4114.132     2185.544     1902.256        1.605        0.410      153.603       27.985        0.033      347.011       25.671      861.045
09/20/2014  20:51:00      124.022       83.656        7.632       62.659       41.072       38.248     3926.166     1686.929     1462.910        1.476        0.354      149.599       29.065        0.038      347.012       25.672      861.054
09/20/2014  20:52:00      101.996       95.538       -2.388       63.153       54.255       28.457     3988.249     2943.584      809.808        1.364        0.387      139.752       17.963        0.017      347.245       26.072      861.056
09/20/2014  20:53:00       30.032      111.032      -13.246       37.170       40.038       26.857     1381.594     1603.071      721.297        0.856        0.185      115.022       24.892        0.047      347.156       25.920      861.050
09/20/2014  20:54:00       15.600       85.538       -9.303       34.374       43.061       24.571     1181.538     1854.266      603.751        0.564        0.182       86.949       20.604        0.056      347.131       25.880      861.030
09/20/2014  20:55:00       13.461       51.268        7.848       47.504       45.114       31.160     2256.663     2035.316      970.918        0.407        0.263       53.006       34.212        0.417      347.043       25.726      861.010
09/20/2014  20:56:00      -62.740      143.195      -16.139       28.874       42.472       21.278      833.687     1803.851      452.733        1.390        0.155      156.336       15.396        0.010      347.063       25.761      860.995
09/20/2014  20:57:00      -11.664      193.240      -21.103       25.864       28.819       16.977      668.967      830.549      288.216        1.986        0.089      193.592       15.176        0.006      347.125       25.867      860.988
09/20/2014  20:58:00       11.441      153.431      -17.583       44.434       61.828       31.551     1974.398     3822.672      995.492        1.539        0.340      153.857       27.778        0.033      347.268       26.112      861.000
09/20/2014  20:59:00       21.566      117.163      -16.048       29.114       46.103       24.696      847.651     2125.469      609.877        0.902        0.179      119.131       26.123        0.048      347.148       25.908      861.016
09/20/2014  21:00:00       36.225       65.320        0.798       50.496       52.379       35.799     2549.822     2743.539     1281.577        0.608        0.329       74.692       35.077        0.221      346.965       25.593      861.042
09/20/2014  21:01:00      118.443       70.532       22.160       52.698       39.065       39.146     2777.028     1526.069     1532.399        1.266        0.292      137.854       16.572        0.014      347.012       25.672      861.062
09/20/2014  21:02:00       92.095       43.017       10.891       52.393       34.268       26.488     2745.055     1174.268      701.631        0.753        0.231      101.646       20.286        0.040      347.078       25.787      861.089
09/20/2014  21:03:00      113.933       48.489        6.702       39.246       28.123       23.989     1540.264      790.889      575.496        0.914        0.145      123.822       15.236        0.015      347.025       25.695      861.114
09/20/2014  21:04:00       53.951       40.946       34.294       25.373       20.850       22.148      643.814      434.704      490.542        0.367        0.078       67.730       16.046        0.056      346.935       25.540      861.142
09/20/2014  21:05:00       17.056       -1.209       18.646       18.424       38.579       18.788      339.427     1488.368      352.982        0.141        0.109       17.099       19.160        1.256      346.838       25.375      861.167
09/20/2014  21:06:00       47.933      -80.974      -11.905       22.435       23.492       15.323      503.309      551.891      234.802        0.514        0.065       94.098       12.867        0.019      346.821       25.344      861.174
09/20/2014  21:07:00       42.895      -58.363      -15.388       28.776       36.320       19.734      828.070     1319.109      389.441        0.401        0.127       72.431       14.095        0.038      346.839       25.376      861.179
09/20/2014  21:08:00       61.044      -64.894       -3.863       21.565       28.594       12.398      465.040      817.605      153.719        0.469        0.072       89.093       13.586        0.023      346.880       25.446      861.184
09/20/2014  21:09:00       39.616      -49.639       -0.384       13.871       14.329       12.812      192.401      205.331      164.159        0.230        0.028       63.509        9.629        0.023      346.876       25.440      861.198
09/20/2014  21:10:00       33.206      -52.141        4.158       18.756       25.371       17.910      351.797      643.674      320.770        0.258        0.066       61.817       12.914        0.044      346.855       25.402      861.224
09/20/2014  21:11:00       19.002      -40.377        8.805       22.903       32.828       28.652      524.568     1077.699      820.939        0.225        0.121       44.625       18.049        0.164      346.838       25.374      861.247
09/20/2014  21:12:00       27.464      -12.799       11.121       26.567       33.891       26.062      705.784     1148.603      679.238        0.179        0.127       30.300       17.771        0.344      346.771       25.259      861.264
09/20/2014  21:13:00       26.167      -30.613       15.246       28.839       39.419       20.385      831.711     1553.882      415.548        0.233        0.140       40.272       21.158        0.276      346.861       25.413      861.278
09/20/2014  21:14:00       66.108      -59.873       -1.897       31.922       28.070       13.265     1018.989      787.953      175.963        0.497        0.099       89.191        8.737        0.010      346.917       25.511      861.300
09/20/2014  21:15:00       76.214       27.750       22.709       55.034       58.754       33.498     3028.697     3452.088     1122.092        0.735        0.380       81.108       32.164        0.157      346.762       25.240      861.308
09/20/2014  21:16:00       95.545       57.944       62.183       50.977       50.169       52.439     2598.661     2516.882     2749.812        1.211        0.393      111.742       31.539        0.080      346.770       25.255      861.330
09/20/2014  21:17:00      136.852       66.673       72.087       61.210       67.117       43.843     3746.701     4504.718     1922.187        1.927        0.509      152.230       32.771        0.046      346.925       25.522      861.326
09/20/2014  21:18:00      161.213     -116.908       20.845       98.947      136.219       69.863     9790.537    18555.663     4880.865        3.665        1.661      199.141       82.413        0.171      346.980       25.614      861.317
09/20/2014  21:19:00       94.491       42.399       92.621       89.418      169.502       90.523     7995.578    28730.885     8194.504        3.210        2.246      103.567      108.357        1.095      346.987       25.628      861.317
09/20/2014  21:20:00       72.717       73.783      122.266      104.502       80.709       74.577    10920.665     6513.949     5561.774        2.433        1.150      103.593       71.931        0.482      347.000       25.652      861.333
09/20/2014  21:21:00       65.729       68.582      112.507       79.751       68.161       60.450     6360.232     4645.913     3654.241        1.817        0.733       94.994       45.388        0.228      347.067       25.767      861.345
09/20/2014  21:22:00       66.176      -56.597       27.762       61.578       71.623       48.006     3791.854     5129.913     2304.594        0.979        0.561       87.077       54.045        0.385      347.016       25.680      861.362
09/20/2014  21:23:00      116.352      -96.987       15.959       84.159      106.668       60.084     7082.733    11378.035     3610.139        2.263        1.104      151.474       71.474        0.223      346.971       25.602      861.358
09/20/2014  21:24:00       79.757     -139.972       -9.431       50.784       93.421       38.963     2578.982     8727.572     1518.077        1.943        0.641      161.101       43.451        0.073      346.974       25.605      861.360
09/20/2014  21:25:00       96.183     -116.760       12.733      106.606      147.342       52.175    11364.836    21709.632     2722.196        2.941        1.790      151.275       72.405        0.229      346.935       25.538      861.349
09/20/2014  21:26:00      199.414     -205.562      -32.264       52.841       60.444       40.458     2792.158     3653.426     1636.848        4.557        0.404      286.394       22.983        0.006      346.969       25.595      861.335
09/20/2014  21:27:00       83.017      -61.926       13.677       69.986       71.152       43.637     4898.050     5062.635     1904.220        1.139        0.593      103.569       48.874        0.223      346.902       25.482      861.344
09/20/2014  21:28:00       47.287      -44.375       19.714       53.807       48.912       37.130     2895.228     2392.378     1378.641        0.563        0.333       64.847       23.092        0.127      346.854       25.401      861.345
09/20/2014  21:29:00       61.608      -46.979       29.928       58.539       91.090       43.460     3426.818     8297.367     1888.744        1.025        0.681       77.476       42.800        0.305      346.870       25.428      861.347
09/20/2014  21:30:00      100.644     -136.647        8.915       71.026      101.377       47.537     5044.678    10277.218     2259.742        2.323        0.879      169.710       51.205        0.091      346.941       25.548      861.342
09/20/2014  21:31:00       88.756      -43.802       28.160       86.705       67.319       54.108     7517.797     4531.858     2927.703        1.278        0.749       98.976       47.007        0.226      346.891       25.465      861.358
09/20/2014  21:32:00       59.141      -73.307       23.440       67.209       73.830       47.639     4516.994     5450.900     2269.519        1.083        0.612       94.189       49.399        0.275      346.800       25.307      861.347
09/20/2014  21:33:00       68.404      -92.850        1.439       84.190       81.050       58.973     7087.959     6569.143     3477.833        1.522        0.857      115.326       48.057        0.174      346.813       25.329      861.342
09/20/2014  21:34:00       74.009      -37.913       63.727       80.690       87.472       64.873     6510.933     7651.365     4208.465        1.467        0.919       83.155       67.051        0.650      346.827       25.354      861.321
09/20/2014  21:35:00       43.589      -94.125       13.279       79.101       76.856       47.463     6257.002     5906.890     2252.745        1.267        0.721      103.728       47.981        0.214      346.834       25.366      861.329
09/20/2014  21:36:00       53.919      -91.571       11.550       91.466       99.638       73.231     8366.058     9927.734     5362.789        1.754        1.183      106.266       65.393        0.379      346.804       25.314      861.318
09/20/2014  21:37:00      154.239       18.534       79.106      110.575      158.192      112.213    12226.778    25024.678    12591.682        4.011        2.492      155.349      116.796        0.565      346.949       25.561      861.320
09/20/2014  21:38:00      101.558      -34.483       24.229       98.402      114.805       64.855     9683.042    13180.221     4206.170        1.957        1.353      107.252       68.633        0.409      346.944       25.551      861.348
09/20/2014  21:39:00       46.151     -108.594       27.783       59.849       81.578       53.053     3581.879     6654.967     2814.609        1.387        0.653      117.993       44.903        0.145      346.893       25.468      861.344
09/20/2014  21:40:00      182.985     -269.995      -16.490      113.545      149.121       57.615    12892.501    22236.950     3319.442        7.254        1.922      326.161       75.439        0.053      346.940       25.546      861.357
09/20/2014  21:41:00      115.850      -89.030       25.191       96.631      131.763       64.623     9337.606    17361.431     4176.195        2.642        1.544      146.108       80.162        0.301      346.906       25.487      861.389
09/20/2014  21:42:00       70.326      -96.130       15.358       77.065       72.957       51.668     5939.089     5322.755     2669.631        1.417        0.697      119.108       55.592        0.218      346.886       25.454      861.420
09/20/2014  21:43:00       77.446      -80.911        7.789       47.067       78.818       45.783     2215.295     6212.264     2096.059        1.156        0.526      112.002       44.114        0.155      346.898       25.475      861.454
09/20/2014  21:44:00      110.935     -128.161        2.667       63.141       88.602       45.196     3986.781     7850.274     2042.679        2.131        0.694      169.505       48.844        0.083      346.874       25.433      861.487
09/20/2014  21:45:00      103.677      -77.449       12.214       58.981      125.219       58.937     3478.766    15679.699     3473.511        1.976        1.132      129.411       76.089        0.346      346.860       25.408      861.506
09/20/2014  21:46:00       95.566       47.349       53.365       72.892       63.797       56.334     5313.241     4070.043     3173.501        1.339        0.628      106.652       39.485        0.137      346.883       25.449      861.514
09/20/2014  21:47:00       60.287      -84.234        5.922       69.797       63.103       49.477     4871.620     3982.031     2447.998        1.103        0.565      103.586       52.119        0.253      346.815       25.333      861.538
09/20/2014  21:48:00       98.101      -54.395        5.266       75.713       69.870       49.994     5732.393     4881.855     2499.393        1.286        0.656      112.172       44.934        0.160      346.833       25.363      861.556
09/20/2014  21:49:00      112.815      -85.581       -4.647       85.026       89.776       57.249     7229.394     8059.668     3277.436        1.932        0.928      141.603       68.671        0.235      346.818       25.337      861.567
09/20/2014  21:50:00       85.044      -76.143        5.831       49.724       48.666       38.770     2472.457     2368.346     1503.116        0.970        0.317      114.150       28.417        0.062      346.780       25.274      861.570
09/20/2014  21:51:00       51.540      -69.691       17.306       45.643       75.846       37.999     2083.250     5752.681     1443.933        0.854        0.464       86.679       45.645        0.277      346.711       25.155      861.574
09/20/2014  21:52:00       46.699      -30.447       14.520       41.226       54.923       32.897     1699.550     3016.536     1082.198        0.456        0.290       55.747       35.007        0.394      346.613       24.987      861.579
09/20/2014  21:53:00       19.995      -17.241       10.980       26.481       44.062       28.892      701.269     1941.466      834.726        0.215        0.174       26.402       25.474        0.931      346.573       24.919      861.590
09/20/2014  21:54:00       40.070       -0.024       23.631       37.889       68.716       34.125     1435.560     4721.855     1164.492        0.474        0.366       40.070       35.182        0.771      346.622       25.001      861.599
09/20/2014  21:55:00       61.264      -28.568        7.007       48.191       73.477       28.178     2322.397     5398.928      794.014        0.657        0.426       67.597       25.469        0.142      346.589       24.947      861.605
09/20/2014  21:56:00       20.184       43.232       49.344       31.742       34.483       16.962     1007.556     1189.050      287.705        0.360        0.124       47.712       11.893        0.062      346.472       24.744      861.618
09/20/2014  21:57:00       79.185       42.000       32.638       31.061       28.333       25.798      964.785      802.761      665.529        0.577        0.122       89.634       15.729        0.031      346.542       24.865      861.621
09/20/2014  21:58:00       78.516       54.233       53.333       35.788       28.604       28.792     1280.790      818.207      829.006        0.744        0.146       95.425       20.536        0.046      346.568       24.909      861.622
09/20/2014  21:59:00       80.029       60.400       57.673       93.363       69.672       43.254     8716.621     4854.167     1870.885        1.441        0.772      100.264       28.145        0.079      346.679       25.099      861.623
09/20/2014  22:00:00       39.176       68.761       66.110       55.973       49.281       33.090     3132.975     2428.626     1094.973        0.864        0.333       79.138       26.231        0.110      346.628       25.012      861.637
09/20/2014  22:01:00       87.370      101.528       77.395       38.122       37.859       39.277     1453.306     1433.290     1542.672        1.418        0.221      133.945       30.916        0.053      346.696       25.129      861.665
09/20/2014  22:02:00       59.838      105.883       95.946       53.402       50.219       38.405     2851.810     2521.927     1474.968        1.542        0.342      121.621       25.593        0.044      346.655       25.059      861.683
09/20/2014  22:03:00       45.328      -24.188       25.953       61.695       52.832       48.200     3806.310     2791.183     2323.228        0.612        0.446       51.378       39.416        0.589      346.628       25.013      861.690
09/20/2014  22:04:00       -9.841      -12.650       10.337       33.577       14.851       21.138     1127.420      220.553      446.817        0.108        0.090       16.027       22.898        2.041      346.604       24.971      861.672
09/20/2014  22:05:00       -1.718       26.322       55.874       16.907       24.864       20.037      285.830      618.194      401.476        0.256        0.065       26.378       18.510        0.492      346.554       24.886      861.669
09/20/2014  22:06:00       53.931       52.983       36.664       49.197       26.749       28.491     2420.392      715.517      811.728        0.550        0.197       75.602       28.130        0.138      346.442       24.692      861.668
09/20/2014  22:07:00      104.392       84.443       71.083       49.211       35.103       36.689     2421.735     1232.199     1346.112        1.404        0.250      134.270        7.986        0.004      346.448       24.703      861.671
09/20/2014  22:08:00       67.518       31.058       56.063       53.118       64.220       48.872     2821.566     4124.190     2388.442        0.900        0.467       74.319       38.526        0.269      346.473       24.745      861.699
09/20/2014  22:09:00      114.211       52.221       36.388       74.967       53.557       48.885     5620.115     2868.396     2389.750        1.398        0.544      125.584       32.296        0.066      346.507       24.803      861.707
09/20/2014  22:10:00      110.283       65.724       54.504       53.618       49.090       41.473     2874.884     2409.843     1719.981        1.323        0.350      128.382       36.442        0.081      346.406       24.630      861.727
09/20/2014  22:11:00      131.732       82.677       56.356       64.973       49.127       36.121     4221.447     2413.457     1304.730        1.765        0.397      155.528       30.620        0.039      346.404       24.626      861.746
09/20/2014  22:12:00      158.488      103.400       35.063       46.771       37.822       34.732     2187.519     1430.521     1206.338        2.093        0.241      189.235       11.758        0.004      346.432       24.674      861.756
09/20/2014  22:13:00      148.273      102.487       14.744       43.772       37.254       31.584     1915.953     1387.864      997.522        1.850        0.215      180.245       19.907        0.012      346.240       24.345      861.764
09/20/2014  22:14:00       97.080       32.457       16.094       63.883       43.641       36.998     4080.992     1904.537     1368.847        0.904        0.368      102.362       34.518        0.114      346.175       24.234      861.787
09/20/2014  22:15:00      149.508       26.474       68.224      117.265      104.605       74.625    13751.014    10942.150     5568.933        2.898        1.513      151.834       67.125        0.195      346.296       24.442      861.801
09/20/2014  22:16:00      104.040       97.081      115.740      153.467       89.041       90.818    23552.007     7928.330     8247.893        3.668        1.986      142.299       42.818        0.091      346.462       24.726      861.753
09/20/2014  22:17:00       76.353       79.389       88.757       82.219       57.729       63.016     6759.962     3332.647     3971.072        1.703        0.703      110.147       57.177        0.269      346.417       24.647      861.769
09/20/2014  22:18:00      223.260      155.283      120.017      134.926      114.191       99.842    18204.934    13039.683     9968.379        6.478        2.061      271.951       83.182        0.094      346.430       24.669      861.775
09/20/2014  22:19:00       89.525       77.445       95.495       94.904       69.438       60.436     9006.814     4821.693     3652.545        2.030        0.874      118.374       52.830        0.199      346.383       24.589      861.796
09/20/2014  22:20:00      101.339       38.777       96.921      101.475       94.702       64.548    10297.176     8968.481     4166.463        2.229        1.172      108.505       55.662        0.263      346.431       24.671      861.813
09/20/2014  22:21:00      145.585      100.818       99.243      134.235       91.576       79.365    18019.055     8386.079     6298.733        3.695        1.635      177.085       78.087        0.194      346.384       24.591      861.822
09/20/2014  22:22:00      149.292       96.468      107.724      128.955      104.181       90.310    16629.470    10853.646     8155.897        3.941        1.782      177.748       81.325        0.209      346.367       24.559      861.841
09/20/2014  22:23:00      191.037      118.707       92.599      130.223      103.277       73.640    16958.073    10666.145     5422.780        4.610        1.652      224.914       65.029        0.084      346.326       24.489      861.859
09/20/2014  22:24:00       89.608       15.798       71.683       78.234      107.604       69.286     6120.631    11578.593     4800.558        1.795        1.125       90.990       76.455        0.706      346.279       24.410      861.879
09/20/2014  22:25:00      174.311      132.960      100.753       97.805       68.057       72.282     9565.884     4631.815     5224.706        3.881        0.971      219.232       47.305        0.047      346.261       24.379      861.893
09/20/2014  22:26:00      269.728      120.534      147.527      209.026      149.246      115.620    43692.006    22274.285    13367.986        9.417        3.967      295.434      121.828        0.170      346.258       24.370      861.909
09/20/2014  22:27:00      203.324      131.728      133.245      125.185      106.087      101.273    15671.303    11254.473    10256.204        5.681        1.859      242.266       95.227        0.155      346.188       24.251      861.935
09/20/2014  22:28:00      192.592      148.508      149.936      129.599      125.543      110.937    16796.002    15761.001    12306.938        6.324        2.243      243.200       87.357        0.129      346.160       24.202      861.954
09/20/2014  22:29:00      157.651      162.451      128.328      109.329       92.759       91.460    11952.866     8604.245     8364.943        4.831        1.446      226.372       66.197        0.086      346.146       24.180      861.955
09/20/2014  22:30:00      157.823      146.254      116.268      136.954      106.800       82.207    18756.384    11406.181     6757.934        4.836        1.846      215.171       68.485        0.101      346.100       24.101      861.970
09/20/2014  22:31:00      206.125      136.589      186.072      156.891      135.029      106.881    24614.720    18232.697    11423.576        7.501        2.714      247.273       98.862        0.160      346.092       24.087      861.961
09/20/2014  22:32:00      155.049       54.049      108.955      166.273      185.444      103.055    27646.679    34389.488    10620.309        5.573        3.633      164.199      103.257        0.395      346.069       24.047      861.950
09/20/2014  22:33:00      188.559      138.692      128.996      130.329      131.890      105.818    16985.684    17394.964    11197.417        5.849        2.279      234.072       99.574        0.181      346.090       24.083      861.995
09/20/2014  22:34:00      148.639      100.499      119.765      154.761       98.768       82.501    23951.087     9755.183     6806.429        4.352        2.026      179.425       65.212        0.132      346.077       24.063      861.994
09/20/2014  22:35:00      118.658      127.989      157.490       97.390       75.689       55.479     9484.834     5728.848     3077.914        3.677        0.915      174.531       32.277        0.034      346.070       24.049      861.997
09/20/2014  22:36:00      111.093       65.892       56.533      105.401       93.645       65.918    11109.268     8769.372     4345.182        2.205        1.211      129.164       51.797        0.161      346.064       24.040      862.002
09/20/2014  22:37:00      181.716      206.044      165.304      123.213       95.166       92.348    15181.529     9056.618     8528.143        6.778        1.638      274.727       81.110        0.087      346.023       23.967      862.004
09/20/2014  22:38:00      168.552      144.409      144.513      133.692      107.603       97.094    17873.596    11578.488     9427.292        5.451        1.944      221.954       82.680        0.139      346.017       23.958      861.972
09/20/2014  22:39:00      255.519      148.210       85.702      152.669      106.559       89.279    23307.793    11354.918     7970.666        6.861        2.132      295.392       62.598        0.045      345.978       23.892      861.963
09/20/2014  22:40:00       96.594      135.008       90.919      128.203       80.034       82.721    16435.891     6405.508     6842.757        3.275        1.484      166.005       69.376        0.175      345.939       23.825      861.986
09/20/2014  22:41:00      205.403       98.471       95.110      136.425       93.693       97.600    18611.897     8778.307     9525.696        4.892        1.846      227.787       81.337        0.128      345.916       23.784      861.988
09/20/2014  22:42:00      189.035      107.783       89.102      137.704      120.232       96.474    18962.484    14455.716     9307.278        4.900        2.136      217.604       81.868        0.142      345.921       23.794      861.991
09/20/2014  22:43:00      205.674      143.687      123.678      133.022      115.204       91.469    17694.747    13271.922     8366.562        5.878        1.967      250.894       71.134        0.080      345.921       23.792      861.979
09/20/2014  22:44:00      304.172      137.282      128.589      211.881      161.047      112.646    44893.601    25936.067    12689.072       10.569        4.176      333.717       95.932        0.083      345.905       23.767      861.956
09/20/2014  22:45:00      255.185      177.456      146.578      178.129      121.451      120.205    31730.094    14750.233    14449.290        8.950        3.046      310.822       91.392        0.086      345.886       23.734      861.963
09/20/2014  22:46:00       65.521       59.209       90.328      137.342      126.368       90.223    18862.844    15968.791     8140.135        2.946        2.149       88.310       64.220        0.529      345.885       23.734      861.960
09/20/2014  22:47:00      197.925       85.678      108.743      159.851      132.779      102.226    25552.460    17630.160    10450.084        5.598        2.682      215.674       99.082        0.211      345.862       23.692      861.990
09/20/2014  22:48:00      127.520       66.869       84.500      101.725      112.327       80.831    10348.077    12617.262     6533.658        2.868        1.475      143.989       64.617        0.201      345.836       23.651      862.011
09/20/2014  22:49:00      195.997      135.674      121.899      147.266      109.142       87.704    21687.262    11911.970     7691.959        5.648        2.065      238.374       75.740        0.101      345.837       23.651      862.026
09/20/2014  22:50:00      256.360       87.763      106.502      167.632      176.349      104.760    28100.527    31098.930    10974.662        7.746        3.509      270.967      106.814        0.155      345.818       23.617      862.010
09/20/2014  22:51:00      149.346      106.331      113.548      126.423       93.816       79.256    15982.847     8801.395     6281.501        3.878        1.553      183.332       47.787        0.068      345.811       23.607      862.003
09/20/2014  22:52:00      143.013       95.610      108.422      151.964      110.656       76.072    23093.153    12244.695     5787.014        4.123        2.056      172.029       70.746        0.169      345.814       23.612      862.017
09/20/2014  22:53:00      137.708       64.001      109.576      140.089      114.575       76.667    19624.962    13127.447     5877.791        3.684        1.932      151.854       60.647        0.160      345.803       23.592      862.013
09/20/2014  22:54:00       84.751       91.200       95.355       71.355       77.811       70.504     5091.591     6054.552     4970.792        2.035        0.806      124.500       55.051        0.196      345.806       23.599      862.029
09/20/2014  22:55:00      118.343       76.869       65.691       96.320       90.406       65.525     9277.478     8173.157     4293.590        2.298        1.087      141.117       56.511        0.160      345.784       23.561      862.057
09/20/2014  22:56:00       53.348      111.815      127.057       76.147       63.099       43.420     5798.316     3981.435     1885.300        2.158        0.583      123.890       29.772        0.058      345.783       23.559      862.066
09/20/2014  22:57:00      165.997       95.858       99.948      109.111      102.735       79.512    11905.201    10554.463     6322.183        3.775        1.439      191.687       61.382        0.103      345.769       23.533      862.079
09/20/2014  22:58:00       97.338       95.069       88.158      115.011       96.151       58.785    13227.593     9245.035     3455.727        2.610        1.296      136.062       52.043        0.146      345.762       23.522      862.098
09/20/2014  22:59:00      209.942       78.126       43.788      103.873       75.957       61.580    10789.677     5769.531     3792.057        3.622        1.018      224.008       60.662        0.073      345.750       23.501      862.103
09/20/2014  23:00:00      104.034       84.351       65.152       70.012       44.744       58.268     4901.665     2001.987     3395.181        1.624        0.515      133.934       38.827        0.084      345.730       23.471      862.094
09/20/2014  23:01:00      112.934       81.067       66.693       84.535       59.242       57.365     7146.205     3509.628     3290.780        1.886        0.697      139.018       44.566        0.103      345.726       23.463      862.084
09/20/2014  23:02:00      221.748       77.125       48.546       97.710       87.318       71.778     9547.207     7624.391     5152.073        3.990        1.116      234.778       65.403        0.078      345.724       23.456      862.079
09/20/2014  23:03:00      138.037      118.716       93.769       89.015       65.493       72.471     7923.617     4289.355     5252.025        2.970        0.873      182.065       58.947        0.105      345.710       23.432      862.083
09/20/2014  23:04:00      162.206      110.379       57.667      126.637       75.962       63.375    16036.971     5770.172     4016.433        3.382        1.291      196.200       59.588        0.092      345.706       23.427      862.077
09/20/2014  23:05:00      243.828      129.963       48.787       92.344       83.004       67.007     8527.409     6889.740     4490.002        4.931        0.995      276.302       35.491        0.016      345.686       23.389      862.066
09/20/2014  23:06:00      188.452       62.125       30.812      100.029       83.986       55.410    10005.773     7053.616     3070.323        3.022        1.006      198.428       45.977        0.054      345.694       23.402      862.066
09/20/2014  23:07:00      201.265      137.998       54.852      108.863       91.467       74.414    11851.149     8366.255     5537.499        4.415        1.288      244.031       53.957        0.049      345.683       23.384      862.057
09/20/2014  23:08:00      163.578       28.089       24.745      112.958       72.131       63.721    12759.516     5202.899     4060.367        2.509        1.101      165.972       42.534        0.066      345.664       23.353      862.040
09/20/2014  23:09:00       45.864       53.151       42.979       65.323       46.912       57.315     4267.150     2200.779     3285.054        0.826        0.488       70.203       48.359        0.474      345.593       23.234      862.049
09/20/2014  23:10:00      133.252       35.707       13.678       64.835       42.679       42.271     4203.572     1821.490     1786.868        1.351        0.391      137.953       30.369        0.048      345.560       23.178      862.058
09/20/2014  23:11:00      137.345       74.933       27.046       80.621       56.300       45.839     6499.704     3169.696     2101.240        1.849        0.589      156.457       49.420        0.100      345.584       23.217      862.070
09/20/2014  23:12:00      131.343       89.664       50.184       90.249       69.349       59.175     8144.916     4809.300     3501.660        2.213        0.823      159.030       46.811        0.087      345.583       23.214      862.064
09/20/2014  23:13:00      139.878       93.776       69.228       99.127       68.841       59.721     9826.078     4739.039     3566.655        2.564        0.907      168.404       50.098        0.088      345.592       23.229      862.065
09/20/2014  23:14:00      165.574      100.716       46.280       68.859       68.830       48.209     4741.584     4737.615     2324.146        2.575        0.590      193.800       32.796        0.029      345.580       23.208      862.065
09/20/2014  23:15:00      140.980       81.188       24.649       72.605       47.800       39.475     5271.512     2284.850     1558.310        1.809        0.456      162.686       17.885        0.012      345.547       23.153      862.053
09/20/2014  23:16:00      176.139       96.324       30.996       64.744       54.094       38.739     4191.839     2926.204     1500.725        2.494        0.431      200.756       17.785        0.008      345.552       23.160      862.040
09/20/2014  23:17:00      104.755       49.573       11.879       55.865       48.160       36.594     3120.943     2319.426     1339.124        1.017        0.339      115.893       29.838        0.066      345.518       23.103      862.033
09/20/2014  23:18:00      101.247       67.093       10.780       34.572       34.219       33.084     1195.207     1170.935     1094.567        0.916        0.173      121.460       11.618        0.009      345.504       23.082      862.035
09/20/2014  23:19:00       68.349       12.900       16.154       66.787       41.005       35.860     4460.440     1681.411     1285.907        0.626        0.371       69.556       32.618        0.220      345.503       23.081      862.043
09/20/2014  23:20:00       57.226       31.816        4.951       26.419       20.282       19.610      697.957      411.344      384.556        0.290        0.075       65.476       14.583        0.050      345.456       23.002      862.043
09/20/2014  23:21:00      127.457       73.703       26.584       56.821       49.703       31.396     3228.673     2470.383      985.721        1.453        0.334      147.233       17.191        0.014      345.480       23.039      862.033
09/20/2014  23:22:00       95.390       48.229       26.654       79.978       46.489       35.166     6396.417     2161.250     1236.664        1.096        0.490      106.889       20.786        0.038      345.491       23.059      862.012
09/20/2014  23:23:00      160.313      114.696       36.634       84.296       62.278       43.324     7105.766     3878.546     1876.934        2.653        0.643      197.118       35.800        0.033      345.541       23.141      862.015
09/20/2014  23:24:00      114.363       62.478       17.792       40.508       29.697       33.706     1640.859      881.917     1136.082        1.048        0.183      130.316       23.314        0.032      345.492       23.061      862.003
09/20/2014  23:25:00       89.460       52.521       19.462       39.942       36.087       33.261     1595.355     1302.236     1106.286        0.757        0.200      103.738       17.843        0.030      345.509       23.089      861.983
09/20/2014  23:26:00       69.624       26.835       10.859       45.761       22.474       23.634     2094.034      505.093      558.550        0.442        0.158       74.616       13.566        0.033      345.471       23.025      861.955
09/20/2014  23:27:00       77.228       36.868       13.595       36.045       25.149       23.969     1299.260      632.468      574.521        0.501        0.125       85.577       15.289        0.032      345.453       22.994      861.932
09/20/2014  23:28:00       27.266       39.568        6.895       35.623       36.097       29.956     1269.018     1302.984      897.385        0.291        0.173       48.053       26.389        0.302      345.443       22.976      861.914
09/20/2014  23:29:00       80.841       79.865        4.398       54.268       50.960       39.303     2944.964     2596.939     1544.692        1.001        0.354      113.638       34.332        0.091      345.484       23.046      861.902
09/20/2014  23:30:00       21.932       75.243        0.960       30.243       50.272       26.973      914.631     2527.281      727.555        0.516        0.208       78.374       30.771        0.154      345.435       22.964      861.908
09/20/2014  23:31:00       37.908       54.509        4.931       28.225       47.212       35.538      796.624     2228.987     1262.947        0.436        0.214       66.395       33.937        0.261      345.383       22.875      861.929
09/20/2014  23:32:00       47.390       49.763        5.939       38.235       27.227       25.114     1461.916      741.295      630.699        0.380        0.142       68.717       21.789        0.101      345.364       22.842      861.959
09/20/2014  23:33:00       19.295       81.061      -10.866       33.131       34.682       23.346     1097.654     1202.840      545.031        0.495        0.142       83.325       22.907        0.076      345.362       22.838      861.985
09/20/2014  23:34:00        8.290       70.549        1.795       40.885       38.026       21.869     1671.546     1445.996      478.265        0.432        0.180       71.034       13.553        0.036      345.341       22.800      862.010
09/20/2014  23:35:00        3.680       30.452       -4.806       18.637       36.113       15.386      347.349     1304.153      236.734        0.143        0.094       30.673       18.744        0.373      345.294       22.724      862.026
09/20/2014  23:36:00       10.802      -19.622        8.819       18.910       19.496       11.629      357.588      380.087      135.234        0.073        0.044       22.398        4.134        0.034      345.304       22.738      862.048
09/20/2014  23:37:00       -5.764       12.584       30.393       11.816       22.881       15.578      139.614      523.553      242.662        0.101        0.045       13.841       11.278        0.664      345.321       22.768      862.060
09/20/2014  23:38:00       22.117       28.931       35.880       20.041       17.823        9.373      401.629      317.675       87.852        0.171        0.040       36.416        3.635        0.010      345.327       22.777      862.075
09/20/2014  23:39:00       54.205       39.992       31.481       31.771       26.250       23.721     1009.366      689.079      562.677        0.389        0.113       67.361       21.294        0.100      345.334       22.789      862.094
09/20/2014  23:40:00       80.796       50.361       20.850       34.574       35.549       25.877     1195.379     1263.752      669.619        0.631        0.156       95.206       19.165        0.041      345.344       22.806      862.103
09/20/2014  23:41:00      101.060       64.432       21.828       19.145       20.285       20.890      366.525      411.479      436.395        0.803        0.061      119.852       11.166        0.009      345.386       22.880      862.122
09/20/2014  23:42:00       44.516       50.689       46.620       35.051       20.837       14.056     1228.548      434.194      197.576        0.429        0.093       67.461        3.693        0.003      345.337       22.796      862.125
09/20/2014  23:43:00       45.321       44.650       52.532       36.261       22.783       15.590     1314.825      519.082      243.038        0.444        0.104       63.621        9.615        0.023      345.296       22.726      862.133
09/20/2014  23:44:00       54.071       45.023       35.787       29.457       20.433       22.489      867.717      417.525      505.763        0.401        0.090       70.361       14.640        0.043      345.274       22.686      862.143
09/20/2014  23:45:00       67.023       35.990       18.536       32.310       28.360       25.928     1043.911      804.296      672.263        0.433        0.126       76.074       22.874        0.090      345.258       22.658      862.152
09/20/2014  23:46:00       51.029       62.266       33.114       36.304       34.805       27.695     1317.944     1211.411      767.012        0.544        0.165       80.505       19.505        0.059      345.251       22.646      862.153
09/20/2014  23:47:00       65.072       32.117       36.391       46.108       25.953       22.364     2125.935      673.538      500.126        0.494        0.165       72.566       12.945        0.032      345.258       22.659      862.134
09/20/2014  23:48:00       27.596       80.595       79.436       27.408       40.687       21.482      751.200     1655.466      461.490        0.822        0.143       85.189       18.427        0.047      345.290       22.714      862.126
09/20/2014  23:49:00       48.220       33.732       56.810       54.632       45.859       25.691     2984.666     2103.042      660.043        0.622        0.287       58.847       30.290        0.265      345.322       22.769      862.132
09/20/2014  23:50:00       24.193      -27.915       31.356       32.921       53.764       31.696     1083.776     2890.550     1004.629        0.366        0.249       36.940       37.631        1.038      345.279       22.696      862.135
09/20/2014  23:51:00       68.268      -42.496        8.134       34.949       34.427       27.003     1221.418     1185.198      729.161        0.483        0.157       80.415       23.813        0.088      345.247       22.638      862.137
09/20/2014  23:52:00       31.051       29.541       47.159       33.700       28.901       24.536     1135.695      835.281      601.997        0.332        0.129       42.858       18.567        0.188      345.215       22.585      862.141
09/20/2014  23:53:00       30.528       70.662       86.137       47.903       47.859       39.575     2294.718     2290.529     1566.185        0.975        0.308       76.975       36.150        0.221      345.278       22.694      862.146
09/20/2014  23:54:00      110.914      -89.821       11.868       68.408       78.528       45.725     4679.662     6166.711     2090.813        1.672        0.647      142.723       51.235        0.129      345.396       22.895      862.130
09/20/2014  23:55:00      174.207     -181.776       -8.722       66.228       75.066       47.932     4386.082     5634.871     2297.505        3.789        0.616      251.775       45.125        0.032      345.465       23.009      862.104
09/20/2014  23:56:00      141.525     -135.716        7.611       87.380       92.953       50.411     7635.248     8640.244     2541.235        2.866        0.941      196.082       64.226        0.107      345.443       22.973      862.086
09/20/2014  23:57:00      114.006     -161.208       -6.329       63.880       73.662       52.337     4080.636     5426.142     2739.212        2.563        0.612      197.447       53.169        0.073      345.484       23.045      862.060
09/20/2014  23:58:00      129.401     -177.324      -26.621       46.137       52.725       30.673     2128.621     2779.899      940.830        2.737        0.292      219.518       21.517        0.010      345.450       22.985      862.033
09/20/2014  23:59:00       45.264      -57.502       19.910       66.862       70.741       37.624     4470.551     5004.291     1415.563        0.832        0.545       73.179       50.941        0.485      345.404       22.911      862.034
